[[{"header":{"parameterUnit":"m.s-1","parameterCategory":1,"la1":30.6,"la2":29.2853,"lo1":-89.7004,"lo2":-87.6739,"dy":0.0162,"dx":0.0183,"nx":112,"ny":82,"refTime":"2026-05-23T12:00:00:Z","depth":0,"parameterNumber":2,"parameterNumberName":"U-component_of_WINDS"},"data":[0.0,0.0,0.0,0.0,0.0,0.0,0.0,0.0,0.0,0.0,0.0,0.0,0.0,0.0,0.0,0.0,0.0,0.0,0.0,0.0,0.0,0.0,0.0,0.0,0.0,0.0,0.0,0.0,0.0,0.0,0.0,0.0,0.0,0.0,0.0,0.0,0.0,0.0,0.0,0.0,0.0,0.0,0.0,0.0,0.0,0.0,0.0,0.0,0.0,0.0,0.0,0.0,0.0,0.0,0.0,0.0,0.0,0.0,0.0,0.0,0.0,0.0,0.0,0.0,0.0,0.0,0.0,0.0,0.0,0.0,0.0,0.0,0.0,0.0,0.0,0.0,0.0,0.0,0.0,0.0,0.0,0.0,0.0,0.0,0.0,0.0,0.0,0.0,0.0,0.0,0.0,-2.3236,-2.5726,-2.7136,-2.6814,-2.4889,-2.2188,-1.8669,0.0,0.0,0.0,0.0,0.0,0.0,0.0,0.0,0.0,0.0,0.0,0.0,0.0,0.0,0.0,0.0,0.0,0.0,0.0,0.0,0.0,0.0,0.0,0.0,0.0,0.0,0.0,0.0,0.0,0.0,0.0,0.0,0.0,0.0,0.0,0.0,0.0,0.0,0.0,0.0,0.0,0.0,0.0,0.0,0.0,0.0,0.0,0.0,0.0,0.0,0.0,0.0,0.0,0.0,0.0,0.0,0.0,0.0,0.0,0.0,0.0,0.0,0.0,0.0,0.0,0.0,0.0,0.0,0.0,0.0,0.0,0.0,0.0,0.0,0.0,0.0,0.0,0.0,0.0,0.0,0.0,0.0,0.0,0.0,0.0,0.0,0.0,0.0,0.0,0.0,0.0,0.0,0.0,0.0,0.0,0.0,0.0,0.0,0.0,0.0,0.0,0.0,0.0,0.0,-2.2976,-2.7348,-2.7698,-2.738,-2.677,-2.516,-2.2736,-1.9272,0.0,0.0,0.0,0.0,0.0,0.0,0.0,0.0,0.0,0.0,0.0,0.0,0.0,0.0,0.0,0.0,0.0,0.0,0.0,0.0,0.0,0.0,0.0,0.0,0.0,0.0,0.0,0.0,0.0,0.0,0.0,0.0,0.0,0.0,0.0,0.0,0.0,0.0,0.0,0.0,0.0,0.0,0.0,0.0,0.0,0.0,0.0,0.0,0.0,0.0,0.0,0.0,0.0,0.0,0.0,0.0,0.0,0.0,0.0,0.0,0.0,0.0,0.0,0.0,0.0,0.0,0.0,0.0,0.0,0.0,0.0,0.0,0.0,0.0,0.0,0.0,0.0,0.0,0.0,0.0,0.0,0.0,0.0,0.0,0.0,0.0,0.0,0.0,0.0,0.0,0.0,0.0,0.0,0.0,0.0,0.0,0.0,0.0,0.0,0.0,0.0,0.0,0.0,-2.2232,-2.4515,-2.8389,-2.887,-2.83,-2.6823,-2.5628,-2.336,-1.9601,-1.7182,0.0,0.0,0.0,0.0,0.0,0.0,0.0,0.0,0.0,0.0,0.0,0.0,0.0,0.0,0.0,0.0,0.0,0.0,0.0,0.0,0.0,0.0,0.0,0.0,0.0,0.0,0.0,0.0,0.0,0.0,0.0,0.0,0.0,0.0,0.0,0.0,0.0,0.0,0.0,0.0,0.0,0.0,0.0,0.0,0.0,0.0,0.0,0.0,0.0,0.0,0.0,0.0,0.0,0.0,0.0,0.0,0.0,0.0,0.0,0.0,0.0,0.0,0.0,0.0,0.0,0.0,0.0,0.0,0.0,0.0,0.0,0.0,0.0,0.0,0.0,0.0,0.0,0.0,0.0,0.0,0.0,0.0,0.0,0.0,0.0,0.0,0.0,0.0,0.0,0.0,0.0,0.0,0.0,0.0,0.0,0.0,0.0,0.0,0.0,0.0,0.0,0.0,-2.4839,-2.6234,-2.8795,-2.9387,-2.8828,-2.6892,-2.5706,-2.3463,-1.9731,-1.7255,0.0,0.0,0.0,0.0,0.0,0.0,0.0,0.0,0.0,0.0,0.0,0.0,0.0,0.0,0.0,0.0,0.0,0.0,0.0,0.0,0.0,0.0,0.0,0.0,0.0,0.0,0.0,0.0,0.0,0.0,0.0,0.0,0.0,0.0,0.0,0.0,0.0,0.0,0.0,0.0,0.0,0.0,0.0,0.0,0.0,0.0,0.0,0.0,0.0,0.0,0.0,0.0,0.0,0.0,0.0,0.0,0.0,0.0,0.0,0.0,0.0,0.0,0.0,0.0,0.0,0.0,0.0,0.0,0.0,0.0,0.0,0.0,0.0,0.0,0.0,0.0,0.0,0.0,0.0,0.0,0.0,0.0,0.0,0.0,0.0,0.0,0.0,0.0,0.0,0.0,0.0,0.0,0.0,0.0,0.0,0.0,0.0,0.0,0.0,0.0,0.0,0.0,-2.5859,-2.8077,-2.9637,-2.9196,-2.8247,-2.6901,-2.4909,-2.2512,-1.9683,-1.6947,0.0,0.0,0.0,0.0,0.0,0.0,0.0,0.0,0.0,0.0,0.0,0.0,0.0,0.0,0.0,0.0,0.0,0.0,0.0,0.0,0.0,0.0,0.0,0.0,0.0,0.0,0.0,0.0,0.0,0.0,0.0,0.0,0.0,0.0,0.0,0.0,0.0,0.0,0.0,0.0,0.0,0.0,0.0,0.0,0.0,0.0,0.0,0.0,0.0,0.0,0.0,0.0,0.0,0.0,0.0,0.0,0.0,0.0,0.0,0.0,0.0,0.0,0.0,0.0,0.0,0.0,0.0,0.0,0.0,0.0,0.0,0.0,0.0,0.0,0.0,0.0,0.0,0.0,0.0,0.0,0.0,0.0,0.0,0.0,0.0,0.0,0.0,0.0,0.0,0.0,0.0,0.0,0.0,0.0,0.0,0.0,0.0,0.0,0.0,0.0,0.0,0.0,-2.5602,-2.7802,0.0,-2.9984,-2.9171,-2.6992,-2.6016,-2.3845,-1.9878,0.0,0.0,0.0,0.0,0.0,0.0,0.0,0.0,0.0,0.0,0.0,0.0,0.0,0.0,0.0,0.0,0.0,0.0,0.0,0.0,0.0,0.0,0.0,0.0,0.0,0.0,0.0,0.0,0.0,0.0,0.0,0.0,0.0,0.0,0.0,0.0,0.0,0.0,0.0,0.0,0.0,0.0,0.0,0.0,0.0,0.0,0.0,0.0,0.0,0.0,0.0,0.0,0.0,0.0,0.0,0.0,0.0,0.0,0.0,0.0,0.0,0.0,0.0,0.0,0.0,0.0,0.0,0.0,0.0,0.0,0.0,0.0,0.0,0.0,0.0,0.0,0.0,0.0,0.0,0.0,0.0,0.0,0.0,0.0,0.0,0.0,0.0,0.0,0.0,0.0,0.0,0.0,0.0,0.0,0.0,0.0,0.0,0.0,0.0,0.0,0.0,0.0,-2.3318,-2.6105,-2.8373,0.0,-3.0431,-2.9519,-2.697,-2.5936,-2.3713,-1.9636,0.0,0.0,0.0,0.0,0.0,0.0,0.0,0.0,0.0,0.0,0.0,0.0,0.0,0.0,0.0,0.0,0.0,0.0,0.0,0.0,0.0,0.0,0.0,0.0,0.0,0.0,0.0,0.0,0.0,0.0,0.0,0.0,0.0,0.0,0.0,0.0,0.0,0.0,0.0,0.0,0.0,0.0,0.0,0.0,0.0,0.0,0.0,0.0,0.0,0.0,0.0,0.0,0.0,0.0,0.0,0.0,0.0,0.0,0.0,0.0,0.0,0.0,0.0,0.0,0.0,0.0,0.0,0.0,0.0,0.0,0.0,0.0,0.0,0.0,0.0,0.0,0.0,0.0,0.0,0.0,0.0,0.0,0.0,0.0,0.0,0.0,0.0,0.0,0.0,0.0,0.0,0.0,0.0,0.0,0.0,0.0,0.0,0.0,0.0,0.0,0.0,0.0,-2.4144,-2.7676,-3.0188,-3.0839,-3.0236,-2.8982,-2.6889,-2.4277,-2.158,0.0,0.0,0.0,0.0,0.0,0.0,0.0,0.0,0.0,0.0,0.0,0.0,0.0,0.0,0.0,0.0,0.0,0.0,0.0,0.0,0.0,0.0,0.0,0.0,0.0,0.0,0.0,0.0,0.0,0.0,0.0,0.0,0.0,0.0,0.0,0.0,0.0,0.0,0.0,0.0,0.0,0.0,0.0,0.0,0.0,0.0,0.0,0.0,0.0,0.0,0.0,0.0,0.0,0.0,0.0,0.0,0.0,0.0,0.0,0.0,0.0,0.0,0.0,0.0,0.0,0.0,0.0,0.0,0.0,0.0,0.0,0.0,0.0,0.0,0.0,0.0,0.0,0.0,0.0,0.0,0.0,0.0,0.0,0.0,0.0,0.0,0.0,0.0,0.0,0.0,0.0,0.0,0.0,0.0,0.0,0.0,0.0,0.0,0.0,0.0,0.0,0.0,0.0,-2.4209,-2.853,-3.1313,-3.1206,-3.103,-3.0067,-2.7936,-2.5732,-2.3021,-1.9618,0.0,0.0,0.0,0.0,0.0,0.0,0.0,0.0,0.0,0.0,0.0,0.0,0.0,0.0,0.0,0.0,0.0,0.0,0.0,0.0,0.0,0.0,0.0,0.0,0.0,0.0,0.0,0.0,0.0,0.0,0.0,0.0,0.0,0.0,0.0,0.0,0.0,0.0,0.0,0.0,0.0,0.0,0.0,0.0,0.0,0.0,0.0,0.0,0.0,0.0,0.0,0.0,0.0,0.0,0.0,0.0,0.0,0.0,0.0,0.0,0.0,0.0,0.0,0.0,0.0,0.0,0.0,0.0,0.0,0.0,0.0,0.0,0.0,0.0,0.0,0.0,0.0,0.0,0.0,0.0,0.0,0.0,0.0,0.0,0.0,0.0,0.0,0.0,0.0,0.0,0.0,0.0,0.0,0.0,0.0,0.0,0.0,0.0,0.0,0.0,0.0,0.0,-2.4628,-2.9081,-3.1927,-3.1754,-3.1408,-3.0403,-2.8367,-2.6191,-2.3459,-1.9917,0.0,0.0,0.0,0.0,0.0,0.0,0.0,0.0,0.0,0.0,0.0,0.0,0.0,0.0,0.0,0.0,0.0,0.0,0.0,0.0,0.0,0.0,0.0,0.0,0.0,0.0,0.0,0.0,0.0,0.0,0.0,0.0,0.0,0.0,0.0,0.0,0.0,0.0,0.0,0.0,0.0,0.0,0.0,0.0,0.0,0.0,0.0,0.0,0.0,0.0,0.0,0.0,0.0,0.0,0.0,0.0,0.0,0.0,0.0,0.0,0.0,0.0,0.0,0.0,0.0,0.0,0.0,0.0,0.0,0.0,0.0,0.0,0.0,0.0,0.0,0.0,0.0,0.0,0.0,0.0,0.0,0.0,0.0,0.0,0.0,0.0,0.0,0.0,0.0,0.0,0.0,0.0,0.0,0.0,0.0,0.0,0.0,0.0,0.0,0.0,0.0,0.0,-2.5322,-2.941,-3.2152,-3.2419,-3.1473,-3.0157,-2.8476,-2.6051,-2.3244,-2.0097,0.0,0.0,0.0,0.0,0.0,0.0,0.0,0.0,0.0,0.0,0.0,0.0,0.0,0.0,0.0,0.0,0.0,0.0,0.0,0.0,0.0,0.0,0.0,0.0,0.0,0.0,0.0,0.0,0.0,0.0,0.0,0.0,0.0,0.0,0.0,0.0,0.0,0.0,0.0,0.0,0.0,0.0,0.0,0.0,0.0,0.0,0.0,0.0,0.0,0.0,0.0,0.0,0.0,0.0,0.0,0.0,0.0,0.0,0.0,0.0,-2.6186,0.0,0.0,0.0,0.0,0.0,0.0,0.0,0.0,0.0,0.0,0.0,0.0,0.0,0.0,0.0,0.0,0.0,0.0,0.0,0.0,0.0,0.0,0.0,0.0,0.0,0.0,0.0,0.0,0.0,0.0,0.0,0.0,0.0,0.0,0.0,0.0,0.0,0.0,0.0,0.0,0.0,-2.6085,-2.989,-3.2434,-3.2709,-3.1311,-3.0077,-2.9362,-2.6426,-2.3648,-2.141,-1.8281,0.0,0.0,0.0,0.0,0.0,0.0,0.0,0.0,0.0,0.0,0.0,0.0,0.0,0.0,0.0,0.0,0.0,0.0,0.0,0.0,0.0,0.0,0.0,0.0,0.0,0.0,0.0,0.0,0.0,0.0,0.0,0.0,0.0,0.0,0.0,0.0,0.0,0.0,0.0,0.0,0.0,0.0,0.0,0.0,0.0,0.0,0.0,0.0,0.0,0.0,0.0,0.0,0.0,0.0,0.0,0.0,0.0,0.0,0.0,0.0,-2.8973,0.0,0.0,0.0,0.0,0.0,0.0,0.0,0.0,0.0,0.0,0.0,0.0,0.0,0.0,0.0,0.0,0.0,0.0,0.0,0.0,0.0,0.0,0.0,0.0,0.0,0.0,0.0,0.0,0.0,0.0,0.0,0.0,0.0,0.0,0.0,0.0,0.0,0.0,0.0,0.0,-2.6328,-2.9726,-3.2117,-3.2732,-3.123,-3.0027,-2.9633,-2.7111,-2.4717,-2.2742,-2.0105,0.0,0.0,0.0,0.0,0.0,0.0,0.0,0.0,0.0,0.0,0.0,0.0,0.0,0.0,0.0,0.0,0.0,0.0,0.0,0.0,0.0,0.0,0.0,0.0,0.0,0.0,0.0,0.0,0.0,0.0,0.0,0.0,0.0,0.0,0.0,0.0,0.0,0.0,0.0,0.0,0.0,0.0,0.0,0.0,0.0,0.0,0.0,0.0,0.0,0.0,0.0,0.0,0.0,-3.9638,-3.9622,-3.9136,-3.9136,-3.9136,-3.8877,-3.4174,-3.2602,-3.308,-2.9372,0.0,0.0,0.0,0.0,0.0,0.0,0.0,0.0,0.0,0.0,0.0,0.0,0.0,0.0,0.0,0.0,0.0,0.0,0.0,0.0,0.0,0.0,0.0,0.0,-3.2368,-3.1008,-2.6056,0.0,0.0,0.0,0.0,0.0,0.0,0.0,0.0,0.0,0.0,0.0,-2.6747,-2.9612,-3.1706,-3.2609,-3.114,-2.9963,-2.9633,-2.7764,-2.5839,-2.4059,-2.2128,-1.9956,0.0,0.0,0.0,0.0,0.0,0.0,0.0,0.0,0.0,0.0,0.0,0.0,0.0,0.0,0.0,0.0,0.0,0.0,0.0,0.0,0.0,0.0,0.0,0.0,0.0,0.0,0.0,0.0,0.0,0.0,0.0,0.0,-1.7802,-2.1214,0.0,0.0,0.0,0.0,0.0,0.0,0.0,0.0,0.0,0.0,0.0,0.0,0.0,-3.6707,-3.6707,-3.9496,-4.1292,-4.2068,-4.4577,-4.4464,-4.2052,-4.2052,-4.2052,-4.2004,-4.1243,0.0,-3.0771,-3.4975,0.0,0.0,0.0,0.0,0.0,0.0,0.0,0.0,0.0,0.0,0.0,0.0,0.0,0.0,0.0,0.0,0.0,0.0,0.0,0.0,0.0,0.0,-3.5412,-3.4133,-3.3825,-3.3275,0.0,-2.8741,-2.5862,-2.2606,-2.1615,0.0,0.0,0.0,0.0,0.0,0.0,0.0,-2.8475,-3.0564,-3.1856,-3.2238,-3.0728,-2.966,-2.9606,-2.7764,-2.6243,-2.539,-2.3505,-2.1754,-2.024,-1.7697,0.0,0.0,0.0,0.0,0.0,0.0,0.0,0.0,0.0,0.0,0.0,0.0,0.0,0.0,0.0,0.0,0.0,0.0,0.0,0.0,0.0,0.0,0.0,0.0,0.0,0.0,0.0,0.0,0.0,-1.8821,-2.2586,-2.6809,-2.5564,-2.3058,0.0,0.0,0.0,0.0,0.0,0.0,0.0,0.0,0.0,-3.2789,-3.7987,-4.1549,-4.3152,-4.4399,-4.5014,-4.503,-4.6293,-4.6228,-4.5014,-4.5014,-4.5014,-4.5014,-4.5014,-4.2893,-3.9522,-4.0399,-3.6675,-3.0231,0.0,0.0,0.0,0.0,-2.8369,-3.4693,-3.4693,-3.6303,-3.8132,-3.6513,0.0,0.0,0.0,0.0,0.0,0.0,0.0,0.0,0.0,0.0,-3.5121,-3.5299,-3.5347,-3.5169,-3.4554,-3.2935,-3.0383,0.0,-2.5473,-2.4468,-2.116,0.0,0.0,0.0,0.0,-2.6892,-2.9482,-3.075,-3.1605,-3.2142,-3.0935,-2.9968,-2.9636,-2.8442,-2.7275,-2.6228,-2.4657,-2.334,-2.2368,-1.9794,-1.7819,0.0,0.0,0.0,0.0,0.0,0.0,0.0,0.0,0.0,0.0,0.0,0.0,0.0,0.0,0.0,0.0,0.0,0.0,0.0,0.0,0.0,0.0,0.0,0.0,0.0,0.0,0.0,0.0,-2.1477,-2.6283,-3.068,-3.0565,-2.8169,0.0,0.0,0.0,0.0,0.0,0.0,-4.3153,-4.1031,-3.9476,-3.9476,-4.2229,-4.4739,-4.686,-4.6876,-4.6876,-4.6876,-4.6876,-4.6876,-4.6876,-4.6876,-4.6876,-4.6876,-4.6876,-4.6876,-4.6666,-4.38,-4.0094,-3.6076,-3.3955,-3.1834,-2.995,-2.995,-3.3978,-3.9476,-3.9476,-3.9476,-3.912,-3.6983,-3.8654,-4.1114,-3.9039,0.0,0.0,0.0,0.0,-3.5542,-3.6999,-3.6287,-3.5525,-3.6805,-3.6983,-3.6805,-3.661,-3.6125,-3.4408,0.0,-2.9372,-2.8417,-2.4677,0.0,0.0,0.0,0.0,-2.8694,-3.0457,-3.1192,-3.1653,-3.2005,-3.1108,-3.0253,-2.9666,-2.8981,-2.8098,-2.6941,-2.5764,-2.4799,-2.4148,-2.1904,-2.0139,-1.8972,0.0,0.0,0.0,0.0,0.0,0.0,0.0,0.0,0.0,0.0,0.0,0.0,0.0,0.0,0.0,0.0,0.0,0.0,0.0,0.0,0.0,0.0,0.0,0.0,0.0,0.0,0.0,0.0,0.0,-3.0796,-3.6084,0.0,0.0,0.0,0.0,-3.3097,-3.6125,-4.0367,-4.6342,-4.3929,-4.2392,-4.2392,-4.5176,-4.673,-4.6876,-4.6876,-4.6876,-4.6876,-4.6876,-4.6876,-4.6876,-4.6876,-4.6876,-4.6876,-4.6876,-4.6876,-4.6666,-4.38,-4.2424,-4.2166,-4.202,-4.1858,-4.1745,-4.1745,-4.202,-4.2392,-4.2392,-4.2392,-4.236,-4.2214,-4.0577,-3.8586,-3.844,-3.6189,0.0,0.0,-3.8068,-3.8505,-3.9914,-3.9233,-3.8375,-3.9136,-3.8796,-3.81,-3.7392,-3.7214,-3.6335,0.0,-3.2287,-3.1121,-2.8876,0.0,-2.8778,-2.9459,-3.0225,-3.0957,-3.1643,-3.2293,-3.2419,-3.1611,-3.0911,-3.0253,-2.9666,-2.8981,-2.8293,-2.7585,-2.6896,-2.6198,-2.554,-2.4148,-2.2218,-1.9708,-1.7609,0.0,0.0,0.0,0.0,0.0,0.0,0.0,0.0,0.0,0.0,0.0,0.0,0.0,0.0,0.0,0.0,0.0,0.0,0.0,0.0,0.0,0.0,0.0,0.0,0.0,0.0,0.0,0.0,-3.9214,-3.972,0.0,-3.5599,-3.2696,-3.2938,-3.7603,-3.9907,-4.1971,-4.401,-4.4933,-4.4528,-4.2651,-4.5403,-4.6876,-4.6876,-4.6876,-4.832,-5.1127,-5.0134,-4.9661,-4.958,-4.7734,-4.6876,-4.6876,-4.6876,-4.6876,-4.6811,-4.5791,-4.537,-4.537,-4.537,-4.537,-4.5144,-4.3282,-4.2602,-4.2602,-4.2602,-4.2602,-4.2602,-4.2602,-4.1907,-4.1098,-4.1098,-4.037,-3.9771,-4.0806,-4.1098,-4.1211,-4.1713,-4.147,-4.0869,-3.9927,-3.9379,-3.9052,-3.8764,-3.8343,-3.7582,-3.6092,-3.4862,-3.3372,-3.1235,-3.1251,-3.1384,-3.0881,-3.1182,-3.1773,-3.2594,-3.2268,-3.1838,-3.1524,-3.1286,-3.0731,-2.9696,-2.9397,-2.8603,-2.7061,-2.6318,-2.5659,-2.4978,-2.4088,-2.2966,-2.1655,-2.0075,-1.7968,0.0,0.0,0.0,0.0,0.0,0.0,0.0,0.0,0.0,0.0,0.0,0.0,0.0,0.0,0.0,0.0,0.0,0.0,0.0,0.0,0.0,0.0,0.0,0.0,0.0,0.0,-3.8485,-4.3554,-4.3019,-4.1484,-3.9544,-3.7814,-3.8797,-4.3652,-4.4469,-4.4571,-4.4059,-4.6307,-4.6503,-4.4123,-4.5888,-4.7381,-4.8317,-4.8333,-4.981,-5.2711,-5.1688,-5.1183,-5.1086,-4.8204,-4.6876,-4.6876,-4.6876,-4.6876,-4.6876,-4.6876,-4.6876,-4.6876,-4.6876,-4.6876,-4.6649,-4.4771,-4.4059,-4.3929,-4.2942,-4.2602,-4.2602,-4.2602,-4.2602,-4.2602,-4.2602,-4.2602,-4.2602,-4.2602,-4.2602,-4.2602,-4.2602,-4.2602,-4.2279,-4.1047,-4.014,-3.9586,-3.9522,-3.891,-3.8262,-3.7776,-3.6788,-3.5519,-3.3876,-3.4088,-3.4072,-3.2922,-3.2818,-3.2924,-3.3035,-3.2299,-3.1668,-3.1511,-3.1511,-3.0972,-2.9726,-2.9397,-2.8618,-2.7046,-2.6093,-2.5397,-2.4948,-2.4088,-2.3206,-2.2388,-2.0827,-1.9044,-1.704,0.0,0.0,0.0,0.0,0.0,0.0,0.0,0.0,0.0,0.0,0.0,0.0,0.0,0.0,0.0,0.0,0.0,0.0,0.0,0.0,0.0,0.0,0.0,-3.3582,-3.6522,-4.0366,-4.3116,-4.6027,-4.5319,-3.887,-4.1533,-4.5894,-5.1283,-5.008,-4.8467,-4.7048,-4.8275,-4.8371,-4.7014,-4.7129,-4.8527,-5.1226,-5.1258,-5.1258,-5.1183,-5.1183,-5.1183,-5.1086,-4.8204,-4.6959,-4.7022,-4.7022,-4.7022,-4.7022,-4.7022,-4.7022,-4.704,-4.6959,-4.6876,-4.6876,-4.6876,-4.6876,-4.6488,-4.3686,-4.2732,-4.2716,-4.2635,-4.2602,-4.2602,-4.2602,-4.2602,-4.2602,-4.2602,-4.2602,-4.2602,-4.2602,-4.2602,-4.2602,-4.2602,-4.1209,-3.9829,-3.957,-3.8926,-3.8424,-3.8391,-3.803,-3.7527,-3.6839,-3.6924,-3.6761,-3.5793,-3.5256,0.0,-3.302,-3.2453,-3.2023,-3.1568,-3.1511,-3.0987,-2.9714,-2.9011,-2.8323,-2.7615,-2.6318,-2.56,-2.5561,-2.4328,-2.3056,-2.1814,-1.9839,-1.8476,-1.7787,0.0,0.0,0.0,0.0,0.0,0.0,0.0,0.0,0.0,0.0,0.0,0.0,0.0,0.0,0.0,0.0,0.0,0.0,0.0,0.0,0.0,-4.104,-4.3996,-3.9122,-4.0961,-4.3727,-4.6129,-4.7615,-4.7852,-4.6306,-4.6568,-4.8205,-5.1444,-5.1245,-5.0215,-4.8498,-4.8798,-4.8798,-4.8435,-5.1929,-5.348,-5.2868,-5.285,-5.2305,-5.1183,-5.1183,-5.1183,-5.1086,-4.8204,-4.8026,-5.0001,-5.0001,-5.0001,-5.0001,-5.0001,-5.0001,-4.9791,-4.7702,-4.6876,-4.6876,-4.6876,-4.6876,-4.6779,-4.5986,-4.571,-4.537,-4.3266,-4.2602,-4.2602,-4.2602,-4.2602,-4.2602,-4.2602,-4.2602,-4.2602,-4.2602,-4.2602,-4.2602,-4.2602,-4.2198,-4.1452,-4.004,-3.9457,-3.9023,-3.8505,-3.8437,-3.8199,-3.7281,-3.7194,-3.7041,-3.6404,-3.5356,0.0,-3.3961,-3.2912,-3.2023,-3.1568,-3.1511,-3.1152,-3.0313,-2.9669,-2.8607,-2.6986,-2.6078,-2.5367,-2.4903,-2.4515,-2.4156,-2.3812,-2.2353,-2.1021,0.0,0.0,0.0,0.0,0.0,0.0,0.0,0.0,0.0,0.0,0.0,0.0,0.0,0.0,0.0,0.0,0.0,0.0,0.0,0.0,0.0,0.0,-4.6016,-4.7337,-4.5552,-4.5899,-4.6938,-4.8611,-4.9497,-5.0057,-5.0281,-4.9862,-5.0725,-5.3466,-5.244,-5.1245,-5.0176,-4.9424,-4.9943,-5.202,-5.4906,-5.5861,-5.4741,-5.471,-5.4281,-5.3364,-5.1915,-5.1183,-5.1118,-4.9451,-4.9596,-5.1183,-5.1183,-5.1183,-5.1183,-5.1183,-5.1183,0.0,0.0,0.0,0.0,0.0,-4.6876,-4.6876,-4.6876,-4.6876,-4.6601,-4.4949,-4.4415,-4.4415,-4.4415,-4.3541,-4.2602,-4.2602,-4.2602,-4.2602,-4.2602,-4.2602,-4.2602,-4.2602,-4.2602,-4.2214,-4.0867,-4.0008,-3.9376,-3.8926,-3.8727,0.0,-3.8018,-3.8019,-3.7866,-3.7157,-3.6217,-3.5222,-3.427,-3.324,-3.2327,-3.1583,-3.1668,-3.1439,-3.0567,-3.0099,0.0,0.0,0.0,-2.56,-2.4649,-2.4605,0.0,0.0,0.0,0.0,0.0,0.0,0.0,0.0,-1.9839,-1.9795,0.0,0.0,0.0,0.0,0.0,0.0,0.0,0.0,0.0,0.0,0.0,0.0,0.0,0.0,0.0,0.0,-5.0513,-5.0084,-5.1494,-5.0477,-4.9852,-5.0548,-5.1351,-5.1797,-5.1708,-5.169,-5.285,-5.5651,-5.3278,-5.1757,-5.1907,0.0,0.0,0.0,0.0,-5.6401,-5.6401,-5.6172,-5.5986,-5.578,-5.2683,-5.1296,-5.1429,-5.1296,-5.1183,-5.1183,-5.1183,-5.1296,-5.1445,-5.1258,-5.1183,-5.1183,-5.1183,-4.9532,-4.7103,-4.6941,-4.6876,-4.6876,-4.6876,0.0,0.0,-4.6876,-4.6876,-4.6876,-4.6876,-4.5111,-4.3007,-4.2683,-4.2602,-4.2602,-4.2602,-4.2602,-4.2602,-4.2602,-4.2602,-4.2376,-4.1579,-4.0461,-3.9586,-3.9424,-3.8845,-3.8476,-3.875,-3.898,-3.883,-3.7947,-3.7416,-3.6433,-3.4478,-3.3723,-3.2988,-3.1877,0.0,0.0,-3.0867,-3.054,-2.9938,-2.8847,-2.754,-2.6288,-2.5098,-2.5128,-2.5128,-2.5053,-2.5053,-2.5307,-2.5839,-2.5839,-2.6168,-2.6722,-2.2463,-2.1952,0.0,0.0,0.0,0.0,0.0,0.0,0.0,0.0,0.0,0.0,0.0,0.0,0.0,0.0,0.0,-5.1298,-5.144,-5.1333,-5.1654,-5.1422,-5.128,-5.144,-5.2172,-5.2429,-5.1762,-5.169,-5.194,-5.2564,-5.2029,-5.2128,-5.31,-5.429,-5.5411,-5.6383,-5.6401,-5.6401,-5.6401,-5.4834,-5.3433,-5.2205,0.0,0.0,-5.2989,-5.1762,-5.1183,-5.1183,-5.1183,-5.1908,-5.2971,-5.1725,-5.1183,-5.1183,-5.1183,-5.0131,-4.8463,-4.7313,-4.6876,-4.6876,-4.6876,-4.6876,-4.6876,-4.6876,-4.6876,-4.6876,-4.6876,-4.6504,0.0,-4.325,-4.2602,-4.2602,-4.2602,-4.2602,-4.2602,-4.2602,-4.2602,-4.2149,-4.048,-4.0251,-3.9962,-3.8829,-3.8489,-3.8476,-3.875,-3.8655,-3.8551,-3.8581,-3.7828,-3.7001,-3.6238,-3.5234,-3.4283,-3.3531,-3.3172,-3.2824,-3.2377,-3.1803,-3.1031,-2.9953,-2.883,-2.8098,-2.7844,-2.8353,-2.8368,-2.7844,-2.7829,-2.7619,-2.721,-2.721,-2.757,-2.8173,-2.6183,-2.5856,0.0,0.0,0.0,0.0,0.0,0.0,0.0,0.0,0.0,0.0,0.0,-2.9136,-3.5616,0.0,-5.0762,-5.1565,-5.169,-5.169,-5.169,-5.169,-5.169,-5.169,-5.2047,-5.2042,-5.141,-5.1297,-5.1605,-5.2457,-5.2298,-5.298,-5.4866,-5.589,-5.6401,-5.6401,-5.6401,-5.6401,-5.6401,-5.5437,-5.4074,-5.234,-5.234,-5.234,-5.2305,-5.154,-5.1614,-5.234,-5.234,-5.234,-5.2269,-5.1503,-5.1183,-5.1183,-5.1183,-5.0746,-4.9839,-4.767,-4.6876,-4.6876,-4.6876,-4.6876,-4.6876,-4.6876,-4.6876,-4.6876,-4.6876,-4.6876,-4.6585,-4.516,-4.3703,-4.2602,-4.2602,-4.2602,-4.2602,-4.2602,-4.2602,-4.2344,-4.1419,-4.0836,-4.0286,-3.959,-3.8877,-3.8532,-3.8925,-3.8683,-3.856,-3.8925,-3.8466,-3.7833,-3.7196,-3.6342,-3.5373,-3.4219,-3.3959,-3.3568,-3.285,-3.1993,-3.1255,-3.0731,-2.9697,-2.9086,-2.9086,-2.94,-2.9457,-2.9101,-2.9086,-2.8948,-2.8603,-2.8603,-2.8933,-2.9535,-2.9098,-2.8884,0.0,0.0,0.0,0.0,0.0,0.0,0.0,0.0,-3.3761,-3.6693,-3.7698,-3.8951,-4.1858,-4.6046,-4.9646,-5.1397,-5.169,-5.169,-5.169,-5.169,-5.169,-5.169,-5.1833,-5.1681,-5.1017,-5.1059,-5.1614,-5.281,-5.2984,-5.3853,-5.5733,-5.6003,-5.6217,-5.6383,-5.6401,-5.6401,-5.6401,-5.6401,-5.542,-5.3501,-5.3501,-5.285,-5.1651,-5.1651,-5.2305,-5.3501,-5.3399,-5.2518,-5.1221,-5.128,-5.1242,-5.1183,-5.1183,-5.1183,-5.0908,-4.8576,-4.7397,-4.6876,-4.6876,-4.6876,-4.6876,-4.6876,-4.6876,-4.6876,-4.6876,-4.6876,-4.6828,-4.6552,-4.4625,-4.2602,-4.2602,-4.2602,-4.2602,-4.2602,-4.2602,-4.2601,-4.2518,-4.1608,-4.0745,-4.0528,-3.9552,-3.8918,-3.9239,-3.8942,-3.8794,-3.9249,-3.8952,-3.851,-3.7899,-3.733,-3.6486,-3.5203,-3.5021,-3.4525,-3.3365,-3.2264,-3.1597,-3.1516,-3.0622,-3.0063,-2.9968,-2.9968,-2.9968,-2.9968,-2.9968,-2.9968,-2.9968,-3.0063,-3.0346,-3.0842,-3.1284,-3.1156,-2.422,-2.4543,-2.5659,-2.796,-2.8264,-2.96,0.0,0.0,-3.958,-4.1256,-4.2732,-4.4662,-4.7772,-4.8274,-4.8977,-5.1322,-5.169,-5.169,-5.169,-5.169,-5.169,-5.169,-5.234,-5.2234,-5.0954,-5.1673,-5.1993,-5.1478,-5.3435,-5.4409,-5.3849,-5.4631,-5.5461,-5.6355,-5.6401,-5.6401,-5.6401,-5.6401,-5.542,-5.3501,-5.3501,-5.3399,-5.3246,-5.3246,-5.3331,-5.3467,-5.2989,-5.2181,-5.1221,-5.1508,-5.1487,-5.1183,-5.1183,-5.1183,-5.1135,-5.0827,-4.9078,-4.6876,-4.6876,-4.6876,-4.6876,-4.6876,-4.6876,-4.6876,-4.6876,-4.6876,-4.6633,-4.537,-4.3864,-4.2602,-4.2602,-4.2602,-4.2602,-4.2602,-4.2602,-4.2534,-4.2206,-4.2035,-4.1632,-4.0606,-4.0282,-4.0061,-3.9716,-3.9599,-3.9573,-3.9651,-3.8958,-3.8567,-3.8956,-3.8393,-3.7894,-3.7788,-3.714,-3.6237,-3.5023,-3.3878,-3.3072,-3.2667,-3.2185,-3.1726,-3.1315,-3.1286,-3.1286,-3.1286,-3.1286,-3.1286,-3.1286,-3.1697,-3.1952,-3.2028,-3.2423,-3.2392,-2.8891,-2.9264,-2.9973,0.0,-3.3169,-3.4573,-3.728,-3.9039,-4.051,-4.1999,-4.3348,-4.5005,-4.7439,-4.7883,-4.8703,0.0,-5.169,-5.169,-5.169,-5.1155,-5.0645,-5.0325,-5.0386,-5.0582,-5.0893,-5.0858,-5.0968,-5.1339,-5.2234,-5.3024,-5.3628,-5.4464,-5.5177,-5.5797,-5.6217,-5.6401,-5.6401,-5.6401,-5.57,-5.4301,-5.3767,-5.3501,-5.3501,-5.3501,-5.3501,-5.3467,-5.3024,-5.2589,-5.2181,-5.2092,-5.1984,-5.1818,-5.1598,-5.1487,-5.1471,-5.0809,-4.9791,-4.8641,-4.7815,-4.754,-4.7459,-4.7022,-4.6876,-4.6876,-4.6876,-4.6876,-4.6763,-4.618,-4.4383,-4.2732,-4.333,-4.3055,-4.2602,-4.2602,-4.2602,-4.2553,-4.2416,-4.2255,-4.1829,-4.0877,-4.0535,-4.0242,-3.9785,-3.953,-3.9513,-3.9867,-3.9329,-3.9061,-3.9644,-3.9017,-3.8444,-3.8219,-3.698,-3.5994,-3.5484,-3.4249,-3.3424,-3.3208,-3.2563,-3.2107,-3.1925,-3.164,-3.164,-3.1881,-3.1925,-3.2007,-3.2272,-3.2465,-3.2547,-3.2574,-3.3007,-3.3102,-3.1718,-3.2598,-3.3508,-3.4815,-3.6992,-3.887,-3.9073,-4.0087,-4.1399,-4.2658,-4.3579,-4.4729,-4.6583,-4.7116,-4.8249,-5.1223,-5.169,-5.169,-5.169,-5.0464,-4.9485,-4.9327,-4.8653,-4.8766,-5.0224,-4.9993,-5.0138,-5.103,-5.1213,-5.195,-5.3511,-5.4113,-5.4726,-5.5461,-5.5957,-5.6273,-5.6401,-5.6273,-5.5786,-5.4874,-5.4093,-5.3618,-5.3501,-5.3501,-5.3433,-5.3314,-5.3024,-5.2834,-5.2712,-5.2414,-5.2307,-5.2272,-5.1858,-5.1745,-5.1676,-5.0749,-5.0276,-4.9936,-4.8706,-4.8171,-4.788,-4.7135,-4.6876,-4.6876,-4.6876,-4.6876,-4.6878,-4.6633,-4.4965,-4.3346,-4.3848,-4.3314,-4.2602,-4.2602,-4.2602,-4.2634,-4.2711,-4.2629,-4.2325,-4.1609,-4.1349,-4.0992,-4.0251,-3.991,-3.9826,-4.0054,-3.9592,-3.9391,-3.9918,-3.9355,-3.8782,-3.851,-3.7112,-3.6151,-3.6074,-3.4781,-3.392,-3.3773,-3.2889,-3.233,-3.2191,-3.1868,-3.1868,-3.2191,-3.233,-3.252,-3.2788,-3.2938,-3.2991,-3.2991,-3.3461,-3.378,-3.1207,-3.3322,-3.5684,-3.6502,-3.892,-4.1288,-4.1999,-4.276,-4.3538,-4.4378,-4.4547,-4.509,-4.6691,-4.6597,-4.7439,-5.1116,-5.169,-5.169,-5.169,-4.9669,-4.8443,-4.9214,-4.7908,-4.7428,-4.8657,-4.9448,-4.9968,-5.0122,-5.0973,-5.1961,-5.3066,-5.3138,-5.3931,-5.5653,-5.57,-5.5947,-5.6401,-5.5947,-5.5449,-5.4874,-5.4394,-5.3931,-5.3501,-5.3501,-5.328,-5.2903,-5.2903,-5.2677,-5.2307,-5.2307,-5.2307,-5.2272,-5.1858,-5.1745,-5.1741,-5.1301,-5.0697,-5.0001,-4.922,-4.8524,-4.788,-4.7135,-4.6876,-4.6876,-4.6876,-4.6876,-4.6747,-4.6034,-4.5305,-4.4577,-4.3897,-4.3153,-4.2602,-4.2602,-4.2602,-4.2696,-4.3021,-4.3323,-4.3418,-4.3036,-4.3149,-4.2868,-4.1398,-4.1144,-4.089,-4.0214,-3.9592,-3.9312,-3.9677,-3.9408,-3.9189,-3.9172,-3.8245,-3.7524,-3.7269,-3.5963,-3.4955,-3.4499,-3.3406,-3.2629,-3.2219,-3.2191,-3.2191,-3.2191,-3.2574,-3.2788,-3.2788,-3.3261,-3.3477,-3.3503,-3.3899,-3.4473,-3.449,-3.656,-3.8341,-4.035,-4.1963,-4.3191,-4.3705,-4.3606,-4.3477,-4.3758,-4.3031,-4.2855,-4.457,-4.5591,-4.7068,-4.9666,-5.0994,-5.1139,-4.9547,-4.9021,-4.8171,-4.6409,-4.6371,0.0,0.0,0.0,0.0,-4.9882,-5.1343,-5.2381,-5.2735,-5.4089,-5.4949,-5.5147,-5.5815,-5.5901,-5.5402,-5.5613,-5.5271,-5.4425,-5.3963,-5.3651,-5.3501,-5.3501,-5.3433,-5.3314,-5.3314,-5.3212,-5.3093,-5.3093,-5.2938,-5.2642,-5.2272,-5.1964,-5.1741,-5.1333,-5.1021,-5.0649,-4.9451,-4.8832,-4.8479,-4.7281,-4.6876,-4.6876,-4.6876,-4.6876,-4.6828,-4.6585,-4.5678,-4.4739,-4.4496,-4.3509,-4.2602,-4.2602,-4.2602,-4.2634,-4.2743,-4.3204,-4.3439,-4.2795,-4.3043,-4.3071,-4.21,-4.1525,-4.0898,-3.9959,-3.9816,-3.9696,-3.9408,-3.9618,-3.9799,-3.9799,-3.8733,-3.8005,-3.79,-3.6704,-3.5712,-3.5188,-3.4129,-3.3327,-3.2892,-3.2435,-3.2315,-3.2586,-3.3033,-3.3657,-3.4392,-3.4073,-3.4398,-3.5347,-3.4988,-3.5218,-3.7167,-3.9081,-4.0539,-4.2754,-4.3751,-4.4282,-4.4535,-4.3978,-4.324,-4.2716,-4.166,-4.107,-4.1905,-4.2886,-4.4489,-4.7191,-4.8496,-4.9112,-4.8983,-4.8864,-4.817,-4.6443,-4.6501,-4.6749,0.0,0.0,0.0,-4.96,-5.1385,-5.2588,-5.2868,-5.4383,-5.5325,-5.5432,-5.5901,-5.5844,-5.5194,-5.5164,-5.4755,-5.3963,-5.3651,-5.3501,-5.3501,-5.3501,-5.3501,-5.3501,-5.3501,-5.3501,-5.3501,-5.3501,-5.3246,-5.2868,-5.2466,-5.2073,-5.1692,-5.1041,-5.0795,-5.0633,-4.9434,-4.8994,-4.8787,-4.7346,-4.6876,-4.6876,-4.6876,-4.6876,-4.6828,-4.6568,-4.5678,-4.4739,-4.448,-4.3524,-4.2602,-4.2602,-4.2602,-4.2602,-4.2602,-4.3052,-4.3327,-4.2953,-4.3304,-4.3451,-4.2801,-4.1863,-4.0948,-4.0199,-4.0104,-3.9918,-3.9435,-3.9618,-3.9825,-3.9944,-3.9035,-3.8411,-3.8411,-3.7167,-3.6273,-3.592,-3.4667,-3.3911,-3.3812,-3.3136,-3.2974,-3.3406,-3.3879,-3.4458,-3.5211,-3.4991,-3.538,-3.6303,-3.5801,-3.5979,-3.913,-4.0851,-4.2349,-4.3752,-4.4343,-4.4603,-4.4547,-4.3826,-4.2767,-4.1339,-4.0341,-3.9521,-3.8747,0.0,-4.0079,-4.3821,-4.4621,-4.6101,-4.9882,-4.9159,-4.8458,0.0,0.0,0.0,0.0,0.0,0.0,-4.9321,0.0,-5.2613,-5.3382,-5.4158,-5.515,-5.6338,-5.5947,-5.5671,-5.5613,-5.4645,-5.3931,-5.3501,-5.3501,-5.3501,-5.3501,-5.3501,-5.3501,-5.3501,-5.3501,-5.3501,-5.3501,-5.3467,-5.3246,-5.2834,-5.243,-5.202,-5.1557,-5.0538,-5.0131,-5.0001,-4.9273,-4.8961,-4.8738,-4.7346,-4.6876,-4.6876,-4.6876,-4.6876,-4.6747,-4.605,-4.5338,-4.4642,-4.3945,-4.3169,-4.2602,-4.2602,-4.2602,-4.2602,-4.2602,-4.2867,-4.3188,-4.3519,-4.3877,-4.3977,-4.35,-4.2252,-4.1184,-4.0879,-4.0441,-4.0045,-3.9729,-3.9435,-3.9382,-3.9703,-3.9212,-3.8832,-3.8832,-3.7516,-3.6651,-3.6622,-3.5093,-3.4415,-3.4898,-3.4257,-3.4105,-3.4552,-3.4977,-3.5244,-3.5325,-3.5946,-3.6303,-3.6416,-3.6384,-3.6697,-4.1076,-4.3191,-4.487,-4.5246,-4.5026,-4.4492,-4.3844,-4.1847,-3.9851,-3.8937,-3.6806,-3.5023,-3.472,-3.6571,0.0,-4.1581,-4.4963,0.0,-4.8979,-4.9775,0.0,-4.8118,0.0,-4.8117,-4.7617,-4.8663,0.0,0.0,-5.2405,-5.3611,-5.3851,-5.5168,-5.5903,-5.5872,-5.5758,-5.5331,-5.46,-5.3963,-5.3618,-5.3501,-5.3501,-5.3501,-5.3501,-5.3501,-5.3501,-5.3501,-5.3501,-5.3501,-5.3467,-5.3178,-5.2834,-5.243,-5.2089,-5.1688,-5.1285,-5.101,-5.0568,-5.0001,-4.9273,-4.8654,-4.8123,-4.7184,-4.6876,-4.6876,-4.6876,-4.6876,-4.6844,-4.6666,-4.5726,-4.4755,-4.4561,-4.3573,-4.2602,-4.2602,-4.2602,-4.2602,-4.2602,-4.2867,-4.3188,-4.3519,-4.408,-4.4232,-4.3527,-4.3088,-4.2446,-4.1268,-4.0983,-4.061,-3.9796,-3.979,-3.9918,-3.9995,-3.9687,-3.9372,-3.9125,-3.8249,-3.7454,-3.685,-3.5956,-3.5361,-3.5123,-3.513,-3.5201,-3.5311,-3.5245,-3.5704,-3.6772,-3.5898,-3.6287,-3.7857,-3.7307,-3.7242,-4.2881,-4.4718,-4.6023,-4.584,-4.5085,-4.3975,-4.2326,-3.9918,-3.7449,-3.5385,-3.3168,-3.1413,-3.082,-3.3053,0.0,0.0,0.0,0.0,-4.86,-4.9551,-4.9741,0.0,-4.9056,0.0,-4.9,-4.943,-5.0307,0.0,-5.3184,-5.4144,-5.4501,-5.5723,-5.6273,-5.6003,-5.5566,-5.4878,-5.3898,-5.3618,-5.3501,-5.3501,-5.3501,-5.3501,-5.3501,-5.3501,-5.3501,-5.3501,0.0,-5.3501,-5.3467,-5.3246,-5.2938,-5.2537,-5.2145,-5.1782,-5.138,-5.0885,-5.0455,-4.9953,-4.8933,-4.8333,-4.788,-4.7135,-4.6876,-4.6876,-4.6876,-4.6876,-4.6811,-4.6504,-4.584,-4.5095,-4.448,-4.3719,-4.2991,-4.2683,-4.2602,-4.2602,-4.2602,-4.2867,-4.3218,-4.3713,-4.4241,-4.4479,-4.3995,-4.3639,-4.3105,-4.2303,-4.161,-4.1,-4.0422,-4.0214,-4.0096,-4.0096,-3.9858,-3.9609,-3.9435,-3.8423,-3.7621,-3.7161,-3.6426,-3.6013,-3.5952,-3.6009,-3.6127,-3.6337,-3.6212,-3.6513,-3.7295,-3.6821,-3.7127,-3.8062,-3.7676,-3.7419,-4.4509,-4.5621,-4.62,-4.5765,-4.4664,-4.3014,-4.0417,-3.7946,-3.5204,-3.163,0.0,-2.851,-2.7398,-2.9357,-3.252,-3.6756,0.0,-4.3144,-4.8526,-4.9089,-4.9464,-5.085,-5.0365,-5.0235,-5.098,-5.0829,-5.137,-5.2988,-5.3769,-5.4447,-5.5169,-5.5955,-5.6328,-5.6217,-5.5343,-5.4443,-5.3501,-5.3501,-5.3501,-5.3501,-5.3501,-5.3501,-5.3501,-5.3501,-5.3501,-5.3501,-5.3501,-5.3501,-5.3518,-5.3433,-5.3212,-5.2868,-5.243,-5.202,-5.161,-5.0619,-5.0179,-4.9936,-4.8706,-4.822,-4.801,-4.7151,-4.6876,-4.6876,-4.6876,-4.6876,-4.6763,-4.6131,-4.5888,-4.55,-4.4188,-4.3783,-4.3524,-4.278,-4.2602,-4.2602,-4.2602,-4.2898,-4.3355,-4.3906,-4.4344,-4.4615,-4.4615,-4.4012,-4.3511,-4.3409,-4.2293,-4.1424,-4.1238,-4.0544,-4.0096,-4.0096,-3.9893,-3.9755,-3.9703,-3.8322,-3.7458,-3.7488,-3.6723,-3.6492,-3.6996,-3.6904,-3.7046,-3.7441,-3.7344,-3.7344,-3.7469,-3.8003,-3.8067,-3.77,-3.77,-3.7421,-4.5656,-4.6007,-4.573,-4.507,-4.3539,-4.1498,-3.8882,-3.5571,0.0,0.0,-2.7845,-2.631,-2.5713,-2.8228,-3.1774,-3.5918,-3.9682,-4.3768,-4.8615,-4.9815,-5.0396,0.0,-5.1116,-5.1263,-5.1398,-5.1899,0.0,0.0,-5.4714,-5.5062,-5.5205,-5.5955,-5.6032,-5.5194,-5.4996,-5.4443,-5.3501,-5.3501,-5.3501,-5.3501,-5.3501,-5.3501,-5.3501,-5.3501,-5.3501,-5.3501,-5.3501,0.0,-5.3467,-5.3127,-5.2938,-5.2834,-5.2161,-5.1835,-5.1709,-5.1187,-5.0617,-5.0066,-4.9823,-4.9354,-4.8589,-4.7313,-4.6876,-4.6876,-4.6876,-4.6876,-4.686,-4.673,-4.6261,-4.5613,-4.482,-4.4156,-4.3524,-4.278,-4.2602,-4.2602,-4.2602,-4.3066,-4.3549,-4.3667,-4.4167,-4.4615,-4.4615,-4.4496,-4.4164,-4.3494,-4.3172,-4.2591,-4.1373,-4.0544,-4.0096,-4.0096,-4.0045,-3.9935,-3.9729,-3.849,-3.7793,-3.7985,-3.7221,-3.7012,-3.7537,-3.7892,-3.8129,-3.8213,-3.7603,-3.7614,-3.8213,-3.7744,-3.7556,-3.77,-3.77,-3.7508,-4.6073,-4.6259,-4.587,-4.4938,-4.295,-4.022,-3.6424,0.0,0.0,0.0,-2.4577,-2.369,-2.3458,-2.657,0.0,-3.3421,-3.6916,-4.1002,-4.6136,-4.7568,0.0,0.0,0.0,0.0,0.0,-5.2109,-5.282,-5.4709,-5.508,-5.5384,-5.5794,-5.6186,-5.606,-5.5343,-5.5044,-5.4551,-5.3882,-5.3618,-5.3501,-5.3501,-5.3501,-5.3501,-5.3501,-5.3501,-5.3501,-5.3501,-5.3501,-5.3501,-5.3501,-5.328,-5.3212,-5.3178,-5.2589,-5.2233,-5.2017,-5.1668,-5.116,-5.0617,-5.0228,-4.9872,-4.9354,-4.7929,-4.7475,-4.7394,-4.7006,-4.6876,-4.6876,-4.6876,-4.6633,-4.628,-4.5749,-4.4951,-4.4124,-4.3552,-4.3127,-4.2959,-4.3312,-4.3625,-4.3906,-4.408,-4.4384,-4.4615,-4.4615,-4.4615,-4.4479,-4.4079,-4.3673,-4.3139,-4.2455,-4.1694,-4.0959,-4.018,-4.0096,-4.0062,-3.9935,-3.8849,-3.821,-3.8311,-3.7695,-3.7433,-3.77,-3.8135,-3.8391,-3.8391,-3.8051,-3.7939,-3.802,-3.7668,-3.7292,-3.6938,-3.7296,-3.7232,-4.6124,-4.6264,-4.5916,-4.4736,-4.2365,-3.9063,-3.4249,-3.0258,0.0,0.0,-2.1893,-2.165,-2.1976,-2.485,-2.8178,0.0,-3.4062,-3.7898,-4.3568,0.0,0.0,0.0,0.0,0.0,0.0,-5.27,0.0,-5.5312,-5.5473,-5.5686,-5.6209,-5.6245,-5.5975,-5.539,-5.4983,-5.452,-5.4044,-5.3668,-5.3501,-5.3501,-5.3501,-5.3501,-5.3501,-5.3501,-5.3501,-5.3501,-5.3501,-5.3501,-5.3501,-5.3501,-5.3501,-5.3467,-5.3058,-5.2729,-5.2395,-5.1961,-5.1594,-5.1199,-5.0556,-5.0378,-5.0209,-4.869,-4.8123,-4.7864,-4.7103,-4.6945,-4.6979,-4.6911,-4.6945,-4.6919,-4.6503,-4.5701,-4.4853,-4.4216,-4.359,-4.3218,-4.3759,-4.401,-4.42,-4.4429,-4.4485,-4.4485,-4.4485,-4.4485,-4.4485,-4.4485,-4.4035,-4.3578,-4.3409,-4.2895,-4.2016,-4.0722,-4.0434,-4.035,-4.035,-3.9351,-3.8774,-3.8886,-3.8428,-3.8141,-3.8086,-3.8434,-3.8553,-3.8391,-3.8391,-3.8164,-3.77,-3.7814,-3.7384,-3.6425,-3.7097,-3.7215,-4.5966,-4.587,-4.5267,-4.3931,-4.1353,-3.797,-3.344,0.0,0.0,-2.2905,-2.1455,-2.1138,-2.2546,-2.3424,-2.5645,-3.085,0.0,-3.6488,0.0,0.0,0.0,0.0,0.0,0.0,0.0,-5.475,0.0,-5.6248,-5.6294,-5.6146,-5.5786,-5.5758,-5.5331,-5.4379,-5.4284,-5.4044,-5.3568,-5.3534,-5.3501,-5.3501,-5.3501,-5.3501,-5.3501,-5.3501,-5.3501,-5.3501,-5.3501,-5.3501,0.0,-5.3501,-5.3501,-5.3467,-5.3058,-5.2868,-5.2764,-5.2069,-5.1762,-5.1602,-5.1236,-5.1348,-5.1324,-4.9511,-4.8512,-4.7864,-4.7103,-4.7116,-4.7286,-4.6979,-4.7116,-4.7224,-4.6569,-4.6059,-4.537,-4.4059,-4.3436,-4.3113,-4.3174,-4.3671,-4.4097,-4.4126,-4.4143,-4.4143,-4.4143,-4.4143,-4.4143,-4.4143,-4.4333,-4.4215,-4.3477,-4.3325,-4.2997,-4.2168,-4.1491,-4.1102,-4.1102,-4.0128,-3.9682,-4.0117,-3.9796,-3.955,-3.9337,-3.9379,-3.9072,-3.8408,-3.8391,-3.8164,-3.77,-3.8245,-3.8027,-3.7128,-3.78,-3.814,-4.5674,-4.565,-4.4932,-4.3794,-4.0562,-3.6626,-3.256,0.0,-2.4541,-2.1536,-2.0301,-2.0131,-2.1353,-2.2553,-2.458,-2.8267,-2.9815,-3.2197,-3.6948,-3.9765,0.0,0.0,0.0,0.0,0.0,0.0,-5.5056,-5.6292,-5.6401,-5.6189,-5.5729,-5.57,-5.5525,-5.5122,-5.4537,-5.4108,-5.3931,-5.3651,-5.3501,-5.3501,-5.3501,-5.3501,-5.3501,-5.3501,-5.3501,-5.3501,-5.3501,-5.3501,0.0,-5.3501,-5.3501,-5.3467,-5.3314,-5.3093,-5.2834,-5.2288,-5.2056,-5.202,-5.1619,-5.1651,-5.1569,-5.0148,-4.9351,-4.8751,-4.7577,-4.7454,-4.7671,-4.732,-4.7303,-4.7355,-4.7077,-4.6257,-4.5358,-4.4752,-4.4004,-4.3519,-4.3906,-4.4051,-4.4097,-4.4097,-4.3935,-4.3802,-4.3802,-4.3981,-4.4097,-4.4097,-4.44,-4.4496,-4.4147,-4.4113,-4.3995,-4.3735,-4.2574,-4.1767,-4.158,-4.1017,-4.068,-4.0663,-4.0361,-4.0188,-4.0108,-4.0092,-3.9946,-3.9671,-3.936,-3.8955,-3.8481,-3.8403,-3.7981,-3.7334,-3.7997,-3.8504,-4.4375,-4.4739,-4.4311,-4.3325,-3.9807,-3.563,0.0,-2.747,-2.3391,-2.0589,-1.9404,-1.9239,-2.0471,-2.1732,-2.3407,-2.5913,-2.7375,-2.9482,-3.3157,-3.615,0.0,0.0,0.0,-4.8933,0.0,-5.3679,-5.4939,-5.6292,-5.6401,-5.6245,-5.5918,-5.5642,-5.539,-5.5271,-5.4443,-5.3979,-5.3979,-5.3685,-5.3501,-5.3501,-5.3501,-5.3501,-5.3501,-5.3501,-5.3501,-5.3501,-5.3501,-5.3501,0.0,-5.3501,-5.3501,-5.3501,-5.3501,-5.3314,-5.3024,-5.2642,-5.2501,-5.2414,-5.2004,-5.1852,-5.1597,-5.0484,-4.9938,-4.9507,-4.8133,-4.7918,-4.8082,-4.7704,-4.7655,-4.7671,-4.7471,-4.652,-4.5524,-4.5288,-4.4471,-4.3831,-4.4224,-4.427,-4.4212,-4.4126,-4.3831,-4.3608,-4.3608,-4.3818,-4.401,-4.4097,-4.44,-4.4615,-4.4615,-4.4615,-4.4542,-4.4457,-4.3578,-4.2699,-4.1977,-4.1808,-4.1523,-4.1023,-4.1072,-4.1031,-4.082,-4.082,-4.0647,-4.0271,-3.989,-3.9393,-3.877,-3.8578,-3.8216,-3.7719,-3.8552,-3.9221,-4.1664,-4.2749,-4.3257,-4.2267,-3.9091,-3.5215,-3.145,-2.6871,-2.2767,-2.0471,-1.9001,-1.8631,-2.0383,-2.0813,-2.1755,-2.4314,-2.668,-2.9449,-3.3089,-3.6593,0.0,0.0,0.0,-4.7642,-4.9212,-5.3183,-5.5872,-5.6355,-5.6401,0.0,-5.6383,-5.5432,-5.4707,-5.422,-5.375,-5.3501,-5.3501,-5.3501,-5.3501,-5.3501,-5.3501,-5.3501,-5.3501,-5.3501,-5.3501,-5.3501,-5.3501,-5.3501,0.0,-5.3501,-5.3501,-5.3501,-5.3501,-5.3501,-5.3433,-5.3058,-5.2903,-5.2834,-5.2414,-5.2089,-5.1596,-5.049,-5.0092,-4.9902,-4.8828,-4.8483,-4.842,-4.8099,-4.8244,-4.8307,-4.7572,-4.6842,-4.6138,-4.5466,-4.4671,-4.401,-4.3684,-4.4138,-4.4485,-4.4155,-4.3831,-4.3608,-4.3608,-4.3608,-4.3713,-4.4039,-4.44,-4.4615,-4.4615,-4.4615,-4.4485,-4.4126,-4.4384,-4.3933,-4.231,-4.2398,-4.2118,-4.1269,-4.2056,-4.2294,-4.1628,-4.1596,-4.0995,-3.9721,-3.9705,-3.9203,-3.8213,-3.8883,-3.8914,-3.8427,-3.9601,-4.0462,-3.7453,-3.7735,-3.7376,-3.637,-3.3682,-3.0687,-2.844,-2.518,-2.2144,-2.0373,-1.8878,-1.8427,-2.0177,-2.0651,-2.22,-2.66,-2.8049,0.0,0.0,0.0,0.0,-4.1122,-4.7282,-5.1971,0.0,0.0,-5.6245,-5.6401,-5.6401,-5.6401,-5.6401,-5.5432,-5.4813,-5.4658,-5.3915,-5.3501,-5.3501,-5.3501,-5.3501,-5.3501,-5.3501,-5.3501,-5.3501,-5.3501,-5.3501,-5.3501,-5.3501,-5.3501,-5.3501,-5.3501,-5.3501,-5.3501,-5.3501,-5.3501,-5.3467,-5.3058,-5.3058,-5.3246,-5.2834,-5.2298,-5.1698,-5.1044,-5.0355,-4.9633,-4.9034,-4.8846,-4.8721,-4.8164,-4.7869,-4.7754,-4.7803,-4.6891,-4.5953,-4.5984,-4.502,-4.4068,-4.3964,-4.4126,-4.4051,-4.3353,-4.3232,-4.3157,-4.2756,-4.3202,-4.3713,-4.4039,-4.44,-4.4615,-4.4615,-4.4615,-4.4559,-4.4457,-4.4542,-4.4112,-4.292,-4.3082,-4.2933,-4.2199,-4.2442,-4.2489,-4.2294,-4.2294,-4.1914,-4.1151,-4.0796,-4.0269,-3.9589,-3.94,-3.9238,-3.9131,-4.0594,-4.1008,-3.3332,-3.4042,-3.375,-3.3027,-3.087,-2.8459,-2.6513,-2.3888,-2.1448,-1.9896,-1.8628,-1.8325,-2.0082,-2.0488,-2.1953,-2.6117,-2.7404,-2.8874,0.0,0.0,0.0,-4.2484,0.0,0.0,0.0,-5.5545,-5.6217,-5.6401,-5.6401,-5.6328,-5.6162,-5.5343,-5.4813,-5.4645,-5.3882,-5.3501,-5.3501,-5.3501,-5.3501,-5.3501,-5.3501,-5.3501,-5.3501,-5.3501,-5.3501,-5.3501,-5.3501,-5.3501,0.0,-5.3501,-5.3501,-5.3501,-5.3501,-5.3501,-5.3467,-5.3212,-5.328,-5.3467,-5.3212,-5.2623,-5.19,-5.1356,-5.0381,-4.9312,-4.9092,-4.8909,-4.869,-4.8164,-4.7902,-4.7853,-4.7968,-4.7298,-4.6586,-4.6538,-4.5481,-4.4486,-4.434,-4.4211,-4.3906,-4.3246,-4.3202,-4.3171,-4.2849,-4.3232,-4.3772,-4.4212,-4.4457,-4.4615,-4.4615,-4.4615,-4.4514,-4.4241,-4.4167,-4.3697,-4.271,-4.3202,-4.3141,-4.2045,-4.2397,-4.2602,-4.2602,-4.2602,-4.2254,-4.1492,-4.1176,-4.0634,-3.9879,-3.9553,-3.9637,-4.013,-4.133,-4.1674,0.0,-3.1086,-3.1492,-3.1204,-2.9683,-2.763,-2.5227,-2.2781,0.0,-1.921,-1.8318,-1.8359,-2.0196,-2.0501,-2.1342,-2.3994,-2.5687,-2.7881,0.0,-3.4846,0.0,0.0,-4.8028,0.0,-5.2808,-5.4691,-5.5947,-5.6373,-5.6401,-5.6189,-5.5729,-5.5194,-5.4658,-5.422,-5.3734,-5.3501,-5.3501,-5.3501,-5.3501,-5.3501,-5.3501,-5.3501,-5.3501,-5.3501,-5.3501,0.0,-5.3501,-5.3501,-5.3501,-5.3501,-5.3501,-5.3501,-5.3501,-5.3501,-5.3501,-5.3501,-5.3501,-5.3501,-5.3501,-5.2976,-5.2181,-5.1386,-5.0202,-4.9069,-4.9018,-4.8784,-4.842,-4.8082,-4.8244,-4.842,-4.8099,-4.7933,-4.772,-4.7048,-4.606,-4.5163,-4.4768,-4.443,-4.406,-4.3608,-4.3549,-4.3549,-4.3549,-4.3549,-4.3785,-4.4485,-4.4615,-4.4615,-4.4615,-4.4615,-4.4355,-4.3743,-4.3472,-4.2925,-4.1917,-4.2833,-4.2802,-4.116,-4.2029,-4.2602,-4.2602,-4.2602,-4.2093,-4.1042,-4.094,-4.0439,-3.9448,-3.9556,-4.016,-4.1286,-4.1942,-4.2509,-2.341,0.0,-2.436,-2.3781,-2.2854,-2.1969,0.0,-2.0393,-1.9345,-1.8961,-1.8318,-1.8635,-2.1349,-2.152,-2.2856,-2.7862,-2.957,-3.1298,-3.424,0.0,0.0,-4.9669,-5.1633,-5.3124,-5.4536,-5.5623,-5.6273,-5.6401,-5.6401,-5.6189,-5.5729,-5.5194,-5.4658,-5.422,-5.3734,-5.3501,-5.3501,-5.3501,-5.3501,-5.3501,-5.3501,-5.3501,-5.3501,-5.3501,-5.3501,-5.3501,-5.3501,-5.3501,-5.3501,-5.3501,-5.3501,-5.3501,-5.3501,-5.3501,-5.3501,-5.3501,-5.3501,-5.3501,-5.3501,-5.2976,-5.208,-5.0777,-5.0118,-4.9729,-4.9171,-4.8784,-4.842,-4.8082,-4.8244,-4.842,-4.8099,-4.7933,-4.772,-4.705,-4.6445,-4.5781,-4.4868,-4.4783,-4.451,-4.3223,-4.2986,-4.2986,-4.2986,-4.2986,-4.3366,-4.4457,-4.4615,-4.4615,-4.4615,-4.4615,-4.4542,-4.4384,-4.408,-4.3383,-4.2078,-4.2348,-4.2301,-4.1656,-4.2222,-4.2602,-4.2602,-4.2602,-4.2093,-4.1042,-4.0181,-3.9902,-4.0172,-4.1051,-4.1672,-4.2061,-4.3024,-4.3102,-2.03,-2.1744,-2.3174,-2.2836,-2.227,-2.173,-2.1464,-2.0099,-1.8792,0.0,0.0,-1.9029,-2.1363,-2.2388,-2.4237,-2.8366,-3.0626,0.0,0.0,0.0,-4.7054,-5.1535,-5.2979,-5.4187,0.0,-5.6133,-5.6401,-5.6401,-5.6217,-5.5844,-5.5361,-5.4861,-5.4379,-5.3898,-5.3618,-5.3501,-5.3501,-5.3501,-5.3501,-5.3501,-5.3501,-5.3501,-5.3501,-5.3501,-5.3501,-5.3501,-5.3501,-5.3501,-5.3501,-5.3501,-5.3501,-5.3501,-5.3501,-5.3501,-5.3501,-5.3501,-5.3501,-5.3501,-5.3501,-5.2976,-5.2114,-5.0963,-5.0608,-5.0405,-4.934,-4.9114,-4.9078,-4.8214,-4.8244,-4.842,-4.8099,-4.8216,-4.8225,-4.7565,-4.6984,-4.6429,-4.5812,-4.5261,-4.4723,-4.4034,-4.3307,-4.2878,-4.3108,-4.2956,-4.3169,-4.4212,-4.4485,-4.4615,-4.4615,-4.4615,-4.4485,-4.4167,-4.3756,-4.3064,-4.1981,-4.1771,-4.1624,-4.1426,-4.2158,-4.2492,-4.2254,-4.2238,-4.1721,-4.0634,-4.0111,-4.0053,-4.0397,-4.1602,-4.2397,-4.2781,-4.3622,-4.3706,-1.9345,-2.2082,-2.4692,-2.4099,-2.3925,-2.3628,-2.2708,0.0,0.0,0.0,0.0,0.0,-2.1681,-2.3661,0.0,0.0,0.0,0.0,-4.1779,-4.4961,-4.8096,-5.2051,-5.3155,0.0,-5.6052,-5.6329,-5.6401,-5.6401,-5.5975,-5.5478,-5.4953,-5.4457,-5.3979,-5.3501,-5.3501,-5.3501,-5.3501,-5.3501,-5.3501,-5.3501,-5.3501,-5.3501,-5.3501,-5.3501,-5.3501,-5.3501,0.0,0.0,-5.3501,-5.3501,-5.3501,-5.3501,-5.3501,-5.3501,-5.3501,-5.3501,-5.3501,-5.3501,-5.3501,-5.3061,-5.2367,-5.1623,-5.1386,-5.1099,-4.9627,-4.9593,-4.9805,-4.8396,-4.8276,-4.8483,-4.8147,-4.8532,-4.8815,-4.8164,-4.7536,-4.7022,-4.6858,-4.5849,-4.5064,-4.525,-4.4125,-4.325,-4.3641,-4.3258,-4.3197,-4.4044,-4.4483,-4.4716,-4.4749,-4.4784,-4.4579,-4.3999,-4.3418,-4.2859,-4.2268,-4.1824,-4.1523,-4.132,-4.2074,-4.2366,-4.2022,-4.1813,-4.1346,-4.0521,-4.054,-4.0591,-4.0696,-4.1964,-4.2922,-4.3613,-4.4033,-4.4291,-2.1383,-2.3876,-2.5007,-2.1428,-2.2199,-2.3426,-2.1949,0.0,0.0,0.0,0.0,0.0,0.0,-2.664,-2.8449,0.0,0.0,-4.0155,0.0,0.0,-4.9114,-5.1413,0.0,-5.4606,-5.5312,-5.599,-5.6401,-5.6401,-5.5975,-5.5478,-5.4953,-5.4457,-5.3979,-5.3501,-5.3501,-5.3501,-5.3501,-5.3501,-5.3501,-5.3501,-5.3501,-5.3501,-5.3501,-5.3501,-5.3501,-5.3501,0.0,-5.3501,-5.3501,-5.3501,-5.3501,-5.3501,-5.3501,-5.3501,-5.3501,-5.3501,-5.3501,-5.3501,-5.3501,-5.3416,-5.3179,-5.2401,-5.2131,-5.186,-5.0371,-4.9999,-4.9805,-4.8396,-4.8436,-4.8846,-4.8515,-4.8704,-4.8815,-4.8164,-4.7918,-4.7636,-4.6942,-4.6627,-4.6328,-4.5794,-4.5139,-4.4543,-4.416,-4.3651,-4.362,-4.4495,-4.4899,-4.5206,-4.5474,-4.5689,-4.5677,-4.5415,-4.4805,-4.4298,-4.4006,-4.4136,-4.38,-4.2856,-4.2347,-4.2319,-4.281,-4.1809,-4.1495,-4.1897,-4.146,-4.1542,-4.2096,-4.3273,-4.4174,-4.4822,-4.4917,-4.4927,-2.0193,-2.2776,-2.464,-2.2536,-2.4629,-2.694,-2.5956,-2.4914,0.0,0.0,0.0,0.0,0.0,0.0,-3.2439,-3.7398,0.0,-4.2811,-4.5415,-4.762,-4.9576,0.0,0.0,-5.4482,-5.5143,-5.5937,-5.6401,-5.6401,-5.5682,-5.5164,-5.4905,-5.4205,-5.3734,-5.3501,-5.3501,-5.3501,-5.3501,-5.3501,-5.3501,-5.3501,-5.3501,-5.3501,-5.3501,-5.3501,-5.3501,-5.3501,0.0,-5.3501,-5.3501,-5.3501,-5.3501,-5.3501,-5.3501,-5.3501,-5.3501,-5.3501,-5.3501,-5.3501,-5.3501,-5.3501,-5.3365,-5.2553,-5.2587,-5.2672,-5.115,-5.0963,-5.0951,-4.9307,-4.8929,-4.8877,-4.8373,-4.8627,-4.8815,-4.8164,-4.8001,-4.7901,-4.7537,-4.6946,-4.6598,-4.6882,-4.5712,-4.4756,-4.5022,-4.4187,-4.3784,-4.4578,-4.5133,-4.5668,-4.6221,-4.601,-4.5663,-4.5197,-4.5199,-4.5077,-4.4641,-4.4738,-4.4439,-4.3589,-4.2645,-4.2243,-4.2566,-4.176,-4.145,-4.1753,-4.1746,-4.1878,-4.2177,-4.319,-4.418,-4.511,-4.5769,-4.5624,-1.9704,-2.1982,-2.4274,-2.4601,-2.7073,-2.9493,-2.9758,-2.8338,0.0,0.0,0.0,0.0,0.0,-3.2188,0.0,-4.1694,-4.3487,-4.4902,-4.6944,-4.8534,-5.0018,-5.1507,-5.29,-5.4135,-5.5116,-5.5598,-5.5919,-5.6097,-5.5022,-5.4365,-5.4365,-5.3637,-5.323,-5.323,-5.3399,-5.3501,-5.3501,-5.3501,-5.3501,-5.3501,-5.3501,-5.3501,-5.3501,-5.3501,-5.3501,-5.3501,-5.3501,-5.3501,-5.3501,-5.3501,-5.3501,-5.3501,-5.3501,-5.3501,-5.3501,-5.3501,-5.3501,-5.3501,-5.3501,-5.3501,-5.3399,-5.279,-5.301,-5.3247,-5.1826,-5.1792,-5.1896,-5.0404,-4.9411,-4.8721,-4.8244,-4.8564,-4.8846,-4.8212,-4.8049,-4.8017,-4.7787,-4.7177,-4.6946,-4.7757,-4.6594,-4.5604,-4.5992,-4.5114,-4.4446,-4.4704,-4.5156,-4.5809,-4.6727,-4.6605,-4.616,-4.5291,-4.5179,-4.5059,-4.4887,-4.4887,-4.4667,-4.4202,-4.3371,-4.275,-4.2469,-4.1784,-4.1534,-4.1833,-4.2162,-4.2288,-4.2303,-4.2961,-4.3786,-4.4699,-4.5929,-4.5805,-2.2426,-2.3438,-2.4417,-2.6456,-2.7185,-2.8048,-3.0508,-2.933,0.0,-3.2138,0.0,0.0,0.0,-3.6062,-3.9631,-4.2801,-4.5145,-4.7012,-4.8283,0.0,-5.0764,-5.1984,-5.2643,-5.3546,-5.5062,-5.4572,-5.4465,-5.5241,-5.3704,-5.2764,-5.2764,-5.2509,-5.2384,-5.2384,-5.3112,-5.3501,-5.3501,-5.3501,-5.3501,-5.3501,-5.3501,-5.3501,-5.3501,-5.3501,-5.3501,-5.3501,-5.3501,-5.3501,-5.3501,-5.3501,-5.3501,-5.3501,-5.3501,-5.3501,-5.3501,-5.3501,-5.3501,-5.3501,-5.3501,-5.3501,-5.3501,-5.3433,-5.345,-5.3315,-5.2249,-5.1978,-5.1894,-5.1269,-4.9765,-4.8371,-4.8452,-4.8736,-4.8877,-4.8371,-4.8275,-4.8049,-4.715,-4.7438,-4.7885,-4.7983,-4.8366,-4.8284,-4.7021,-4.6732,-4.6228,-4.4999,-4.4821,-4.5373,-4.6703,-4.7981,-4.8236,-4.6887,-4.4791,-4.3929,-4.5007,-4.5081,-4.5065,-4.5007,-4.4917,-4.4409,-4.3274,-4.2066,-4.1953,-4.3125,-4.3185,-4.32,-4.32,-4.326,-4.3329,-4.3448,-4.4662,-4.5184,-2.0725,-2.3015,-2.5451,-2.621,-2.8049,0.0,0.0,-3.3322,-3.4066,-3.64,-3.6654,0.0,0.0,0.0,-4.1356,-4.435,-4.594,-4.7268,-4.8664,-4.9752,-5.0575,-5.1022,-5.2174,-5.3143,-5.3706,-5.392,-5.4126,-5.4429,-5.3299,-5.2608,-5.2608,-5.1962,-5.1843,-5.2283,-5.2604,-5.2993,-5.3501,-5.3501,-5.3651,-5.3931,-5.3651,-5.3501,-5.3501,-5.3501,-5.3501,-5.3501,-5.3501,-5.3501,-5.3501,-5.3501,-5.3501,-5.3501,-5.3501,-5.3501,-5.3501,-5.3501,-5.3501,-5.3501,-5.3501,-5.3501,-5.3501,-5.3501,-5.3501,-5.3433,-5.3044,-5.2926,-5.2892,-5.2706,-5.21,-5.1059,-4.8937,-4.8673,-4.8877,-4.8403,-4.8498,-4.8403,-4.7184,-4.7132,-4.7437,-4.7902,-4.7253,-4.6795,-4.7471,-4.7201,-4.6698,-4.618,-4.6099,-4.6293,-4.6846,-4.7337,-4.7471,-4.6945,-4.4737,-4.3472,-4.3966,-4.3989,-4.3989,-4.3989,-4.3989,-4.3786,-4.3329,-4.2826,-4.2836,-4.329,-4.329,-4.329,-4.329,-4.329,-4.329,-4.329,-4.3786,-4.3989,-2.0661,-2.3089,-2.5984,-2.67,0.0,0.0,-3.5182,-3.618,-3.711,-3.9529,-3.9665,0.0,-4.062,0.0,0.0,0.0,-4.6312,-4.7369,-4.8995,-4.9913,-5.0453,-5.0575,-5.1723,-5.2575,-5.2651,-5.304,-5.3307,-5.3407,-5.2478,-5.1911,-5.1911,-5.1227,-5.1082,-5.1589,-5.1826,-5.2334,-5.3112,-5.3295,-5.3595,-5.3996,-5.3783,-5.3734,-5.3734,-5.3734,-5.3651,-5.3501,-5.3501,-5.3501,-5.3501,-5.3501,-5.3501,-5.3501,-5.3501,-5.3501,-5.3501,-5.3501,-5.3501,-5.3501,-5.3501,-5.3501,-5.3501,-5.3501,-5.3501,-5.3501,-5.3501,-5.3501,-5.3501,-5.3501,-5.3501,-5.274,-4.9382,-4.8767,-4.8909,-4.861,-4.8784,-4.861,-4.7218,-4.6876,-4.6825,-4.655,-4.6056,-4.6092,-4.7437,-4.7235,-4.6876,-4.6876,-4.6876,-4.6876,-4.6876,-4.6214,-4.5769,-4.5769,-4.4297,-4.329,-4.329,-4.329,-4.329,-4.329,-4.329,-4.329,-4.329,-4.329,-4.329,-4.329,-4.329,-4.329,-4.329,-4.329,-4.329,-4.329,-4.329,-4.329,-2.3127,-2.3989,-2.5848,-2.8388,0.0,0.0,-3.7838,-3.728,-3.6918,-4.1407,-4.1179,-4.0603,-4.2033,-4.1728,0.0,-4.5213,-4.6312,-4.7488,-4.9414,-5.0086,-5.0547,-5.0946,-5.1401,-5.1823,-5.2164,-5.1906,-5.1833,-5.2155,-5.1084,-5.0415,-5.0369,-5.0201,-5.0084,-5.0084,-5.0811,-5.1555,-5.2283,-5.2819,-5.3229,-5.3501,-5.3979,-5.4188,-5.4188,-5.4188,-5.3931,-5.3501,-5.3501,-5.3501,-5.3501,-5.3501,-5.3501,-5.3501,-5.3501,-5.3501,-5.3501,-5.3501,-5.3501,-5.3501,-5.3501,-5.3501,-5.3501,-5.3501,-5.3501,-5.3501,-5.3501,-5.3501,-5.3501,-5.3501,-5.3501,-5.2807,-4.983,-4.9018,-4.9001,-4.9001,-4.9001,-4.861,-4.7218,-4.6876,-4.6143,-4.3771,-4.5221,-4.6876,-4.6892,-4.6876,-4.6876,-4.6876,-4.6876,-4.6876,-4.6876,-4.4774,-4.329,-4.329,-4.329,-4.329,-4.329,-4.329,-4.329,-4.329,-4.329,-4.329,-4.329,-4.329,-4.329,-4.329,-4.329,-4.329,-4.329,-4.329,-4.329,-4.329,-4.329,-4.329,-2.2137,-2.4471,0.0,-2.9353,0.0,0.0,0.0,-4.0409,0.0,0.0,-4.4333,-4.4012,-4.3938,0.0,0.0,-4.5568,-4.6752,-4.7949,-4.9033,-4.9619,-4.9953,-5.008,-5.0758,-5.1264,-5.1361,-5.1568,-5.161,-5.1361,-5.0752,-5.0274,-4.9942,-4.9542,-4.956,-5.0067,-5.0304,-5.0937,-5.2001,-5.2752,-5.3304,-5.3732,-5.4371,-5.4348,-5.3701,-5.3701,-5.3618,-5.3501,-5.3501,-5.3501,-5.3501,-5.3501,-5.3501,-5.3501,-5.3501,-5.3501,-5.3501,-5.3501,-5.3501,-5.3501,-5.3501,-5.3501,-5.3501,-5.3501,-5.3501,-5.3501,-5.3501,-5.3501,-5.3501,-5.3501,-5.3501,-5.3298,-5.2401,-5.0591,-4.9001,-4.9001,-4.8243,-4.7421,-4.6979,-4.5551,-4.4143,-4.3433,-4.3888,-4.4924,-4.6617,-4.6876,-4.6876,-4.6876,-4.6876,-4.6301,-4.4601,-4.3732,-4.329,-4.329,-4.329,-4.329,-4.329,-4.329,-4.329,-4.329,-4.329,-4.329,-4.329,-4.329,-4.329,-4.329,-4.329,-4.329,-4.329,-4.329,-4.329,-4.329,-4.329,-4.329,-2.4517,-2.7159,0.0,-3.2656,-3.5791,-3.9276,-4.2844,0.0,0.0,0.0,0.0,-4.5652,-4.5483,-4.5602,0.0,-4.6498,-4.7314,-4.8173,-4.89,-4.9411,-4.9708,-4.9708,-5.0335,-5.0694,-5.0512,-5.0928,-5.0982,-5.0512,-5.0268,-4.9999,-4.9708,-4.9229,-4.9204,-4.9644,-4.9661,-5.0249,-5.1463,-5.1957,-5.2643,-5.3493,-5.3956,-5.3945,-5.3501,-5.3701,-5.3685,-5.3501,-5.3501,-5.3501,-5.3501,-5.3501,-5.3501,-5.3501,-5.3501,-5.3501,-5.3501,-5.3501,-5.3501,-5.3501,-5.3501,-5.3501,-5.3501,-5.3501,-5.3501,-5.3501,-5.3501,-5.3501,-5.3501,-5.3501,-5.3501,-5.3501,-5.3501,-5.1268,-4.9001,-4.9001,-4.7902,-4.6876,-4.6876,-4.4999,-4.329,-4.329,-4.329,-4.3771,-4.5221,-4.6266,-4.6876,-4.6876,-4.6072,-4.4962,-4.3472,-4.329,-4.329,-4.329,-4.329,-4.329,-4.329,-4.329,-4.329,-4.329,-4.329,-4.329,-4.329,-4.329,-4.329,-4.329,-4.329,-4.329,-4.329,-4.329,-4.329,-4.3319,-4.4381,-4.4874,-2.8527,-3.0785,0.0,-3.7113,-3.887,0.0,-4.4874,-4.6413,-4.6972,-4.6904,0.0,-4.6177,-4.6786,-4.6413,-4.643,-4.7686,-4.7939,-4.824,-4.8961,-4.9381,-4.9649,-4.9708,-5.0086,-5.0171,-4.9737,-5.0114,-5.02,-4.9737,-4.9708,-4.9679,-4.9649,-4.9229,-4.9001,-4.9001,-4.9032,-4.9613,-5.0763,-5.0939,-5.1632,-5.288,-5.3083,-5.321,-5.3298,-5.3862,-5.3898,-5.3501,-5.3501,-5.3501,-5.3501,-5.3501,-5.3501,-5.3501,-5.3501,-5.3501,-5.3501,-5.3501,-5.3501,-5.3501,-5.3501,-5.3501,-5.3501,-5.3501,-5.3501,-5.3501,-5.3501,-5.3501,-5.3501,-5.3501,-5.3501,-5.3501,-5.3501,-5.1471,-4.9407,-4.9407,-4.81,-4.6876,-4.6876,-4.5184,-4.3626,-4.3643,-4.3469,-4.329,-4.329,-4.5295,-4.6876,-4.6876,-4.4849,-4.329,-4.329,-4.329,-4.329,-4.329,-4.329,-4.329,-4.329,-4.329,-4.3394,-4.3648,-4.3648,-4.3648,-4.3648,-4.3424,-4.329,-4.329,-4.329,-4.329,-4.329,-4.3544,-4.3648,-4.3708,-4.6172,-4.7309,-2.7073,-2.987,0.0,0.0,-4.1965,-4.5365,-4.6329,-4.7581,-4.8359,-4.7784,-4.8003,-4.8173,-4.775,-4.802,-4.8206,-4.7922,-4.8392,-4.8938,-4.9483,-4.932,-4.9307,-4.9649,-4.9796,-4.9825,-4.9708,-5.0114,-5.02,-4.9737,-4.9708,-4.953,-4.9185,-4.9063,-4.9001,-4.9001,-4.935,-4.9835,-5.0471,-5.1459,-5.1885,-5.1859,-5.3055,-5.296,-5.1758,-5.3042,-5.3601,-5.3501,-5.3501,-5.3501,-5.3501,-5.3501,-5.3501,-5.3501,-5.3501,-5.3501,-5.3501,-5.3501,-5.3501,-5.3501,-5.3501,-5.3501,-5.3501,-5.3501,-5.3501,-5.3501,-5.3501,-5.3501,-5.3501,-5.3501,-5.3501,-5.3501,-5.3501,-5.3027,-5.2536,-5.2536,-4.9641,-4.6876,-4.6876,-4.6477,-4.6197,-4.6399,-4.4725,-4.329,-4.329,-4.5295,-4.6876,-4.6876,-4.4849,-4.329,-4.329,-4.329,-4.329,-4.329,-4.329,-4.329,-4.329,-4.329,-4.4186,-4.6322,-4.6456,-4.6456,-4.6456,-4.4396,-4.329,-4.329,-4.329,-4.329,-4.329,-4.5424,-4.6456,-4.6456,-4.704,-4.7309,-2.7726,0.0,0.0,-3.9089,0.0,-4.6549,-4.7022,-4.8105,-4.89,-4.8528,-4.8731,-4.8883,-4.8511,-4.8748,-4.8883,-4.8494,-4.8748,-4.9094,-4.932,-4.9138,-4.9094,-4.9337,-4.935,-4.935,-4.935,-4.959,-4.9619,-4.9381,-4.935,-4.9277,-4.9001,-4.9001,-4.9094,-4.932,-4.956,-5.0011,-5.0667,-5.1115,-5.1389,-5.15,-5.2112,-5.196,-5.1251,-5.2401,-5.3145,-5.3501,-5.3501,-5.3501,-5.3501,-5.3501,-5.3501,-5.3501,-5.3501,-5.3501,-5.3501,-5.3501,-5.3501,-5.3501,-5.3501,-5.3501,-5.3501,-5.3501,-5.3501,-5.3501,-5.3501,-5.3501,-5.3501,-5.3501,-5.3501,-5.3501,-5.3501,-5.3501,-5.3314,-5.2553,-4.9569,-4.6876,-4.6876,-4.6876,-4.6946,-4.7098,-4.5041,-4.3669,-4.4812,-4.6072,-4.7362,-4.8738,-4.6819,-4.5244,-4.5244,-4.5244,-4.5244,-4.5244,-4.5244,-4.5244,-4.5244,-4.5244,-4.5828,-4.7219,-4.7309,-4.7309,-4.7309,-4.5978,-4.5244,-4.5244,-4.5244,-4.5244,-4.5244,-4.6636,-4.7309,-4.7309,-4.7309,-4.7309,-2.808,0.0,-3.5588,-4.0392,-4.3707,0.0,-4.6802,-4.8037,-4.8968,-4.8849,-4.8917,-4.9001,-4.9001,-4.9001,-4.9001,-4.9001,-4.9001,-4.9032,-4.9124,-4.9063,-4.9032,-4.9124,-4.9063,-4.9001,-4.9001,-4.9001,-4.9001,-4.9001,-4.9001,-4.9001,-4.9001,-4.9001,-4.9216,-4.9679,-4.9796,-5.0194,-5.0982,-5.0766,-5.0851,-5.1309,-5.0767,-5.0731,-5.1202,-5.1708,-5.2418,-5.3298,-5.3162,-5.3179,-5.3298,-5.3298,-5.3298,-5.3315,-5.345,-5.3501,-5.3484,-5.3348,-5.3298,-5.3298,-5.3247,-5.3179,-5.3162,-5.3416,-5.3501,-5.3501,-5.3501,-5.3501,-5.3501,-5.3501,-5.3501,-5.3501,-5.3501,-5.3501,-5.3109,-5.1594,-4.937,-4.7491,-4.7024,-4.6876,-4.6876,-4.6876,-4.5687,-4.5295,-4.7287,-4.7621,-4.8431,-5.0827,-4.8959,-4.7309,-4.7309,-4.7309,-4.7309,-4.7309,-4.7309,-4.7309,-4.7309,-4.7309,-4.7309,-4.7309,-4.7309,-4.7309,-4.7309,-4.7309,-4.7309,-4.7309,-4.7309,-4.7309,-4.7309,-4.7309,-4.7309,-4.7309,-4.7309,-4.7309,-2.4745,0.0,-3.5424,0.0,-4.32,-4.4835,0.0,0.0,-4.8832,0.0,-4.8578,-4.9001,-4.9001,-4.9001,-4.9001,-4.9001,-4.9001,-4.9155,-4.956,-4.9277,-4.9155,-4.956,-4.9246,-4.9001,-4.9001,-4.9001,-4.9001,-4.9001,-4.9001,-4.9001,-4.9001,-4.9001,-4.9216,-4.9679,-5.0086,-5.0519,-5.0999,-5.1349,-5.1211,-5.0526,-4.9654,-4.9944,-5.1168,-5.0642,-5.115,-5.2418,-5.1792,-5.1877,-5.2469,-5.2469,-5.2469,-5.2536,-5.323,-5.3501,-5.3416,-5.2723,-5.2469,-5.2435,-5.2249,-5.1911,-5.1742,-5.3078,-5.3501,-5.3501,-5.3501,-5.3501,-5.3501,-5.3501,-5.3501,-5.3501,-5.3501,-5.3501,-5.3109,-5.1594,-5.0892,-4.992,-4.7462,-4.6876,-4.6876,-4.6876,-4.8667,-5.0247,-5.0563,-5.0654,-5.0746,-5.1118,-4.8959,-4.7309,-4.7309,-4.7309,-4.7309,-4.7309,-4.7309,-4.7309,-4.7309,-4.7309,-4.7309,-4.7309,-4.7309,-4.7309,-4.7309,-4.7309,-4.7309,-4.7309,-4.7309,-4.7309,-4.7309,-4.7309,-4.7309,-4.7309,-4.7309,-4.7309,-2.5558,-3.0313,-3.5255,0.0,-4.2702,-4.4615,-4.4615,0.0,-4.6667,-4.7175,-4.7547,-4.802,-4.8849,-4.9001,-4.9001,-4.9001,-4.9001,-4.9063,-4.926,-4.9124,-4.9063,-4.929,-4.9124,-4.9001,-4.9001,-4.9001,-4.9001,-4.9001,-4.9001,-4.9124,-4.9381,-4.9381,-4.972,-5.0401,-5.064,-5.0937,-5.1401,-5.1597,-5.1263,-5.0387,-4.9441,-4.934,-4.9965,-4.9627,-5.0287,-5.1674,-5.132,-5.1403,-5.1691,-5.1691,-5.1944,-5.2334,-5.2689,-5.3112,-5.3467,-5.3112,-5.2976,-5.2959,-5.2875,-5.2689,-5.2334,-5.1319,-5.2131,-5.3501,-5.3501,-5.3501,-5.3501,-5.3501,-5.3501,-5.3501,-5.3501,-5.3501,-5.3109,-5.1594,-5.1183,-5.0843,-4.9564,-4.8026,-4.7397,-4.9017,-5.0309,-5.1183,-5.1183,-5.1183,-5.1183,-5.1183,-5.0214,-4.8959,-4.751,-4.7309,-4.7309,-4.7309,-4.7309,-4.7309,-4.7309,-4.7309,-4.7309,-4.7309,-4.7309,-4.7309,-4.7309,-4.7309,-4.7309,-4.7309,-4.7309,-4.7309,-4.7309,-4.7309,-4.7309,-4.7309,-4.7309,-4.7309,-2.5981,-2.8704,-3.1481,-3.7472,-4.123,-4.3667,0.0,0.0,-4.4987,0.0,-4.6667,-4.7141,-4.824,-4.8595,-4.8781,-4.8968,-4.9001,-4.9001,-4.9001,-4.9001,-4.9001,-4.9001,-4.9001,-4.9001,-4.9001,-4.9001,-4.9001,-4.9001,-4.9001,-4.9155,-4.95,-4.953,-4.9878,-5.0649,-5.0677,-5.0946,-5.1521,-5.1418,-5.0999,-5.02,-4.9381,-4.9001,-4.9001,-4.9001,-4.961,-5.0659,-5.0659,-5.076,-5.093,-5.093,-5.1251,-5.1758,-5.1944,-5.2469,-5.3095,-5.2841,-5.2824,-5.2875,-5.2503,-5.2367,-5.1995,-4.9729,-5.1048,-5.3501,-5.3501,-5.3501,-5.3501,-5.3501,-5.3501,-5.3501,-5.3501,-5.3501,-5.3109,-5.1594,-5.1183,-5.1016,-5.0331,-4.8523,-4.785,-5.065,-5.1183,-5.1183,-5.1183,-5.1183,-5.1183,-5.1183,-5.1183,-5.0253,-4.7624,-4.7309,-4.7309,-4.7309,-4.7309,-4.7309,-4.7309,-4.7309,-4.7309,-4.7309,-4.7309,-4.7309,-4.7309,-4.7309,-4.7309,-4.7309,-4.7309,-4.7309,-4.7309,-4.7309,-4.7309,-4.7309,-4.7309,-4.7309,-2.4003,-2.2076,0.0,-3.2963,0.0,0.0,0.0,0.0,0.0,0.0,-4.6312,-4.6802,-4.6887,-4.7496,-4.8176,-4.89,-4.9001,-4.9001,-4.9001,-4.9001,-4.9001,-4.9001,-4.9001,-4.9001,-4.9001,-4.9001,-4.9001,-4.9001,-4.9001,-4.9001,-4.9032,-4.9032,-4.926,-4.975,-4.9767,-5.0194,-5.1026,-5.0657,-5.0228,-4.9737,-4.9246,-4.9001,-4.9001,-4.9001,-4.9035,-4.912,-4.912,-4.9509,-5.0152,-5.0152,-5.0168,-5.027,-5.0997,-5.1589,-5.1961,-5.1014,-5.0931,-5.1133,-4.9729,-4.9238,-4.9221,-4.9052,-5.1048,-5.3501,-5.3501,-5.3501,-5.3501,-5.3501,-5.3501,-5.3501,-5.3501,-5.3501,-5.3109,-5.1594,-5.1183,-5.0541,-4.8034,-4.7405,-4.8061,-5.0701,-5.1183,-5.1183,-5.1183,-5.1183,-5.1183,-5.1183,-5.1183,-5.0253,-4.7624,-4.7309,-4.7309,-4.7309,-4.7309,-4.7309,-4.7309,-4.7309,-4.7309,-4.7309,-4.7309,-4.7309,-4.7309,-4.7309,-4.7309,-4.7309,-4.7309,-4.7309,-4.7309,-4.7309,-4.7309,-4.7309,-4.7309,-4.7309,-1.9963,-2.0572,0.0,-2.8349,-3.432,-3.887,0.0,-4.1779,-4.3707,-4.3978,-4.4739,-4.541,-4.541,-4.6769,-4.7973,-4.8257,-4.8923,-4.935,-4.9032,-4.9277,-4.932,-4.9032,-4.9001,-4.9001,-4.9001,-4.9001,-4.9001,-4.9001,-4.9001,-4.9124,-4.9441,-4.9441,-4.9649,-5.0143,-5.0143,-5.0313,-5.0602,-5.0154,-4.9884,-4.9708,-4.9229,-4.9001,-4.9001,-4.9001,-4.9001,-4.9001,-4.9001,-4.9154,-4.939,-4.939,-4.9661,-5.0135,-5.0591,-5.1268,-5.2029,-5.2334,-5.2536,-5.2334,-4.9864,-4.9001,-4.9323,-5.1268,-5.2621,-5.3501,-5.3501,-5.3501,-5.3501,-5.3501,-5.3501,-5.3501,-5.3501,-5.3501,-5.3109,-5.1594,-4.9924,-4.8438,-4.751,-4.8646,-5.0097,-5.1016,-5.1183,-5.1183,-5.1183,-5.1183,-5.1183,-5.1183,-5.1183,-5.0253,-4.7624,-4.7309,-4.7309,-4.7309,-4.7309,-4.7309,-4.7309,-4.7309,-4.7309,-4.7309,-4.7309,-4.7309,-4.7309,-4.7309,-4.7309,-4.7309,-4.7309,-4.7309,-4.7309,-4.7309,-4.7309,-4.7309,-4.7309,-4.7309,-1.8217,-1.9519,0.0,0.0,0.0,0.0,-3.7922,0.0,-4.1407,-4.2895,-4.3724,-4.4265,-4.4564,-4.6007,-4.7229,-4.7496,-4.8426,-4.8993,-4.866,-4.9107,-4.935,-4.9032,-4.9001,-4.9001,-4.9001,-4.9001,-4.9001,-4.9001,-4.9001,0.0,-4.9441,-4.9471,-4.9619,-4.9913,-5.0086,-5.0086,-4.9942,-4.9767,-4.9619,-4.9471,-4.9155,-4.9001,-4.9001,-4.9001,-4.9001,-4.9001,-4.9001,-4.9001,-4.9001,-4.9001,-4.9289,-4.9746,-4.9932,-5.0405,-5.1065,-5.1742,-5.1995,-5.1708,-4.9695,-4.9001,-4.934,-5.1336,-5.2672,-5.3501,-5.3501,-5.3501,-5.3501,-5.3501,-5.3501,-5.3501,-5.3501,-5.3501,-5.3246,-5.2197,-5.0245,-4.8589,-4.8589,-4.9963,-5.1183,-5.1183,-5.1183,-5.1183,-5.1183,-5.1183,-5.0902,-5.0002,-5.0656,-5.0253,-4.7624,-4.7309,-4.7309,-4.7309,-4.7309,-4.7309,-4.7309,-4.7309,-4.7309,-4.7309,-4.7309,-4.7309,-4.7309,-4.7309,-4.7309,-4.7309,-4.7309,-4.7309,-4.7309,-4.7309,-4.7309,-4.7309,-4.7309,-4.7309,0.0,0.0,0.0,0.0,0.0,0.0,0.0,0.0,-3.7946,-4.2405,-4.3274,-4.3538,-4.4412,-4.5162,-4.5906,-4.6616,-4.7394,-4.7919,-4.7922,-4.8562,-4.9001,-4.9001,-4.9001,-4.9001,-4.9001,-4.9001,-4.9001,-4.9001,-4.9001,-4.9001,-4.9001,-4.9001,-4.9001,-4.9001,-4.9441,-4.9471,-4.9001,-4.9441,-4.9441,-4.9001,-4.9001,-4.9001,-4.9001,-4.9001,-4.9001,-4.9001,-4.9001,-4.9001,-4.9001,-4.9001,-4.9001,-4.9001,-4.9001,-4.9001,-4.9001,-4.9001,-4.9001,-4.9001,-4.9001,-4.9001,-4.9001,-4.9001,-5.098,-5.3382,-5.3467,-5.3501,-5.3501,-5.3501,-5.3501,-5.3501,-5.3501,-5.3501,-5.3501,-5.3501,-5.2305,-5.1183,-5.1183,-5.1183,-5.1183,-5.1183,-5.1183,-5.1183,-5.1183,-5.1183,-5.0331,-4.7794,-4.9526,-5.0175,-4.7624,-4.7309,-4.7309,-4.7309,-4.7309,-4.7309,-4.7309,-4.7309,-4.7309,-4.7309,-4.7309,-4.7309,-4.7309,-4.7309,-4.7309,-4.7309,-4.7309,-4.7309,-4.7309,-4.7309,-4.7309,-4.7309,-4.7309,-4.7309,-2.0805,0.0,0.0,0.0,0.0,0.0,0.0,0.0,0.0,-3.9994,-4.0578,-4.0882,-4.3115,-4.4265,-4.4987,-4.519,-4.7021,-4.8472,-4.866,-4.9171,-4.9381,-4.9032,-4.9001,-4.9001,-4.9001,-4.9001,-4.9001,0.0,-4.9001,-4.9001,-4.9001,-4.9001,-4.9001,-4.9001,-4.9124,-4.9124,-4.9001,-4.9124,-4.9124,-4.9001,-4.9001,-4.9001,-4.9001,-4.9001,-4.9001,-4.9001,-4.9001,-4.9001,-4.9001,-4.9001,-4.9001,-4.9001,-4.9001,-4.9001,-4.9001,-4.9001,-4.9001,-4.9001,-4.9001,-4.9001,-4.9001,-4.9001,-4.956,-5.0659,-5.2841,-5.3501,-5.3501,-5.3501,-5.3501,-5.3501,-5.3501,-5.3501,-5.3501,-5.3501,-5.2305,-5.1183,-5.1183,-5.1183,-5.1183,-5.1183,-5.1183,-5.1183,-5.1183,-5.1183,-5.094,-5.0214,-4.9122,-4.8118,-4.7381,-4.7309,-4.7309,-4.7309,-4.7309,-4.7309,-4.7309,-4.7309,-4.7309,-4.7309,-4.7309,-4.7309,-4.7309,-4.7309,-4.7309,-4.7309,-4.7309,-4.7309,-4.7309,-4.7309,-4.7309,-4.7309,-4.7309,-4.7309,-2.1329,0.0,0.0,0.0,0.0,0.0,0.0,-3.0531,0.0,0.0,-3.8836,-3.9309,-4.1847,-4.2794,-4.347,-4.4462,-4.5909,-4.7101,-4.756,-4.8396,-4.8728,-4.8152,-4.8359,-4.8545,-4.8545,-4.8545,-4.868,-4.8984,-4.9001,-4.9001,-4.9001,-4.9001,-4.9001,-4.9001,-4.9001,-4.9001,-4.9001,-4.9001,-4.9001,-4.9001,-4.9001,-4.9001,-4.9001,-4.9001,-4.9001,-4.9001,-4.9001,-4.9001,-4.9001,-4.9001,-4.9001,-4.9001,-4.9001,-4.9001,-4.9001,-4.9001,-4.9001,-4.9001,-4.9001,-4.9001,-4.9001,-4.9001,-4.9001,-4.956,-5.2587,-5.3501,-5.3501,-5.3501,-5.3501,-5.3501,-5.3501,-5.3501,-5.3501,-5.3501,-5.2305,-5.1371,-5.2017,-5.2161,-5.198,-5.1317,-5.1183,-5.1183,-5.1183,-5.1183,-5.1183,-5.1183,-4.8959,-4.7309,-4.7309,-4.7309,-4.7309,-4.7309,-4.8271,-4.848,-4.7381,-4.7309,-4.7309,-4.7309,-4.7309,-4.7309,-4.7309,-4.7309,-4.7309,-4.7309,-4.7309,-4.7309,-4.7309,-4.7309,-4.7309,-4.7309,-4.7309,-4.7309,-2.1647,-2.2934,0.0,0.0,-2.4746,0.0,-3.0886,-3.0378,-3.0211,0.0,0.0,-3.7652,-4.002,-4.0612,-4.1373,0.0,-4.4022,-4.4587,-4.5669,-4.6955,-4.7547,-4.687,-4.7394,-4.78,-4.78,-4.78,-4.8088,-4.8832,-4.8951,-4.9001,-4.9001,-4.9001,-4.9001,-4.9001,-4.9001,-4.9001,-4.9001,-4.9001,-4.9001,-4.9001,-4.9001,-4.9001,-4.9001,-4.9001,-4.9001,-4.9001,-4.9001,-4.9001,-4.9001,-4.9001,-4.9001,-4.9001,-4.9001,-4.9001,-4.9001,-4.9001,-4.9001,-4.9001,-4.9001,-4.9001,-4.9001,-4.9001,-4.9001,-4.956,-5.2587,-5.3501,-5.3501,-5.3501,-5.3501,-5.3501,-5.3501,-5.3501,-5.3501,-5.3501,-5.2447,-5.1835,-5.3212,-5.3501,-5.3024,-5.1503,-5.1183,-5.1183,-5.1183,-5.1183,-5.1183,-5.1183,-4.8959,-4.7309,-4.7309,-4.7309,-4.7309,-4.7309,-4.9365,-4.9805,-4.751,-4.7309,-4.7309,-4.7309,-4.7309,-4.7309,-4.7309,-4.7309,-4.7309,-4.7309,-4.7309,-4.7309,-4.7309,-4.7309,-4.7309,-4.7309,-4.7309,-4.7309,-2.4898,-2.5846,-2.6674,-2.5286,0.0,0.0,-2.571,-2.5828,-2.7114,0.0,0.0,0.0,0.0,0.0,0.0,0.0,0.0,0.0,0.0,0.0,0.0,-4.6802,-4.6921,-4.7005,-4.7005,-4.7005,-4.7327,-4.8071,-4.8663,-4.9001,-4.9001,-4.9001,-4.9001,-4.9001,-4.9001,-4.9001,-4.9001,-4.9001,-4.9001,-4.9001,-4.9001,-4.9001,-4.9001,-4.9001,-4.9001,-4.9001,-4.9001,-4.9001,-4.9001,-4.9001,-4.9001,-4.9001,-4.9001,-4.9001,-4.9001,-4.9001,-4.9001,-4.9001,-4.9001,-4.9001,-4.9001,-4.9001,-4.9001,-4.956,-5.2587,-5.3501,-5.3501,-5.3501,-5.3501,-5.3501,-5.3501,-5.3501,-5.3501,-5.3501,-5.328,-5.3144,-5.3433,-5.3501,-5.3024,-5.1503,-5.1183,-5.1183,-5.1183,-5.1183,-5.1183,-5.1183,-4.8959,-4.7309,-4.7309,-4.7309,-4.7309,-4.7309,-4.7752,-4.7864,-4.7337,-4.7309,-4.7309,-4.7309,-4.7309,-4.7309,-4.7309,-4.7309,-4.7309,-4.7309,-4.7309,-4.7309,-4.7309,-4.7309,-4.7309,-4.7309,-4.7309,-4.7309,-2.7198,-2.7537,-2.8129,-2.7013,0.0,0.0,0.0,-2.6167,-2.6996,-3.0025,-2.9771,-3.0008,0.0,0.0,0.0,0.0,0.0,0.0,0.0,0.0,0.0,0.0,-4.5715,-4.5838,-4.621,-4.6244,-4.6566,-4.731,-4.7699,-4.8054,-4.8443,-4.846,-4.8629,-4.8984,-4.9001,-4.9001,-4.9001,-4.9001,-4.9001,-4.9001,-4.9001,-4.9001,-4.9001,-4.9001,-4.9001,-4.9001,-4.9001,-4.9001,-4.9001,-4.9001,-4.9001,-4.9001,-4.9001,-4.9001,-4.9001,-4.9001,-4.9001,-4.9001,-4.9001,-4.9001,-4.9001,-4.9001,-4.9001,-4.9289,-5.0811,-5.2317,-5.3331,-5.257,-5.234,-5.2535,-5.328,-5.3501,-5.3501,-5.3501,-5.3501,-5.3501,-5.3501,-5.3501,-5.3024,-5.1503,-5.1835,-5.2089,-5.1333,-5.1183,-5.1183,-5.1183,-5.0097,-4.9244,-4.9244,-4.8118,-4.7309,-4.7309,-4.7309,-4.7309,-4.7309,-4.7309,-4.7309,-4.7309,-4.7309,-4.7309,-4.7309,-4.7309,-4.7309,-4.7309,-4.7309,-4.7309,-4.7309,-4.7309,-4.7309,-4.7309,-4.7309,-4.7309,0.0,0.0,0.0,0.0,0.0,-2.8399,0.0,0.0,0.0,-3.0448,0.0,0.0,0.0,0.0,0.0,0.0,0.0,0.0,0.0,0.0,0.0,0.0,0.0,-4.4384,-4.4993,-4.4925,-4.5314,-4.6498,-4.6177,-4.6447,-4.7648,-4.7804,-4.8159,-4.8781,-4.8934,-4.9001,-4.9001,-4.9001,-4.9001,-4.9001,-4.9001,-4.9001,-4.9001,-4.9001,-4.9001,-4.9001,-4.9001,-4.9001,-4.9001,-4.9001,-4.9001,-4.9001,-4.9001,-4.9001,-4.9001,-4.9001,-4.9001,-4.9001,-4.9001,-4.9001,-4.9001,-4.9001,-4.9001,-4.9001,-4.9001,-5.071,-5.2438,-5.1467,-5.0778,-5.0766,-5.2596,-5.2661,-5.2503,-5.3314,-5.328,-5.3144,-5.3433,-5.3263,-5.2711,-5.1429,-5.2197,-5.2676,-5.1392,-5.1183,-5.1183,-5.1183,-5.1183,-5.1183,-5.1183,-4.8918,-4.7309,-4.7309,-4.7309,-4.7309,-4.7309,-4.7309,-4.7309,-4.7309,-4.7309,-4.7309,-4.7309,-4.7309,-4.7309,-4.7309,-4.7309,-4.7309,-4.7309,-4.7309,-4.7309,-4.7309,-4.7309,-4.7309,0.0,0.0,0.0,0.0,-3.278,0.0,0.0,0.0,-2.7435,-2.6556,0.0,0.0,0.0,0.0,0.0,0.0,0.0,0.0,0.0,0.0,0.0,0.0,0.0,-4.2574,-4.2675,-4.2083,-4.2861,-4.5618,-4.3944,-4.4012,-4.6769,-4.7547,-4.7922,-4.8007,-4.8663,-4.9001,-4.9001,-4.9001,-4.9001,-4.9001,-4.9001,-4.9001,-4.9001,-4.9001,-4.9001,-4.9001,-4.9001,-4.9001,-4.9001,-4.9001,-4.9001,-4.9001,-4.9001,-4.9001,-4.9001,-4.9001,-4.9001,-4.9001,-4.9001,-4.9001,-4.9001,-4.9001,-4.9001,-4.9001,-4.9001,-4.9238,-4.9732,-5.0896,-4.9337,-4.8031,-5.0762,-4.9734,-4.8938,-5.2609,-5.2447,-5.1835,-5.3212,-5.2412,-5.1408,-5.1221,-5.1333,-5.1408,-5.1221,-5.1183,-5.1183,-5.1183,-5.1183,-5.1183,-5.1183,-4.8918,-4.7309,-4.7309,-4.7309,-4.7309,-4.7309,-4.7309,-4.7309,-4.7309,-4.7309,-4.7309,-4.7309,-4.7309,-4.7309,-4.7309,-4.7309,-4.7309,-4.7309,-4.7309,-4.7309,-4.7309,-4.7309,-4.7309,0.0,0.0,0.0,0.0,0.0,0.0,-2.8501,0.0,-2.7249,0.0,0.0,0.0,0.0,0.0,0.0,0.0,-3.0091,0.0,0.0,0.0,0.0,0.0,0.0,0.0,-4.0206,-4.0104,-4.0984,-4.3538,-4.2033,-4.2347,-4.5376,-4.6227,-4.7039,-4.7855,-4.8206,-4.8578,-4.9001,-4.9001,-4.9001,-4.9001,-4.9001,-4.9001,-4.9001,-4.9001,-4.9001,-4.9001,-4.9001,-4.9001,-4.9001,-4.9001,-4.9001,-4.9001,-4.9001,-4.9001,-4.9001,-4.9001,-4.9001,-4.9001,-4.9001,-4.9001,-4.9001,-4.9001,-4.9001,-4.934,-5.1082,-4.9824,-4.8264,-5.0558,-5.0309,-4.9661,-5.0876,-5.0386,-4.9986,-5.1745,-5.1651,-5.1371,-5.2017,-5.1651,-5.1183,-5.1183,-5.1183,-5.1183,-5.1183,-5.1183,-5.1183,-5.1183,-5.1183,-5.1183,-5.1183,-5.0253,-4.8959,-4.7467,-4.7309,-4.7309,-4.7309,-4.7309,-4.7309,-4.7309,-4.7309,-4.7309,-4.7309,-4.7309,-4.7309,-4.7309,-4.7309,-4.7309,-4.7309,-4.7309,-4.7309,-4.7309,-4.7309,-4.7309,-3.6097,0.0,0.0,0.0,0.0,0.0,0.0,0.0,0.0,0.0,0.0,0.0,0.0,0.0,0.0,0.0,0.0,-2.948,0.0,0.0,0.0,0.0,0.0,0.0,0.0,-3.7652,-3.8413,-4.1474,0.0,-4.0231,-4.4062,-4.4976,-4.5991,-4.7246,-4.7686,-4.8173,-4.8697,-4.89,-4.9001,-4.9001,-4.9001,-4.9001,-4.9001,-4.9001,-4.9001,-4.9001,-4.9001,-4.9001,-4.9001,-4.9001,-4.9001,-4.9001,-4.9001,-4.9001,-4.9001,-4.9001,-4.9001,-4.9001,-4.9001,-4.9001,-4.9137,-4.9965,-5.0236,-5.0642,-5.2841,-5.0953,-4.8495,-5.06,-5.1183,-5.1183,-5.1183,-5.1183,-5.1296,-5.1725,-5.1835,-5.1954,-5.2286,-5.2074,-5.1688,-5.1296,-5.1183,-5.1333,-5.1762,-5.1466,-5.1183,-5.1183,-5.1183,-5.1183,-5.1183,-5.1183,-5.0214,-4.7596,-4.7309,-4.7309,-4.7309,-4.7309,-4.7309,-4.7309,-4.7309,-4.7309,-4.7309,-4.7309,-4.7309,-4.7309,-4.7309,-4.7309,-4.7309,-4.7309,-4.7309,-4.7309,-4.7309,-4.7309,0.0,0.0,0.0,-3.4756,0.0,0.0,0.0,0.0,-3.0649,0.0,0.0,0.0,0.0,0.0,0.0,0.0,0.0,0.0,0.0,0.0,0.0,0.0,0.0,0.0,0.0,-3.4235,-3.4636,0.0,-3.6755,-3.7246,-4.3105,-4.4198,-4.4976,-4.5754,-4.7175,-4.7906,-4.7922,-4.8646,-4.9001,-4.9001,-4.9001,-4.9001,-4.9001,-4.9001,-4.9001,-4.9001,-4.9001,-4.9001,-4.9001,-4.9001,-4.9001,-4.9001,-4.9001,-4.9001,-4.9001,-4.9001,-4.9001,-4.9001,-4.9001,-4.9001,-4.9492,-5.2418,-5.3365,-5.3382,-5.3467,-5.2345,-5.107,-5.1151,-5.1183,-5.1183,-5.1183,-5.1183,-5.1577,-5.3075,-5.3433,-5.3777,-5.5001,-5.4291,-5.2989,-5.1483,-5.1183,-5.1651,-5.3178,-5.2197,-5.1183,-5.1183,-5.1183,-5.1183,-5.1183,-5.1183,-5.0214,-4.7596,-4.7309,-4.7309,-4.7309,-4.7309,-4.7309,-4.7309,-4.7309,-4.7309,-4.7309,-4.7309,-4.7309,-4.7309,-4.7309,-4.7309,-4.7309,-4.7309,-4.7309,-4.7309,-4.7309,-4.7309,0.0,0.0,-4.1653,-3.7751,0.0,0.0,0.0,0.0,0.0,0.0,0.0,0.0,0.0,0.0,0.0,0.0,0.0,0.0,0.0,0.0,0.0,0.0,0.0,0.0,0.0,0.0,0.0,0.0,-3.5938,0.0,-4.1711,-4.3132,-4.4164,-4.4942,-4.6397,-4.7411,-4.7889,-4.8646,-4.9001,-4.9001,-4.9001,-4.9001,-4.9001,-4.9001,-4.9001,-4.9001,-4.9001,-4.9001,-4.9001,-4.9001,-4.9001,-4.9001,-4.9001,-4.9001,-4.9001,-4.9001,-4.9001,-4.9001,-4.9001,-4.9001,-4.9509,-5.252,-5.3501,-5.3501,-5.3501,-5.2412,-5.1183,-5.1183,-5.1183,-5.1183,-5.1183,-5.1183,-5.2088,-5.56,-5.641,-5.652,-5.698,-5.5175,-5.3365,-5.2816,-5.2711,-5.2885,-5.3399,-5.3075,-5.2711,-5.2711,-5.1835,-5.1183,-5.1183,-5.1183,-5.0214,-4.7596,-4.7309,-4.7309,-4.7309,-4.7309,-4.7309,-4.7309,-4.7309,-4.7309,-4.7309,-4.7309,-4.7309,-4.7309,-4.7309,-4.7309,-4.7309,-4.7309,-4.7309,-4.7309,-4.7309,-4.7309,-4.2327,-4.2963,0.0,-3.9974,-3.8656,0.0,-3.2513,0.0,-3.3308,0.0,0.0,0.0,0.0,0.0,0.0,0.0,0.0,0.0,0.0,-2.4085,0.0,0.0,0.0,0.0,0.0,0.0,-3.1495,-3.5312,-3.4619,0.0,0.0,-4.2219,-4.3369,-4.4147,-4.5618,-4.6769,-4.7513,-4.824,-4.8748,-4.9001,-4.9001,-4.9001,-4.9001,-4.9001,-4.9001,-4.9001,-4.9001,-4.9001,-4.9001,-4.9001,-4.9001,-4.9001,-4.9001,-4.9001,-4.9001,-4.9001,-4.9001,-4.9001,-4.9001,-4.9001,-4.9509,-5.252,-5.3501,-5.3501,-5.3501,-5.2816,-5.1908,-5.1371,-5.1183,-5.1183,-5.1183,-5.1614,-5.2997,-5.6954,-5.7881,-5.7594,-5.6545,-5.4837,-5.3501,-5.3501,-5.3501,-5.3501,-5.3501,-5.3501,-5.3314,-5.2781,-5.1835,-5.1183,-5.1183,-5.1183,-5.0214,-4.7596,-4.7309,-4.7309,-4.7309,-4.7309,-4.7309,-4.7309,-4.7309,-4.7309,-4.7309,-4.7309,-4.7309,-4.7309,-4.7309,-4.7309,-4.7309,-4.7309,-4.7309,-4.7309,-4.7309,-4.7309]},{"header":{"parameterUnit":"m.s-1","parameterCategory":1,"la1":30.6,"la2":29.2853,"lo1":-89.7004,"lo2":-87.6739,"dy":0.0162,"dx":0.0183,"nx":112,"ny":82,"refTime":"2026-05-23T12:00:00:Z","depth":0,"parameterNumber":3,"parameterNumberName":"V-component_of_WINDS"},"data":[0.0,0.0,0.0,0.0,0.0,0.0,0.0,0.0,0.0,0.0,0.0,0.0,0.0,0.0,0.0,0.0,0.0,0.0,0.0,0.0,0.0,0.0,0.0,0.0,0.0,0.0,0.0,0.0,0.0,0.0,0.0,0.0,0.0,0.0,0.0,0.0,0.0,0.0,0.0,0.0,0.0,0.0,0.0,0.0,0.0,0.0,0.0,0.0,0.0,0.0,0.0,0.0,0.0,0.0,0.0,0.0,0.0,0.0,0.0,0.0,0.0,0.0,0.0,0.0,0.0,0.0,0.0,0.0,0.0,0.0,0.0,0.0,0.0,0.0,0.0,0.0,0.0,0.0,0.0,0.0,0.0,0.0,0.0,0.0,0.0,0.0,0.0,0.0,0.0,0.0,0.0,1.5673,1.8014,1.967,1.9977,1.9976,1.8951,1.648,0.0,0.0,0.0,0.0,0.0,0.0,0.0,0.0,0.0,0.0,0.0,0.0,0.0,0.0,0.0,0.0,0.0,0.0,0.0,0.0,0.0,0.0,0.0,0.0,0.0,0.0,0.0,0.0,0.0,0.0,0.0,0.0,0.0,0.0,0.0,0.0,0.0,0.0,0.0,0.0,0.0,0.0,0.0,0.0,0.0,0.0,0.0,0.0,0.0,0.0,0.0,0.0,0.0,0.0,0.0,0.0,0.0,0.0,0.0,0.0,0.0,0.0,0.0,0.0,0.0,0.0,0.0,0.0,0.0,0.0,0.0,0.0,0.0,0.0,0.0,0.0,0.0,0.0,0.0,0.0,0.0,0.0,0.0,0.0,0.0,0.0,0.0,0.0,0.0,0.0,0.0,0.0,0.0,0.0,0.0,0.0,0.0,0.0,0.0,0.0,0.0,0.0,0.0,0.0,1.5534,1.8447,1.9894,2.0492,2.0036,2.0511,1.9721,1.7125,0.0,0.0,0.0,0.0,0.0,0.0,0.0,0.0,0.0,0.0,0.0,0.0,0.0,0.0,0.0,0.0,0.0,0.0,0.0,0.0,0.0,0.0,0.0,0.0,0.0,0.0,0.0,0.0,0.0,0.0,0.0,0.0,0.0,0.0,0.0,0.0,0.0,0.0,0.0,0.0,0.0,0.0,0.0,0.0,0.0,0.0,0.0,0.0,0.0,0.0,0.0,0.0,0.0,0.0,0.0,0.0,0.0,0.0,0.0,0.0,0.0,0.0,0.0,0.0,0.0,0.0,0.0,0.0,0.0,0.0,0.0,0.0,0.0,0.0,0.0,0.0,0.0,0.0,0.0,0.0,0.0,0.0,0.0,0.0,0.0,0.0,0.0,0.0,0.0,0.0,0.0,0.0,0.0,0.0,0.0,0.0,0.0,0.0,0.0,0.0,0.0,0.0,0.0,1.4996,1.6535,1.9104,2.0028,2.0327,2.003,2.0113,1.9256,1.7076,1.571,0.0,0.0,0.0,0.0,0.0,0.0,0.0,0.0,0.0,0.0,0.0,0.0,0.0,0.0,0.0,0.0,0.0,0.0,0.0,0.0,0.0,0.0,0.0,0.0,0.0,0.0,0.0,0.0,0.0,0.0,0.0,0.0,0.0,0.0,0.0,0.0,0.0,0.0,0.0,0.0,0.0,0.0,0.0,0.0,0.0,0.0,0.0,0.0,0.0,0.0,0.0,0.0,0.0,0.0,0.0,0.0,0.0,0.0,0.0,0.0,0.0,0.0,0.0,0.0,0.0,0.0,0.0,0.0,0.0,0.0,0.0,0.0,0.0,0.0,0.0,0.0,0.0,0.0,0.0,0.0,0.0,0.0,0.0,0.0,0.0,0.0,0.0,0.0,0.0,0.0,0.0,0.0,0.0,0.0,0.0,0.0,0.0,0.0,0.0,0.0,0.0,0.0,1.6754,1.7654,1.9376,2.0103,2.0326,2.0036,1.9725,1.8789,1.6926,1.5367,0.0,0.0,0.0,0.0,0.0,0.0,0.0,0.0,0.0,0.0,0.0,0.0,0.0,0.0,0.0,0.0,0.0,0.0,0.0,0.0,0.0,0.0,0.0,0.0,0.0,0.0,0.0,0.0,0.0,0.0,0.0,0.0,0.0,0.0,0.0,0.0,0.0,0.0,0.0,0.0,0.0,0.0,0.0,0.0,0.0,0.0,0.0,0.0,0.0,0.0,0.0,0.0,0.0,0.0,0.0,0.0,0.0,0.0,0.0,0.0,0.0,0.0,0.0,0.0,0.0,0.0,0.0,0.0,0.0,0.0,0.0,0.0,0.0,0.0,0.0,0.0,0.0,0.0,0.0,0.0,0.0,0.0,0.0,0.0,0.0,0.0,0.0,0.0,0.0,0.0,0.0,0.0,0.0,0.0,0.0,0.0,0.0,0.0,0.0,0.0,0.0,0.0,1.7442,1.8938,1.9943,2.0921,2.1093,2.0088,1.9858,1.8932,1.6922,1.483,0.0,0.0,0.0,0.0,0.0,0.0,0.0,0.0,0.0,0.0,0.0,0.0,0.0,0.0,0.0,0.0,0.0,0.0,0.0,0.0,0.0,0.0,0.0,0.0,0.0,0.0,0.0,0.0,0.0,0.0,0.0,0.0,0.0,0.0,0.0,0.0,0.0,0.0,0.0,0.0,0.0,0.0,0.0,0.0,0.0,0.0,0.0,0.0,0.0,0.0,0.0,0.0,0.0,0.0,0.0,0.0,0.0,0.0,0.0,0.0,0.0,0.0,0.0,0.0,0.0,0.0,0.0,0.0,0.0,0.0,0.0,0.0,0.0,0.0,0.0,0.0,0.0,0.0,0.0,0.0,0.0,0.0,0.0,0.0,0.0,0.0,0.0,0.0,0.0,0.0,0.0,0.0,0.0,0.0,0.0,0.0,0.0,0.0,0.0,0.0,0.0,0.0,1.7228,1.8753,0.0,2.0752,2.0855,2.0064,1.9963,1.8967,1.6753,0.0,0.0,0.0,0.0,0.0,0.0,0.0,0.0,0.0,0.0,0.0,0.0,0.0,0.0,0.0,0.0,0.0,0.0,0.0,0.0,0.0,0.0,0.0,0.0,0.0,0.0,0.0,0.0,0.0,0.0,0.0,0.0,0.0,0.0,0.0,0.0,0.0,0.0,0.0,0.0,0.0,0.0,0.0,0.0,0.0,0.0,0.0,0.0,0.0,0.0,0.0,0.0,0.0,0.0,0.0,0.0,0.0,0.0,0.0,0.0,0.0,0.0,0.0,0.0,0.0,0.0,0.0,0.0,0.0,0.0,0.0,0.0,0.0,0.0,0.0,0.0,0.0,0.0,0.0,0.0,0.0,0.0,0.0,0.0,0.0,0.0,0.0,0.0,0.0,0.0,0.0,0.0,0.0,0.0,0.0,0.0,0.0,0.0,0.0,0.0,0.0,0.0,1.5691,1.7566,1.9093,0.0,2.0964,2.1007,2.0094,1.9811,1.8694,1.6403,0.0,0.0,0.0,0.0,0.0,0.0,0.0,0.0,0.0,0.0,0.0,0.0,0.0,0.0,0.0,0.0,0.0,0.0,0.0,0.0,0.0,0.0,0.0,0.0,0.0,0.0,0.0,0.0,0.0,0.0,0.0,0.0,0.0,0.0,0.0,0.0,0.0,0.0,0.0,0.0,0.0,0.0,0.0,0.0,0.0,0.0,0.0,0.0,0.0,0.0,0.0,0.0,0.0,0.0,0.0,0.0,0.0,0.0,0.0,0.0,0.0,0.0,0.0,0.0,0.0,0.0,0.0,0.0,0.0,0.0,0.0,0.0,0.0,0.0,0.0,0.0,0.0,0.0,0.0,0.0,0.0,0.0,0.0,0.0,0.0,0.0,0.0,0.0,0.0,0.0,0.0,0.0,0.0,0.0,0.0,0.0,0.0,0.0,0.0,0.0,0.0,0.0,1.6247,1.8624,2.0314,2.085,2.1817,2.1741,2.017,1.9397,1.8067,0.0,0.0,0.0,0.0,0.0,0.0,0.0,0.0,0.0,0.0,0.0,0.0,0.0,0.0,0.0,0.0,0.0,0.0,0.0,0.0,0.0,0.0,0.0,0.0,0.0,0.0,0.0,0.0,0.0,0.0,0.0,0.0,0.0,0.0,0.0,0.0,0.0,0.0,0.0,0.0,0.0,0.0,0.0,0.0,0.0,0.0,0.0,0.0,0.0,0.0,0.0,0.0,0.0,0.0,0.0,0.0,0.0,0.0,0.0,0.0,0.0,0.0,0.0,0.0,0.0,0.0,0.0,0.0,0.0,0.0,0.0,0.0,0.0,0.0,0.0,0.0,0.0,0.0,0.0,0.0,0.0,0.0,0.0,0.0,0.0,0.0,0.0,0.0,0.0,0.0,0.0,0.0,0.0,0.0,0.0,0.0,0.0,0.0,0.0,0.0,0.0,0.0,0.0,1.6291,1.9244,2.137,2.1902,2.2184,2.2147,2.1728,2.0422,1.8683,1.6425,0.0,0.0,0.0,0.0,0.0,0.0,0.0,0.0,0.0,0.0,0.0,0.0,0.0,0.0,0.0,0.0,0.0,0.0,0.0,0.0,0.0,0.0,0.0,0.0,0.0,0.0,0.0,0.0,0.0,0.0,0.0,0.0,0.0,0.0,0.0,0.0,0.0,0.0,0.0,0.0,0.0,0.0,0.0,0.0,0.0,0.0,0.0,0.0,0.0,0.0,0.0,0.0,0.0,0.0,0.0,0.0,0.0,0.0,0.0,0.0,0.0,0.0,0.0,0.0,0.0,0.0,0.0,0.0,0.0,0.0,0.0,0.0,0.0,0.0,0.0,0.0,0.0,0.0,0.0,0.0,0.0,0.0,0.0,0.0,0.0,0.0,0.0,0.0,0.0,0.0,0.0,0.0,0.0,0.0,0.0,0.0,0.0,0.0,0.0,0.0,0.0,0.0,1.6612,1.9615,2.1891,2.265,2.2662,2.2548,2.2413,2.1068,1.9166,1.6676,0.0,0.0,0.0,0.0,0.0,0.0,0.0,0.0,0.0,0.0,0.0,0.0,0.0,0.0,0.0,0.0,0.0,0.0,0.0,0.0,0.0,0.0,0.0,0.0,0.0,0.0,0.0,0.0,0.0,0.0,0.0,0.0,0.0,0.0,0.0,0.0,0.0,0.0,0.0,0.0,0.0,0.0,0.0,0.0,0.0,0.0,0.0,0.0,0.0,0.0,0.0,0.0,0.0,0.0,0.0,0.0,0.0,0.0,0.0,0.0,0.0,0.0,0.0,0.0,0.0,0.0,0.0,0.0,0.0,0.0,0.0,0.0,0.0,0.0,0.0,0.0,0.0,0.0,0.0,0.0,0.0,0.0,0.0,0.0,0.0,0.0,0.0,0.0,0.0,0.0,0.0,0.0,0.0,0.0,0.0,0.0,0.0,0.0,0.0,0.0,0.0,0.0,1.712,1.9931,2.2149,2.3231,2.3236,2.3036,2.2651,2.1427,1.9547,1.6826,0.0,0.0,0.0,0.0,0.0,0.0,0.0,0.0,0.0,0.0,0.0,0.0,0.0,0.0,0.0,0.0,0.0,0.0,0.0,0.0,0.0,0.0,0.0,0.0,0.0,0.0,0.0,0.0,0.0,0.0,0.0,0.0,0.0,0.0,0.0,0.0,0.0,0.0,0.0,0.0,0.0,0.0,0.0,0.0,0.0,0.0,0.0,0.0,0.0,0.0,0.0,0.0,0.0,0.0,0.0,0.0,0.0,0.0,0.0,0.0,1.7621,0.0,0.0,0.0,0.0,0.0,0.0,0.0,0.0,0.0,0.0,0.0,0.0,0.0,0.0,0.0,0.0,0.0,0.0,0.0,0.0,0.0,0.0,0.0,0.0,0.0,0.0,0.0,0.0,0.0,0.0,0.0,0.0,0.0,0.0,0.0,0.0,0.0,0.0,0.0,0.0,0.0,1.7595,2.0784,2.3242,2.4258,2.3971,2.3871,2.4258,2.2076,1.9887,1.7965,1.5374,0.0,0.0,0.0,0.0,0.0,0.0,0.0,0.0,0.0,0.0,0.0,0.0,0.0,0.0,0.0,0.0,0.0,0.0,0.0,0.0,0.0,0.0,0.0,0.0,0.0,0.0,0.0,0.0,0.0,0.0,0.0,0.0,0.0,0.0,0.0,0.0,0.0,0.0,0.0,0.0,0.0,0.0,0.0,0.0,0.0,0.0,0.0,0.0,0.0,0.0,0.0,0.0,0.0,0.0,0.0,0.0,0.0,0.0,0.0,0.0,1.9496,0.0,0.0,0.0,0.0,0.0,0.0,0.0,0.0,0.0,0.0,0.0,0.0,0.0,0.0,0.0,0.0,0.0,0.0,0.0,0.0,0.0,0.0,0.0,0.0,0.0,0.0,0.0,0.0,0.0,0.0,0.0,0.0,0.0,0.0,0.0,0.0,0.0,0.0,0.0,0.0,1.7759,2.0815,2.3281,2.4554,2.4236,2.4153,2.4755,2.2749,2.074,1.9083,1.6908,0.0,0.0,0.0,0.0,0.0,0.0,0.0,0.0,0.0,0.0,0.0,0.0,0.0,0.0,0.0,0.0,0.0,0.0,0.0,0.0,0.0,0.0,0.0,0.0,0.0,0.0,0.0,0.0,0.0,0.0,0.0,0.0,0.0,0.0,0.0,0.0,0.0,0.0,0.0,0.0,0.0,0.0,0.0,0.0,0.0,0.0,0.0,0.0,0.0,0.0,0.0,0.0,0.0,2.6736,2.6725,2.6398,2.6398,2.6398,2.6223,2.2997,2.1939,2.2313,1.9812,0.0,0.0,0.0,0.0,0.0,0.0,0.0,0.0,0.0,0.0,0.0,0.0,0.0,0.0,0.0,0.0,0.0,0.0,0.0,0.0,0.0,0.0,0.0,0.0,2.1832,2.0915,1.7534,0.0,0.0,0.0,0.0,0.0,0.0,0.0,0.0,0.0,0.0,0.0,1.8254,2.0976,2.3248,2.4684,2.4384,2.4263,2.4755,2.3246,2.1681,2.0188,1.8568,1.6782,0.0,0.0,0.0,0.0,0.0,0.0,0.0,0.0,0.0,0.0,0.0,0.0,0.0,0.0,0.0,0.0,0.0,0.0,0.0,0.0,0.0,0.0,0.0,0.0,0.0,0.0,0.0,0.0,0.0,0.0,0.0,0.0,1.1533,1.2589,0.0,0.0,0.0,0.0,0.0,0.0,0.0,0.0,0.0,0.0,0.0,0.0,0.0,2.476,2.476,2.6703,2.7917,2.8442,3.0067,2.9991,2.8431,2.8431,2.8431,2.8399,2.7884,0.0,2.0707,2.3591,0.0,0.0,0.0,0.0,0.0,0.0,0.0,0.0,0.0,0.0,0.0,0.0,0.0,0.0,0.0,0.0,0.0,0.0,0.0,0.0,0.0,0.0,2.3886,2.3023,2.2815,2.2444,0.0,1.9386,1.7403,1.5034,1.4477,0.0,0.0,0.0,0.0,0.0,0.0,0.0,2.0217,2.2461,2.4224,2.5357,2.4994,2.4723,2.4788,2.3246,2.202,2.1305,1.9723,1.8254,1.7021,1.4916,0.0,0.0,0.0,0.0,0.0,0.0,0.0,0.0,0.0,0.0,0.0,0.0,0.0,0.0,0.0,0.0,0.0,0.0,0.0,0.0,0.0,0.0,0.0,0.0,0.0,0.0,0.0,0.0,0.0,1.2222,1.3943,1.5557,1.5285,1.4478,0.0,0.0,0.0,0.0,0.0,0.0,0.0,0.0,0.0,2.2116,2.5622,2.8025,2.9106,2.9947,3.0362,3.0373,3.1225,3.1181,3.0362,3.0362,3.0362,3.0362,3.0362,2.8932,2.6595,2.725,2.4738,2.0391,0.0,0.0,0.0,0.0,1.9135,2.3346,2.3346,2.4486,2.5721,2.4628,0.0,0.0,0.0,0.0,0.0,0.0,0.0,0.0,0.0,0.0,2.3689,2.3809,2.3842,2.3722,2.3307,2.2215,2.0445,0.0,1.7141,1.6465,1.4139,0.0,0.0,0.0,0.0,1.9005,2.1126,2.3225,2.4804,2.551,2.5388,2.5146,2.4813,2.3866,2.2887,2.2008,2.069,1.9585,1.8769,1.6609,1.4952,0.0,0.0,0.0,0.0,0.0,0.0,0.0,0.0,0.0,0.0,0.0,0.0,0.0,0.0,0.0,0.0,0.0,0.0,0.0,0.0,0.0,0.0,0.0,0.0,0.0,0.0,0.0,0.0,1.3617,1.5871,1.7758,1.7646,1.6675,0.0,0.0,0.0,0.0,0.0,0.0,2.9175,2.7676,2.6627,2.6627,2.8484,3.0177,3.1607,3.1618,3.1618,3.1618,3.1618,3.1618,3.1618,3.1618,3.1618,3.1618,3.1618,3.1618,3.1476,2.9543,2.7108,2.4334,2.2903,2.1472,2.0249,2.0249,2.2973,2.6627,2.6627,2.6627,2.6387,2.4945,2.6134,2.7797,2.6332,0.0,0.0,0.0,0.0,2.3973,2.4956,2.4476,2.3962,2.4825,2.4945,2.4825,2.4694,2.4366,2.3209,0.0,1.9812,1.9168,1.6645,0.0,0.0,0.0,0.0,2.0515,2.2078,2.3773,2.5121,2.5744,2.5701,2.5385,2.4838,2.4318,2.3577,2.2556,2.1619,2.0855,2.0263,1.838,1.6898,1.5919,0.0,0.0,0.0,0.0,0.0,0.0,0.0,0.0,0.0,0.0,0.0,0.0,0.0,0.0,0.0,0.0,0.0,0.0,0.0,0.0,0.0,0.0,0.0,0.0,0.0,0.0,0.0,0.0,0.0,1.787,2.0781,0.0,0.0,0.0,0.0,2.2219,2.4366,2.7228,3.1258,2.97,2.8661,2.8661,3.0472,3.152,3.1618,3.1618,3.1618,3.1618,3.1618,3.1618,3.1618,3.1618,3.1618,3.1618,3.1618,3.1618,3.1476,2.9543,2.8683,2.8508,2.841,2.83,2.8224,2.8224,2.841,2.8661,2.8661,2.8661,2.8639,2.8541,2.737,2.6026,2.5928,2.441,0.0,0.0,2.5677,2.5972,2.6922,2.6463,2.5884,2.6398,2.6168,2.5699,2.5281,2.5161,2.4508,0.0,2.1778,2.0992,1.9431,0.0,1.9366,1.9824,2.0435,2.1576,2.3629,2.439,2.5158,2.6349,2.5937,2.5385,2.4838,2.4318,2.374,2.3095,2.2518,2.1983,2.143,2.0263,1.8643,1.65,1.4808,0.0,0.0,0.0,0.0,0.0,0.0,0.0,0.0,0.0,0.0,0.0,0.0,0.0,0.0,0.0,0.0,0.0,0.0,0.0,0.0,0.0,0.0,0.0,0.0,0.0,0.0,0.0,0.0,2.2469,2.213,0.0,2.045,1.8877,1.9354,2.2818,2.5978,2.8377,2.9755,3.0308,3.0035,2.8836,3.0624,3.1618,3.1618,3.1618,3.1455,3.1177,3.2713,3.3497,3.3442,3.2197,3.1618,3.1618,3.1618,3.1618,3.1575,3.0887,3.0603,3.0603,3.0603,3.0603,3.045,2.9263,2.8803,2.8803,2.8803,2.8803,2.8803,2.8803,2.8333,2.7786,2.7786,2.7294,2.6889,2.7589,2.7786,2.7863,2.8202,2.8038,2.7566,2.6868,2.6562,2.6279,2.6147,2.5863,2.5349,2.4344,2.3514,2.251,2.1068,2.1079,2.102,2.0295,2.1732,2.319,2.3954,2.5097,2.6013,2.6452,2.6311,2.5787,2.4863,2.4612,2.3948,2.2656,2.2083,2.1531,2.1006,2.0213,1.9271,1.813,1.6882,1.511,0.0,0.0,0.0,0.0,0.0,0.0,0.0,0.0,0.0,0.0,0.0,0.0,0.0,0.0,0.0,0.0,0.0,0.0,0.0,0.0,0.0,0.0,0.0,0.0,0.0,0.0,1.8979,2.3464,2.2514,2.1826,2.2601,2.1177,2.101,2.2906,2.6522,2.8945,2.9718,3.0216,3.0272,2.9762,3.0952,3.1883,3.259,3.2601,3.2424,3.2143,3.3727,3.4524,3.4458,3.2514,3.1618,3.1618,3.1618,3.1618,3.1618,3.1618,3.1618,3.1618,3.1618,3.1618,3.1465,3.0199,2.9718,2.9631,2.9033,2.8803,2.8803,2.8803,2.8803,2.8803,2.8803,2.8803,2.8803,2.8803,2.8803,2.8803,2.8803,2.8803,2.8585,2.7687,2.7075,2.6639,2.6595,2.6245,2.5808,2.548,2.4639,2.3621,2.2529,2.2456,2.2232,2.1278,2.2766,2.4031,2.4277,2.5406,2.628,2.6499,2.6499,2.6047,2.4888,2.4612,2.396,2.2644,2.1895,2.1358,2.0981,2.0213,1.9472,1.8744,1.7476,1.6015,1.4362,0.0,0.0,0.0,0.0,0.0,0.0,0.0,0.0,0.0,0.0,0.0,0.0,0.0,0.0,0.0,0.0,0.0,0.0,0.0,0.0,0.0,0.0,0.0,1.5973,1.674,1.829,2.0392,2.2139,2.2781,2.2048,2.2025,2.2322,2.2967,2.6209,2.9122,3.1362,2.9438,2.928,3.1414,3.1416,3.2348,3.439,3.4412,3.4412,3.4524,3.4524,3.4524,3.4458,3.2514,3.16,3.1717,3.1717,3.1717,3.1717,3.1717,3.1717,3.1654,3.16,3.1618,3.1618,3.1618,3.1618,3.1356,2.9536,2.8891,2.888,2.8825,2.8803,2.8803,2.8803,2.8803,2.8803,2.8803,2.8803,2.8803,2.8803,2.8803,2.8803,2.8803,2.7796,2.6802,2.6628,2.6256,2.5917,2.5895,2.5171,2.437,2.3924,2.3467,2.3139,2.3023,2.3557,0.0,2.4657,2.5241,2.5816,2.643,2.6499,2.6059,2.4933,2.4343,2.3766,2.312,2.2083,2.1481,2.1496,2.0413,1.9346,1.8304,1.6647,1.5537,1.4991,0.0,0.0,0.0,0.0,0.0,0.0,0.0,0.0,0.0,0.0,0.0,0.0,0.0,0.0,0.0,0.0,0.0,0.0,0.0,0.0,0.0,1.8219,1.9646,1.7675,1.8775,2.0332,2.1879,2.2711,2.321,2.334,2.36,2.3511,2.3039,2.3896,2.5863,2.9069,2.8601,2.8601,2.9175,2.7684,2.8511,3.1845,3.1913,3.2763,3.4524,3.4524,3.4524,3.4458,3.2514,3.2394,3.3726,3.3726,3.3726,3.3726,3.3726,3.3726,3.3584,3.2175,3.1618,3.1618,3.1618,3.1618,3.1553,3.1018,3.0832,3.0603,2.9252,2.8803,2.8803,2.8803,2.8803,2.8803,2.8803,2.8803,2.8803,2.8803,2.8803,2.8803,2.8803,2.853,2.796,2.6944,2.6551,2.6321,2.5972,2.5441,2.4985,2.4851,2.4735,2.4401,2.3697,2.4073,0.0,2.4731,2.5254,2.5816,2.643,2.6499,2.6197,2.5435,2.4895,2.4004,2.2594,2.1882,2.1333,2.0943,2.0616,2.0314,2.0025,1.8756,1.7639,0.0,0.0,0.0,0.0,0.0,0.0,0.0,0.0,0.0,0.0,0.0,0.0,0.0,0.0,0.0,0.0,0.0,0.0,0.0,0.0,0.0,0.0,2.0488,2.1076,2.0281,2.0797,2.1577,2.2474,2.2884,2.3209,2.3513,2.3716,2.3856,2.3875,2.3348,2.3896,2.5981,2.7466,2.7898,2.7008,2.5749,2.6197,2.8421,2.848,2.9166,3.0577,3.3233,3.4524,3.448,3.3355,3.3453,3.4524,3.4524,3.4524,3.4524,3.4524,3.4524,0.0,0.0,0.0,0.0,0.0,3.1618,3.1618,3.1618,3.1618,3.1433,3.0319,2.9958,2.9958,2.9958,2.9438,2.8803,2.8803,2.8803,2.8803,2.8803,2.8803,2.8803,2.8803,2.8803,2.8541,2.75,2.6922,2.6497,2.6256,2.5816,0.0,2.5224,2.5045,2.4708,2.4188,2.4544,2.495,2.507,2.5564,2.6061,2.6443,2.628,2.5974,2.5649,2.4867,0.0,0.0,0.0,2.1481,2.0729,2.0691,0.0,0.0,0.0,0.0,0.0,0.0,0.0,0.0,1.6647,1.6426,0.0,0.0,0.0,0.0,0.0,0.0,0.0,0.0,0.0,0.0,0.0,0.0,0.0,0.0,0.0,0.0,2.249,2.2299,2.2927,2.2474,2.2196,2.2506,2.2863,2.3062,2.3022,2.3014,2.353,2.4778,2.3721,2.3247,2.3861,0.0,0.0,0.0,0.0,2.5111,2.5111,2.5525,2.5884,2.6233,3.1812,3.4356,3.4121,3.4356,3.4524,3.4524,3.4524,3.4356,3.4132,3.4412,3.4524,3.4524,3.4524,3.341,3.1771,3.1662,3.1618,3.1618,3.1618,0.0,0.0,3.1618,3.1618,3.1618,3.1618,3.0428,2.9077,2.8858,2.8803,2.8803,2.8803,2.8803,2.8803,2.8803,2.8803,2.865,2.798,2.7227,2.6639,2.653,2.6201,2.577,2.5285,2.4893,2.4618,2.4584,2.5001,2.5333,2.5512,2.5993,2.6298,2.6395,0.0,0.0,2.5502,2.4511,2.392,2.3991,2.3058,2.2058,2.1106,2.1131,2.1131,2.1069,2.1069,2.1282,2.1681,2.1681,2.1958,2.2422,1.8807,1.8016,0.0,0.0,0.0,0.0,0.0,0.0,0.0,0.0,0.0,0.0,0.0,0.0,0.0,0.0,0.0,2.2839,2.2903,2.2855,2.2998,2.2895,2.2831,2.2903,2.3228,2.3275,2.3046,2.3014,2.3125,2.3403,2.3165,2.4864,2.9132,2.7068,2.5545,2.5103,2.5111,2.5111,2.5111,2.8241,3.0772,3.2701,0.0,0.0,3.1682,3.3614,3.4524,3.4524,3.4524,3.3388,3.175,3.3671,3.4524,3.4524,3.4524,3.3814,3.2689,3.1913,3.1618,3.1618,3.1618,3.1618,3.1618,3.1618,3.1618,3.1618,3.1618,3.1367,0.0,2.9241,2.8803,2.8803,2.8803,2.8803,2.8803,2.8803,2.8803,2.8497,2.7304,2.7086,2.6955,2.619,2.5961,2.577,2.5285,2.5464,2.5516,2.5115,2.5157,2.537,2.5848,2.6132,2.6129,2.573,2.6034,2.5876,2.4956,2.4293,2.3919,2.3932,2.3766,2.3577,2.3364,2.3791,2.3803,2.3364,2.3351,2.3175,2.2782,2.2782,2.3083,2.364,2.197,2.16,0.0,0.0,0.0,0.0,0.0,0.0,0.0,0.0,0.0,0.0,0.0,1.5006,1.6137,0.0,2.2601,2.2958,2.3014,2.3014,2.3014,2.3014,2.3014,2.3014,2.3173,2.3375,2.3632,2.3784,2.3722,2.3356,2.4318,2.584,2.788,2.6136,2.5111,2.5111,2.5111,2.5111,2.5111,2.7039,2.9589,3.2706,3.2706,3.2706,3.2763,3.3952,3.384,3.2706,3.2706,3.2706,3.282,3.4009,3.4524,3.4524,3.4524,3.4229,3.3617,3.2154,3.1618,3.1618,3.1618,3.1618,3.1618,3.1618,3.1618,3.1618,3.1618,3.1618,3.1422,3.0461,2.9547,2.8803,2.8803,2.8803,2.8803,2.8803,2.8803,2.8628,2.7938,2.7545,2.7173,2.6704,2.6223,2.5686,2.4978,2.5422,2.5644,2.4978,2.504,2.522,2.5326,2.5803,2.5877,2.5205,2.5359,2.5295,2.4754,2.4494,2.4364,2.4335,2.4372,2.4406,2.4406,2.4669,2.4662,2.4418,2.4406,2.4236,2.3948,2.3948,2.4224,2.4782,2.3933,2.3547,0.0,0.0,0.0,0.0,0.0,0.0,0.0,0.0,1.9296,2.0339,2.0415,2.0007,1.902,2.0803,2.256,2.2951,2.3014,2.3014,2.3014,2.3014,2.3014,2.3014,2.3077,2.3416,2.4334,2.4697,2.4896,2.4837,2.6273,2.685,2.6286,2.5892,2.5472,2.5103,2.5111,2.5111,2.5111,2.5111,2.703,3.0889,3.0889,3.1913,3.3784,3.3784,3.2763,3.0889,3.1064,3.242,3.4468,3.4345,3.4401,3.4524,3.4524,3.4524,3.4338,3.2765,3.1894,3.1618,3.1618,3.1618,3.1618,3.1618,3.1618,3.1618,3.1618,3.1618,3.1586,3.14,3.01,2.8803,2.8803,2.8803,2.8803,2.8803,2.8803,2.8735,2.8544,2.7867,2.7225,2.6952,2.6303,2.5455,2.4519,2.4988,2.5253,2.4466,2.4935,2.5188,2.473,2.5477,2.5666,2.4707,2.4693,2.4683,2.452,2.459,2.4687,2.479,2.4908,2.5003,2.5146,2.5146,2.5146,2.5146,2.5146,2.5146,2.5146,2.5003,2.5182,2.5594,2.5052,2.4616,1.3948,1.417,1.4814,1.6102,1.6318,1.709,0.0,0.0,2.2852,2.3699,2.4423,2.4249,2.196,2.2961,2.3888,2.3119,2.3014,2.3014,2.3014,2.3014,2.3014,2.3014,2.3235,2.3804,2.4646,2.5133,2.642,2.8755,2.8263,2.855,3.0157,2.8591,2.69,2.5165,2.5111,2.5111,2.5111,2.5111,2.703,3.0889,3.0889,3.1064,3.1286,3.1286,3.118,3.0947,3.1682,3.2924,3.4468,3.3931,3.3998,3.4524,3.4524,3.4524,3.4491,3.4283,3.3104,3.1618,3.1618,3.1618,3.1618,3.1618,3.1618,3.1618,3.1618,3.1618,3.1455,3.0603,2.9587,2.8803,2.8803,2.8803,2.8803,2.8803,2.8803,2.8555,2.7672,2.7363,2.6907,2.5683,2.5355,2.4972,2.4041,2.397,2.4013,2.3884,2.4999,2.5527,2.4639,2.5472,2.562,2.4073,2.4816,2.4964,2.3902,2.3942,2.4194,2.4672,2.5203,2.5748,2.6276,2.6311,2.6311,2.6311,2.6311,2.6311,2.6311,2.5783,2.553,2.5591,2.4992,2.4968,1.6638,1.6853,1.7305,0.0,1.915,1.9961,2.1523,2.2539,2.3389,2.4248,2.4525,2.4436,2.3782,2.3678,2.3557,0.0,2.3014,2.3014,2.3014,2.2776,2.2814,2.3467,2.3428,2.3654,2.4411,2.5634,2.6744,2.7586,2.8435,2.8864,2.8815,2.8277,2.7435,2.6241,2.5472,2.5111,2.5111,2.5111,2.6493,2.9253,3.0343,3.0889,3.0889,3.0889,3.0889,3.0947,3.1624,3.2305,3.2924,3.3027,3.3197,3.3491,3.3829,3.3998,3.3987,3.403,3.3584,3.2809,3.2252,3.2066,3.2012,3.1717,3.1618,3.1618,3.1618,3.1618,3.1542,3.1149,2.9936,2.8891,2.9226,2.9041,2.8803,2.8803,2.8803,2.8702,2.8275,2.7704,2.7034,2.6167,2.5576,2.4903,2.3964,2.4046,2.4036,2.3484,2.4337,2.4765,2.382,2.4797,2.5145,2.394,2.3958,2.3824,2.332,2.3649,2.4007,2.4238,2.5099,2.5711,2.5968,2.6314,2.6314,2.599,2.5968,2.5804,2.5441,2.5194,2.5087,2.5052,2.4479,2.4383,1.8266,1.8773,1.9346,2.005,2.1357,2.2441,2.2559,2.3144,2.3842,2.4629,2.4593,2.4412,2.4508,2.3684,2.3014,2.3007,2.3014,2.3014,2.3014,2.2931,2.3141,2.3793,2.3795,2.3785,2.3956,2.5267,2.6309,2.6919,2.8024,2.8427,2.7782,2.802,2.7809,2.69,2.5945,2.5349,2.5111,2.5349,2.6311,2.8035,2.9677,3.0645,3.0889,3.0889,3.1005,3.117,3.1624,3.1903,3.2065,3.2514,3.2685,3.2742,3.3356,3.3604,3.3639,3.3909,3.3912,3.3683,3.2853,3.2492,3.2295,3.1793,3.1618,3.1618,3.1618,3.1618,3.1545,3.1455,3.033,2.9237,2.9576,2.9216,2.8803,2.8803,2.8803,2.8757,2.8606,2.7882,2.7094,2.6508,2.5712,2.4875,2.3947,2.4099,2.4048,2.3242,2.3907,2.4198,2.3396,2.4294,2.4766,2.4064,2.3643,2.3477,2.3595,2.3737,2.3917,2.409,2.4897,2.543,2.5606,2.6037,2.6037,2.5606,2.543,2.5123,2.4707,2.454,2.4468,2.4468,2.3922,2.3708,1.8018,1.9238,2.0654,2.1074,2.2471,2.3838,2.4248,2.4687,2.5137,2.5557,2.5654,2.5252,2.4047,2.3106,2.2627,2.2959,2.3014,2.3014,2.3014,2.3757,2.4219,2.3937,2.4542,2.4493,2.3339,2.3586,2.5186,2.8575,2.7317,2.7121,2.8663,2.8777,2.8075,2.6545,2.6493,2.6014,2.5111,2.6014,2.6969,2.8035,2.8998,2.9971,3.0889,3.0889,3.1228,3.1787,3.1787,3.2123,3.2685,3.2685,3.2685,3.2742,3.3356,3.3604,3.3681,3.4278,3.4196,3.3726,3.3278,3.2807,3.2295,3.1793,3.1618,3.1618,3.1618,3.1618,3.1531,3.105,3.0559,3.0067,2.9609,2.9175,2.8803,2.8803,2.8803,2.8664,2.8139,2.76,2.6934,2.5987,2.5417,2.4812,2.3961,2.3814,2.3668,2.3159,2.3907,2.4327,2.3841,2.4209,2.4488,2.4478,2.4482,2.4661,2.5079,2.4257,2.3968,2.4551,2.4663,2.4981,2.5571,2.5606,2.5606,2.5606,2.5052,2.4707,2.4707,2.4166,2.3934,2.3897,2.3298,2.3252,1.8873,1.9645,2.0332,2.208,2.32,2.4126,2.5043,2.5176,2.5165,2.5264,2.4844,2.4246,2.3636,2.298,2.245,2.2373,2.2704,2.3238,2.3832,2.4108,2.4412,2.5002,2.5112,0.0,0.0,0.0,0.0,2.5485,2.6231,2.6906,2.7452,2.7337,2.7322,2.7495,2.625,2.6067,2.7021,2.6675,2.7332,2.8938,2.9912,3.0587,3.0889,3.0889,3.1005,3.117,3.117,3.1344,3.1508,3.1508,3.173,3.218,3.2742,3.3264,3.3681,3.43,3.4414,3.4163,3.3355,3.3015,3.27,3.1891,3.1618,3.1618,3.1618,3.1618,3.1586,3.1422,3.081,3.0177,3.0013,2.9416,2.8803,2.8803,2.8803,2.8757,2.856,2.7857,2.7012,2.6418,2.5671,2.493,2.4307,2.3975,2.3732,2.3596,2.357,2.3734,2.4209,2.3864,2.356,2.356,2.3852,2.4096,2.4261,2.4237,2.4487,2.5099,2.5196,2.5515,2.6105,2.58,2.5418,2.5004,2.4443,2.4118,2.4026,2.3527,2.3641,2.4293,2.3711,2.3755,1.9918,2.0562,2.1103,2.2973,2.4002,2.4736,2.5518,2.5391,2.5028,2.4724,2.4053,2.3236,2.2282,2.1793,2.1459,2.1258,2.1592,2.2317,2.3561,2.4031,2.4544,2.5348,2.5445,2.5317,0.0,0.0,0.0,2.4259,2.541,2.6148,2.6287,2.6304,2.6463,2.6961,2.6067,2.6189,2.7444,2.7504,2.8352,2.9912,3.0587,3.0889,3.0889,3.0889,3.0889,3.0889,3.0889,3.0889,3.0889,3.0889,3.1286,3.1845,3.2467,3.3094,3.3649,3.4105,3.4261,3.4152,3.3344,3.3124,3.2907,3.1935,3.1618,3.1618,3.1618,3.1618,3.1586,3.1411,3.081,3.0177,3.0002,2.9358,2.8803,2.8803,2.8803,2.8803,2.8803,2.8092,2.7337,2.6905,2.6148,2.5403,2.4773,2.417,2.388,2.4035,2.3505,2.3396,2.4166,2.3864,2.3517,2.3353,2.3921,2.4294,2.4294,2.4776,2.5222,2.5621,2.5946,2.6197,2.6357,2.5889,2.5302,2.4663,2.411,2.3793,2.3694,2.3602,2.3864,2.4486,2.4148,2.4268,2.097,2.1893,2.2695,2.3632,2.4707,2.5557,2.5654,2.5303,2.4754,2.3867,2.3291,2.2246,2.0063,0.0,1.9765,1.9798,1.9925,2.0586,2.2274,2.3646,2.4624,0.0,0.0,0.0,0.0,0.0,0.0,2.4995,0.0,2.5025,2.5319,2.5687,2.5644,2.5157,2.6014,2.6554,2.6675,2.8522,2.9971,3.0889,3.0889,3.0889,3.0889,3.0889,3.0889,3.0889,3.0889,3.0889,3.0889,3.0947,3.1286,3.1903,3.2524,3.314,3.3642,3.3768,3.3814,3.3726,3.3235,3.3103,3.2874,3.1935,3.1618,3.1618,3.1618,3.1618,3.1531,3.1061,3.0581,3.0111,2.9642,2.9186,2.8803,2.8803,2.8803,2.8803,2.8803,2.8373,2.7846,2.7326,2.6822,2.6164,2.5241,2.4394,2.4018,2.4381,2.3703,2.3295,2.3754,2.4166,2.4251,2.3797,2.4562,2.5158,2.5158,2.5724,2.6143,2.6183,2.6806,2.6949,2.6417,2.5873,2.5294,2.4646,2.4039,2.3716,2.3771,2.4246,2.4486,2.4563,2.4541,2.481,2.1042,2.1182,2.1342,2.3054,2.3439,2.3782,2.4996,2.416,2.3008,2.248,2.125,1.9764,1.8026,1.8483,0.0,1.8731,2.0019,0.0,2.2839,2.3808,0.0,2.545,0.0,2.599,2.5518,2.4996,0.0,0.0,2.4367,2.4361,2.44,2.4996,2.555,2.6128,2.6371,2.7211,2.865,2.9912,3.0645,3.0889,3.0889,3.0889,3.0889,3.0889,3.0889,3.0889,3.0889,3.0889,3.0947,3.1402,3.1903,3.2524,3.3105,3.3727,3.4267,3.4326,3.4109,3.3726,3.3235,3.2895,3.2459,3.1826,3.1618,3.1618,3.1618,3.1618,3.1597,3.1476,3.0843,3.0188,3.0057,2.939,2.8803,2.8803,2.8803,2.8803,2.8803,2.8373,2.7846,2.7326,2.6486,2.5731,2.5194,2.494,2.4568,2.4067,2.3781,2.3683,2.3794,2.3614,2.3396,2.3266,2.3787,2.4305,2.4627,2.5617,2.6531,2.733,2.7156,2.7195,2.7565,2.6173,2.5283,2.5129,2.4167,2.4082,2.4803,2.4213,2.4476,2.5535,2.5164,2.5536,2.1673,2.1569,2.1461,2.2918,2.3283,2.3382,2.4069,2.3047,2.1621,2.043,1.8957,1.7457,1.5959,1.6524,0.0,0.0,0.0,0.0,2.2405,2.337,2.4193,0.0,2.6015,0.0,2.5237,2.5254,2.4945,0.0,2.4027,2.4177,2.4337,2.4809,2.5349,2.5892,2.6727,2.8113,3.003,3.0645,3.0889,3.0889,3.0889,3.0889,3.0889,3.0889,3.0889,3.0889,0.0,3.0889,3.0947,3.1286,3.173,3.2352,3.298,3.3547,3.4089,3.4161,3.4032,3.3693,3.3005,3.2601,3.2295,3.1793,3.1618,3.1618,3.1618,3.1618,3.1575,3.1367,3.0919,3.0417,3.0002,2.9489,2.9066,2.8858,2.8803,2.8803,2.8803,2.8373,2.7799,2.7051,2.6255,2.5615,2.54,2.5195,2.4949,2.4424,2.4023,2.3791,2.3811,2.3393,2.3091,2.3091,2.3537,2.3917,2.4166,2.5673,2.6835,2.7435,2.7699,2.7821,2.79,2.6463,2.5532,2.5266,2.4656,2.4628,2.5215,2.4836,2.522,2.6343,2.6076,2.6445,2.2435,2.2436,2.2409,2.3067,2.3499,2.3598,2.3042,2.1853,2.0274,1.8262,0.0,1.5439,1.4073,1.4437,1.5294,1.6461,0.0,1.9209,2.1669,2.2695,2.3461,2.4186,2.587,2.629,2.4727,2.5343,2.5263,2.3939,2.401,2.4313,2.4563,2.4913,2.5226,2.5472,2.7142,2.8948,3.0889,3.0889,3.0889,3.0889,3.0889,3.0889,3.0889,3.0889,3.0889,3.0889,3.0889,3.0889,3.0898,3.1005,3.1344,3.1845,3.2524,3.314,3.3596,3.3822,3.3846,3.3683,3.2853,3.2525,3.2383,3.1804,3.1618,3.1618,3.1618,3.1618,3.1542,3.1116,3.0952,3.069,2.9805,2.9532,2.9358,2.8924,2.8803,2.8803,2.8803,2.8326,2.762,2.6774,2.612,2.5693,2.5693,2.541,2.5184,2.5125,2.448,2.3916,2.3809,2.3408,2.3091,2.3091,2.344,2.3711,2.3797,2.5788,2.7028,2.6987,2.8051,2.8383,2.7689,2.6628,2.582,2.5314,2.5248,2.5248,2.5273,2.5633,2.6163,2.6891,2.6891,2.7313,2.2453,2.2626,2.305,2.2841,2.2786,2.2708,2.2223,2.0537,0.0,0.0,1.5634,1.4211,1.3207,1.3768,1.4816,1.6086,1.7668,1.9487,2.1709,2.2375,2.3033,0.0,2.5555,2.6261,2.5907,2.6302,0.0,0.0,2.4862,2.4515,2.4579,2.4913,2.5831,2.7444,2.7796,2.8948,3.0889,3.0889,3.0889,3.0889,3.0889,3.0889,3.0889,3.0889,3.0889,3.0889,3.0889,0.0,3.0947,3.145,3.173,3.1903,3.2991,3.3501,3.366,3.4202,3.4141,3.377,3.3606,3.3289,3.2851,3.1913,3.1618,3.1618,3.1618,3.1618,3.1607,3.152,3.1203,3.0766,3.0231,2.9784,2.9358,2.8924,2.8803,2.8803,2.8803,2.8034,2.7278,2.7088,2.6342,2.5693,2.5693,2.5625,2.5498,2.5174,2.4988,2.459,2.3887,2.3408,2.3091,2.3091,2.3178,2.3406,2.3754,2.5537,2.6524,2.6351,2.7354,2.7701,2.7085,2.6348,2.59,2.5775,2.5423,2.5371,2.5775,2.5459,2.5872,2.6891,2.6891,2.7754,2.2223,2.2375,2.2683,2.2712,2.2478,2.1951,2.0818,0.0,0.0,0.0,1.3553,1.2398,1.1953,1.2709,0.0,1.4924,1.6436,1.8255,2.0602,2.1179,0.0,0.0,0.0,0.0,0.0,2.5839,2.612,2.5294,2.4812,2.4658,2.4841,2.5016,2.577,2.7142,2.7744,2.8701,3.0098,3.0645,3.0889,3.0889,3.0889,3.0889,3.0889,3.0889,3.0889,3.0889,3.0889,3.0889,3.0889,3.1228,3.1344,3.1402,3.2305,3.2877,3.3218,3.3794,3.4103,3.4141,3.3879,3.3639,3.3289,3.2328,3.2022,3.1968,3.1706,3.1618,3.1618,3.1618,3.1455,3.107,3.0352,3.0035,2.9692,2.8895,2.8545,2.8233,2.7726,2.7194,2.6774,2.6486,2.6014,2.5693,2.5693,2.5693,2.5615,2.5449,2.5215,2.4969,2.4512,2.4072,2.3588,2.314,2.3091,2.3188,2.3406,2.4988,2.5955,2.5841,2.6764,2.7196,2.6891,2.6271,2.5895,2.5895,2.5666,2.5832,2.6437,2.6192,2.6723,2.7898,2.8168,2.8958,2.1569,2.2005,2.2457,2.2549,2.2289,2.1542,1.9624,1.7513,0.0,0.0,1.1825,1.0942,1.1077,1.1687,1.2582,0.0,1.5165,1.6873,1.9455,0.0,0.0,0.0,0.0,0.0,0.0,2.5207,0.0,2.4771,2.4698,2.4939,2.5394,2.541,2.5953,2.709,2.7864,2.876,2.9726,3.0518,3.0889,3.0889,3.0889,3.0889,3.0889,3.0889,3.0889,3.0889,3.0889,3.0889,3.0889,3.0889,3.0889,3.0947,3.1566,3.2076,3.2581,3.3342,3.3907,3.4291,3.4021,3.3901,3.3628,3.2842,3.2459,3.2285,3.1771,3.1516,3.1465,3.1567,3.1516,3.1203,3.0344,3.0249,3.0112,2.9058,2.8375,2.7799,2.7013,2.664,2.6362,2.5975,2.5878,2.5878,2.5878,2.5878,2.5878,2.5878,2.5487,2.5223,2.5125,2.4766,2.4258,2.3452,2.3286,2.3237,2.3237,2.4708,2.5603,2.5434,2.6535,2.7081,2.6854,2.6353,2.6005,2.5895,2.5895,2.6229,2.6891,2.7035,2.7726,2.8974,2.9509,3.0204,2.0166,2.1695,2.3314,2.2323,2.2278,2.1812,1.9307,0.0,0.0,1.3257,1.1649,1.0741,1.1333,1.1047,1.1452,1.3735,0.0,1.6246,0.0,0.0,0.0,0.0,0.0,0.0,0.0,2.553,0.0,2.5117,2.5063,2.5439,2.6311,2.6371,2.7211,2.9066,2.9244,2.9726,3.0772,3.083,3.0889,3.0889,3.0889,3.0889,3.0889,3.0889,3.0889,3.0889,3.0889,3.0889,0.0,3.0889,3.0889,3.0947,3.1566,3.1845,3.2018,3.3172,3.3614,3.3751,3.4235,3.4067,3.357,3.316,3.2721,3.2285,3.1771,3.1259,3.1002,3.1465,3.1259,3.0741,3.0242,3.0486,3.0603,2.9648,2.8681,2.7998,2.7904,2.7156,2.6496,2.6448,2.6458,2.6458,2.6458,2.6458,2.6458,2.6458,2.5984,2.5527,2.5165,2.5077,2.4824,2.4346,2.3955,2.373,2.373,2.5197,2.5893,2.5251,2.7096,2.7693,2.6658,2.6562,2.6354,2.5906,2.5895,2.6229,2.6891,2.7406,2.8267,2.9533,3.0068,3.0954,1.9564,2.1105,2.2463,2.2074,2.1852,2.1093,1.8799,0.0,1.4133,1.2465,1.1195,1.048,1.0792,1.0787,1.1202,1.2622,1.3275,1.4503,1.6936,1.7913,0.0,0.0,0.0,0.0,0.0,0.0,2.6482,2.521,2.5111,2.5533,2.6432,2.6493,2.6857,2.7633,2.8769,2.9608,2.9971,3.0587,3.0889,3.0889,3.0889,3.0889,3.0889,3.0889,3.0889,3.0889,3.0889,3.0889,0.0,3.0889,3.0889,3.0947,3.117,3.1508,3.1903,3.2753,3.3084,3.314,3.3762,3.3784,3.3409,3.2333,3.2126,3.2115,3.1342,3.0744,3.0443,3.095,3.094,3.0753,3.0572,3.0256,2.9668,2.8373,2.7765,2.7326,2.6774,2.6534,2.6496,2.6496,2.6726,2.6907,2.6907,2.6688,2.6496,2.6496,2.6024,2.5625,2.5488,2.5469,2.54,2.5187,2.458,2.4297,2.4615,2.5506,2.6041,2.603,2.7096,2.7491,2.7053,2.7042,2.6944,2.6758,2.7178,2.7722,2.841,2.9004,2.9808,3.0707,3.1253,3.1529,1.8268,1.9802,2.1017,2.1131,2.0944,2.0159,0.0,1.5661,1.3471,1.1917,1.0839,1.0203,1.0374,1.0511,1.0853,1.1571,1.2224,1.3397,1.5638,1.6474,0.0,0.0,0.0,2.38,0.0,2.5964,2.6499,2.521,2.5111,2.541,2.6075,2.6614,2.709,2.7332,2.8948,2.9844,2.9844,3.0528,3.0889,3.0889,3.0889,3.0889,3.0889,3.0889,3.0889,3.0889,3.0889,3.0889,0.0,3.0889,3.0889,3.0889,3.0889,3.117,3.1624,3.218,3.241,3.2514,3.313,3.3113,3.2713,3.1622,3.128,3.1086,3.0517,3.0015,2.9827,3.0391,3.0432,3.037,3.0681,2.9851,2.8723,2.7957,2.7385,2.686,2.6245,2.6207,2.6304,2.6448,2.686,2.7183,2.7183,2.6918,2.664,2.6496,2.6024,2.5693,2.5693,2.5693,2.5781,2.5927,2.5223,2.5026,2.5661,2.5935,2.6389,2.7089,2.7509,2.7676,2.7534,2.7534,2.7546,2.7613,2.8126,2.8818,2.9682,3.0344,3.1016,3.165,3.1992,3.1761,1.5941,1.7652,1.9146,1.9206,1.9384,1.8971,1.6899,1.4895,1.3145,1.1848,1.0641,0.9932,1.033,1.0123,1.0144,1.0889,1.1913,1.3421,1.5783,1.6773,0.0,0.0,0.0,2.1963,2.4603,2.5867,2.6128,2.5165,2.5111,0.0,2.5103,2.6961,2.8403,2.9362,3.0333,3.0889,3.0889,3.0889,3.0889,3.0889,3.0889,3.0889,3.0889,3.0889,3.0889,3.0889,3.0889,3.0889,0.0,3.0889,3.0889,3.0889,3.0889,3.0889,3.1005,3.1566,3.1787,3.1903,3.2514,3.1999,3.1156,3.1244,3.0247,2.8957,2.905,2.9132,2.9237,2.9837,2.9564,2.9386,3.0526,2.9342,2.8066,2.9105,2.7914,2.664,2.7098,2.639,2.5878,2.64,2.686,2.7183,2.7183,2.7183,2.7051,2.6592,2.6024,2.5693,2.5693,2.5693,2.5878,2.6448,2.6014,2.6008,2.6825,2.6687,2.7091,2.8297,2.8635,2.8528,2.8012,2.7991,2.811,2.8398,2.8387,2.9075,3.0396,3.0998,3.1582,3.2173,3.2068,3.1613,1.4377,1.5823,1.7033,1.725,1.744,1.7274,1.6009,1.4355,1.2817,1.1822,1.0817,1.0267,1.0728,1.0494,1.0978,1.3226,1.3643,0.0,0.0,0.0,0.0,2.1464,2.2997,2.4511,0.0,0.0,2.541,2.5111,2.5111,2.5111,2.5111,2.6961,2.8155,2.8453,3.0039,3.0889,3.0889,3.0889,3.0889,3.0889,3.0889,3.0889,3.0889,3.0889,3.0889,3.0889,3.0889,3.0889,3.0889,3.0889,3.0889,3.0889,3.0889,3.0889,3.0947,3.1566,3.1566,3.1286,3.1903,3.1657,3.0987,3.0368,2.9884,2.9455,2.8739,2.8558,2.8771,2.9732,3.013,3.0276,3.0235,2.9301,2.8367,2.8317,2.7386,2.6544,2.6678,2.6448,2.6534,2.7552,2.7741,2.7893,2.8434,2.7788,2.7051,2.6592,2.6024,2.5693,2.5693,2.5693,2.5791,2.5927,2.5781,2.6244,2.7541,2.7249,2.7483,2.8598,2.8762,2.8727,2.8528,2.8528,2.8807,2.9353,2.9844,3.0552,3.149,3.2191,3.2634,3.2762,3.1219,3.0902,1.2795,1.397,1.4807,1.5225,1.5518,1.5492,1.4734,1.3584,1.2383,1.1516,1.0782,1.0447,1.0904,1.0808,1.1337,1.3487,1.3888,1.4831,0.0,0.0,0.0,2.1764,0.0,0.0,0.0,2.5533,2.5472,2.5111,2.5111,2.5226,2.5594,2.7142,2.8155,2.8522,3.0098,3.0889,3.0889,3.0889,3.0889,3.0889,3.0889,3.0889,3.0889,3.0889,3.0889,3.0889,3.0889,3.0889,0.0,3.0889,3.0889,3.0889,3.0889,3.0889,3.0947,3.1344,3.1228,3.0947,3.1344,3.1152,3.0648,2.9875,2.9455,2.9192,2.8486,2.8451,2.8824,2.9732,3.0078,3.012,3.0047,2.9126,2.8269,2.831,2.753,2.6796,2.7038,2.6762,2.6774,2.7683,2.7788,2.7835,2.8294,2.7741,2.6955,2.6304,2.5927,2.5693,2.5693,2.5693,2.583,2.6255,2.6342,2.704,2.8538,2.7788,2.7882,2.9509,2.9071,2.8803,2.8803,2.8803,2.9244,3.0215,3.0678,3.1392,3.2438,3.2896,3.3039,3.2934,3.1286,3.112,0.0,1.205,1.2564,1.3165,1.3567,1.37,1.3167,1.2563,0.0,1.1063,1.0576,1.0466,1.1022,1.1073,1.1407,1.2491,1.33,1.4669,0.0,1.8626,0.0,0.0,2.4736,0.0,2.3719,2.5286,2.6014,2.5173,2.5111,2.5533,2.6432,2.7444,2.8453,2.9362,3.0401,3.0889,3.0889,3.0889,3.0889,3.0889,3.0889,3.0889,3.0889,3.0889,3.0889,0.0,3.0889,3.0889,3.0889,3.0889,3.0889,3.0889,3.0889,3.0889,3.0889,3.0889,3.0889,3.0889,3.0889,3.0586,3.0127,2.9668,2.8984,2.833,2.8301,2.8664,2.9237,2.9827,2.9564,2.9237,2.9837,2.8872,2.7969,2.8973,2.8156,2.7338,2.7906,2.7227,2.6671,2.7183,2.7278,2.7278,2.7278,2.7278,2.6897,2.5878,2.5693,2.5693,2.5693,2.5693,2.6062,2.7003,2.7363,2.8143,2.9624,2.8283,2.833,3.0666,2.9566,2.8803,2.8803,2.8803,2.9474,3.0857,3.0991,3.1737,3.3174,3.3045,3.2959,3.284,3.1965,3.196,0.9369,0.0,1.0687,1.0402,1.124,1.2053,0.0,1.1392,1.1141,1.0947,1.0576,1.0732,1.2202,1.1898,1.2507,1.5683,1.6349,1.726,1.9521,0.0,0.0,2.5171,2.6308,2.6342,2.4495,2.4984,2.5349,2.5111,2.5111,2.5533,2.6432,2.7444,2.8453,2.9362,3.0401,3.0889,3.0889,3.0889,3.0889,3.0889,3.0889,3.0889,3.0889,3.0889,3.0889,3.0889,3.0889,3.0889,3.0889,3.0889,3.0889,3.0889,3.0889,3.0889,3.0889,3.0889,3.0889,3.0889,3.0889,3.0586,3.0068,2.9316,2.8935,2.8711,2.8389,2.8664,2.9237,2.9827,2.9564,2.9237,2.9837,2.8872,2.7969,2.9045,2.8462,2.7712,2.7968,2.7511,2.7209,2.7935,2.8049,2.8049,2.8049,2.8049,2.7494,2.5927,2.5693,2.5693,2.5693,2.5693,2.5781,2.6014,2.6486,2.7505,2.9326,2.8969,2.9073,2.9988,2.929,2.8803,2.8803,2.8803,2.9474,3.0857,3.2033,3.2965,3.3709,3.2507,3.2412,3.3308,3.2055,3.2113,0.8409,0.9455,1.047,1.0078,1.1012,1.1921,1.1593,1.1198,1.085,0.0,0.0,1.0986,1.2334,1.2666,1.3643,1.6377,1.746,0.0,0.0,0.0,2.5615,2.6329,2.6414,2.5991,0.0,2.4992,2.5111,2.5111,2.5472,2.6189,2.7151,2.8104,2.9066,3.003,3.0645,3.0889,3.0889,3.0889,3.0889,3.0889,3.0889,3.0889,3.0889,3.0889,3.0889,3.0889,3.0889,3.0889,3.0889,3.0889,3.0889,3.0889,3.0889,3.0889,3.0889,3.0889,3.0889,3.0889,3.0889,3.0586,3.0088,2.9424,2.9219,2.9101,2.8486,2.8642,2.9126,2.9836,2.9564,2.9237,2.9837,2.8971,2.8265,2.9363,2.9004,2.8452,2.8557,2.8076,2.7608,2.7717,2.8057,2.8179,2.7861,2.8096,2.7767,2.6304,2.5878,2.5693,2.5693,2.5693,2.5878,2.6342,2.6945,2.7966,2.9464,2.9795,3.0034,3.0306,2.9382,2.8932,2.9244,2.9233,2.9966,3.1392,3.2772,3.3608,3.3897,3.2944,3.2975,3.3877,3.2723,3.2935,0.8211,0.9803,1.1285,1.0698,1.154,1.2432,1.2042,0.0,0.0,0.0,0.0,0.0,1.2486,1.3627,0.0,0.0,0.0,0.0,2.4121,2.4922,2.5573,2.6521,2.5925,0.0,2.5029,2.5079,2.5111,2.5111,2.5953,2.6909,2.7924,2.8879,2.9844,3.0889,3.0889,3.0889,3.0889,3.0889,3.0889,3.0889,3.0889,3.0889,3.0889,3.0889,3.0889,3.0889,0.0,0.0,3.0889,3.0889,3.0889,3.0889,3.0889,3.0889,3.0889,3.0889,3.0889,3.0889,3.0889,3.0635,3.0234,2.9805,2.9668,2.9502,2.8652,2.8633,2.9046,2.9802,2.9511,2.9132,2.9722,2.9089,2.8611,2.9732,2.9632,2.9312,2.928,2.8719,2.8023,2.7458,2.7976,2.8288,2.7535,2.8025,2.8119,2.6924,2.6268,2.5947,2.6162,2.5986,2.6259,2.7294,2.7994,2.8773,2.9803,3.0457,3.0866,3.1137,2.9942,2.9527,3.0182,3.0239,3.0874,3.2232,3.3419,3.406,3.4148,3.368,3.3761,3.4305,3.3636,3.3909,0.9159,1.1325,1.2742,1.0106,1.1068,1.2521,1.1886,0.0,0.0,0.0,0.0,0.0,0.0,1.5381,1.6467,0.0,0.0,2.3184,0.0,0.0,2.6114,2.6267,0.0,2.5608,2.4771,2.4928,2.5111,2.5111,2.5953,2.6909,2.7924,2.8879,2.9844,3.0889,3.0889,3.0889,3.0889,3.0889,3.0889,3.0889,3.0889,3.0889,3.0889,3.0889,3.0889,3.0889,0.0,3.0889,3.0889,3.0889,3.0889,3.0889,3.0889,3.0889,3.0889,3.0889,3.0889,3.0889,3.0889,3.084,3.0703,3.0254,3.0098,2.9941,2.9082,2.8867,2.9046,2.9802,2.9248,2.8558,2.9079,2.8761,2.8611,2.9732,2.9942,2.9766,2.9404,2.9207,2.8949,2.8476,2.8965,2.9273,2.8609,2.9098,2.9146,2.7939,2.7246,2.723,2.814,2.7182,2.6973,2.8309,2.8544,2.9112,3.0315,3.0334,3.0884,3.2148,3.1622,3.1529,3.2113,3.2299,3.2638,3.3326,3.4177,3.4781,3.5245,3.3884,3.3515,3.4083,3.3925,3.4009,0.8859,1.0772,1.2386,1.1267,1.313,1.501,1.4166,1.3952,0.0,0.0,0.0,0.0,0.0,0.0,1.8776,2.1592,0.0,2.4717,2.6221,2.5923,2.5739,0.0,0.0,2.49,2.4623,2.4905,2.5111,2.5111,2.6485,2.7504,2.7975,2.9431,3.0401,3.0889,3.0889,3.0889,3.0889,3.0889,3.0889,3.0889,3.0889,3.0889,3.0889,3.0889,3.0889,3.0889,0.0,3.0889,3.0889,3.0889,3.0889,3.0889,3.0889,3.0889,3.0889,3.0889,3.0889,3.0889,3.0889,3.0889,3.081,3.0342,3.0361,3.041,2.9531,2.9424,2.9639,2.9847,2.911,2.8504,2.9353,2.893,2.8611,2.9732,2.9994,2.9932,2.9704,2.9764,2.9473,2.8309,2.9192,2.9835,2.8821,2.9386,2.9602,2.8536,2.8134,2.8123,2.8603,2.8126,2.7982,2.8655,2.8726,2.9133,3.0252,3.0247,3.0685,3.1815,3.2428,3.2855,3.3107,3.3591,3.3942,3.4189,3.4719,3.514,3.5391,3.5053,3.4595,3.3993,3.3101,3.33,0.8902,1.0397,1.207,1.2806,1.4891,1.6687,1.6453,1.5952,0.0,0.0,0.0,0.0,0.0,1.8584,0.0,2.4072,2.5107,2.5859,2.6695,2.5874,2.5348,2.5821,2.4738,2.4102,2.4539,2.4754,2.4897,2.4976,2.6687,2.77,2.77,2.9655,3.0732,3.0732,3.083,3.0889,3.0889,3.0889,3.0889,3.0889,3.0889,3.0889,3.0889,3.0889,3.0889,3.0889,3.0889,3.0889,3.0889,3.0889,3.0889,3.0889,3.0889,3.0889,3.0889,3.0889,3.0889,3.0889,3.0889,3.0889,3.083,3.0478,3.0605,3.0742,2.9922,2.9902,3.0113,2.9839,2.9178,2.8771,2.9564,2.9036,2.8558,2.9617,2.9879,2.9931,3.0297,3.0273,2.9764,2.8483,2.9186,2.9828,2.9371,2.9931,3.0121,2.917,2.9046,2.9113,2.9269,2.891,2.8774,2.9342,3.0045,3.0679,3.1067,3.1067,3.1349,3.1968,3.3055,3.3853,3.4237,3.452,3.4851,3.5102,3.5378,3.5563,3.5575,3.6128,3.5775,3.4532,3.2912,3.3051,1.0368,1.1558,1.2778,1.4104,1.4645,1.5348,1.7392,1.6934,0.0,1.8555,0.0,0.0,0.0,2.082,2.2881,2.4773,2.6064,2.6734,2.642,0.0,2.5518,2.5074,2.413,2.384,2.4515,2.4368,2.4321,2.4595,2.6048,2.6885,2.6885,2.9031,3.0244,3.0244,3.0664,3.0889,3.0889,3.0889,3.0889,3.0889,3.0889,3.0889,3.0889,3.0889,3.0889,3.0889,3.0889,3.0889,3.0889,3.0889,3.0889,3.0889,3.0889,3.0889,3.0889,3.0889,3.0889,3.0889,3.0889,3.0889,3.0889,3.085,3.0859,3.0781,3.0166,3.001,2.9961,2.9675,2.9461,2.928,2.9185,2.8708,2.8504,2.928,2.9438,2.9806,3.1208,3.0733,2.9995,2.9838,2.9061,2.9084,3.1049,3.1447,3.1181,3.021,3.009,3.0389,3.128,2.9619,2.9126,3.1181,3.406,3.5257,3.3838,3.374,3.3728,3.3838,3.3925,3.4619,3.615,3.5219,3.5203,3.6267,3.6317,3.6329,3.6329,3.638,3.6358,3.6216,3.4581,3.3895,1.008,1.179,1.3497,1.4231,1.5588,0.0,0.0,1.9238,1.9668,2.1016,2.1162,0.0,0.0,0.0,2.3877,2.5605,2.6523,2.7153,2.7463,2.6454,2.5631,2.5438,2.426,2.3591,2.3912,2.4007,2.4169,2.4305,2.5852,2.6805,2.6805,2.8729,2.9932,3.0185,3.0371,3.0596,3.0889,3.0889,3.0587,2.9971,3.0587,3.0889,3.0889,3.0889,3.0889,3.0889,3.0889,3.0889,3.0889,3.0889,3.0889,3.0889,3.0889,3.0889,3.0889,3.0889,3.0889,3.0889,3.0889,3.0889,3.0889,3.0889,3.0889,3.085,3.0625,3.0557,3.0537,3.043,3.0384,3.0151,2.9477,2.8814,2.8504,2.9227,2.9069,2.9227,3.1157,3.127,3.0806,3.0151,3.0981,3.1564,3.0754,3.1167,3.1498,3.1149,3.1094,3.1225,3.1524,3.0888,3.0681,3.1516,3.4483,3.6156,3.5523,3.5463,3.5463,3.5463,3.5463,3.5775,3.6358,3.6015,3.5943,3.6405,3.6405,3.6405,3.6405,3.6405,3.6405,3.6405,3.5775,3.5463,1.0386,1.1987,1.3743,1.48,0.0,0.0,2.0312,2.0889,2.1426,2.2822,2.29,0.0,2.3393,0.0,0.0,0.0,2.6738,2.7211,2.7791,2.6609,2.5569,2.5284,2.4119,2.3476,2.3925,2.3823,2.3943,2.4339,2.5666,2.645,2.645,2.8322,2.9492,2.9785,2.9922,3.0215,3.0664,3.0384,3.0091,2.9853,3.0274,3.0401,3.0401,3.0401,3.0587,3.0889,3.0889,3.0889,3.0889,3.0889,3.0889,3.0889,3.0889,3.0889,3.0889,3.0889,3.0889,3.0889,3.0889,3.0889,3.0889,3.0889,3.0889,3.0889,3.0889,3.0889,3.0889,3.0889,3.0889,3.0603,2.9379,2.8654,2.8451,2.892,2.8664,2.892,3.1105,3.1618,3.1659,3.1993,3.27,3.265,3.0806,3.1116,3.1618,3.1618,3.1618,3.1618,3.1618,3.251,3.3101,3.3101,3.5078,3.6405,3.6405,3.6405,3.6405,3.6405,3.6405,3.6405,3.6405,3.6405,3.6405,3.6405,3.6405,3.6405,3.6405,3.6405,3.6405,3.6405,3.6405,3.6405,1.1657,1.2289,1.3456,1.6061,0.0,0.0,2.1846,2.1523,2.1368,2.3906,2.3715,2.3383,2.4268,2.4092,0.0,2.6103,2.6738,2.7004,2.7039,2.6282,2.534,2.4437,2.356,2.3481,2.4741,2.3723,2.3553,2.4807,2.54,2.5688,2.5734,2.7755,2.8916,2.8916,2.9336,2.9766,3.0185,2.9278,2.9505,3.0889,2.9844,2.9422,2.9422,2.9422,2.9971,3.0889,3.0889,3.0889,3.0889,3.0889,3.0889,3.0889,3.0889,3.0889,3.0889,3.0889,3.0889,3.0889,3.0889,3.0889,3.0889,3.0889,3.0889,3.0889,3.0889,3.0889,3.0889,3.0889,3.0889,3.0488,2.8769,2.8301,2.8291,2.8291,2.8291,2.892,3.1105,3.1618,3.2611,3.5763,3.3845,3.1618,3.1629,3.1618,3.1618,3.1618,3.1618,3.1618,3.1618,3.4434,3.6405,3.6405,3.6405,3.6405,3.6405,3.6405,3.6405,3.6405,3.6405,3.6405,3.6405,3.6405,3.6405,3.6405,3.6405,3.6405,3.6405,3.6405,3.6405,3.6405,3.6405,3.6405,1.1616,1.3218,0.0,1.6776,0.0,0.0,0.0,2.333,0.0,0.0,2.5596,2.541,2.5304,0.0,0.0,2.6309,2.6992,2.7614,2.7883,2.7152,2.6491,2.6209,2.4825,2.4041,2.4429,2.3569,2.3384,2.4429,2.5235,2.5962,2.6554,2.7816,2.8613,2.8906,2.9043,2.9039,2.8899,2.8791,2.8716,2.8495,2.8455,2.9126,3.046,3.046,3.0645,3.0889,3.0889,3.0889,3.0889,3.0889,3.0889,3.0889,3.0889,3.0889,3.0889,3.0889,3.0889,3.0889,3.0889,3.0889,3.0889,3.0889,3.0889,3.0889,3.0889,3.0889,3.0889,3.0889,3.0889,3.0771,3.0254,2.9209,2.8291,2.8291,2.9491,3.0795,3.1465,3.34,3.5271,3.6203,3.5619,3.4239,3.1964,3.1618,3.1618,3.1618,3.1618,3.242,3.469,3.581,3.6405,3.6405,3.6405,3.6405,3.6405,3.6405,3.6405,3.6405,3.6405,3.6405,3.6405,3.6405,3.6405,3.6405,3.6405,3.6405,3.6405,3.6405,3.6405,3.6405,3.6405,3.6405,1.3173,1.4938,0.0,1.8712,2.0664,2.2676,2.4736,0.0,0.0,0.0,0.0,2.6357,2.626,2.6328,0.0,2.6846,2.7386,2.7812,2.8232,2.753,2.6989,2.6989,2.5716,2.5,2.5322,2.4565,2.4454,2.5322,2.5889,2.6445,2.6989,2.7853,2.8408,2.8662,2.8672,2.843,2.8015,2.821,2.8212,2.8069,2.8237,2.9214,3.0889,3.046,3.0528,3.0889,3.0889,3.0889,3.0889,3.0889,3.0889,3.0889,3.0889,3.0889,3.0889,3.0889,3.0889,3.0889,3.0889,3.0889,3.0889,3.0889,3.0889,3.0889,3.0889,3.0889,3.0889,3.0889,3.0889,3.0889,3.0889,2.96,2.8291,2.8291,3.0005,3.1618,3.1618,3.4141,3.6405,3.6405,3.6405,3.5763,3.3845,3.2471,3.1618,3.1618,3.2711,3.419,3.6156,3.6405,3.6405,3.6405,3.6405,3.6405,3.6405,3.6405,3.6405,3.6405,3.6405,3.6405,3.6405,3.6405,3.6405,3.6405,3.6405,3.6405,3.6405,3.6405,3.6405,3.643,3.7322,3.7737,1.5529,1.6977,0.0,2.1265,2.2441,0.0,2.5908,2.6797,2.7119,2.708,0.0,2.666,2.7012,2.6797,2.6807,2.7601,2.7748,2.7851,2.8126,2.7584,2.7098,2.6989,2.6282,2.6118,2.6935,2.6227,2.6063,2.6935,2.6989,2.7043,2.7098,2.7853,2.8291,2.8291,2.8237,2.7927,2.7419,2.7299,2.7743,2.8637,2.8672,2.9419,3.0771,2.9933,3.003,3.0889,3.0889,3.0889,3.0889,3.0889,3.0889,3.0889,3.0889,3.0889,3.0889,3.0889,3.0889,3.0889,3.0889,3.0889,3.0889,3.0889,3.0889,3.0889,3.0889,3.0889,3.0889,3.0889,3.0889,3.0889,3.0889,2.9717,2.8525,2.8525,3.0129,3.1618,3.1618,3.3895,3.6123,3.6621,3.6556,3.6405,3.6405,3.3747,3.1618,3.1618,3.4337,3.6405,3.6405,3.6405,3.6405,3.6405,3.6405,3.6405,3.6405,3.6405,3.6493,3.6707,3.6707,3.6707,3.6707,3.6518,3.6405,3.6405,3.6405,3.6405,3.6405,3.6619,3.6707,3.6757,3.8743,3.9697,1.4891,1.6814,0.0,0.0,2.4228,2.6191,2.6748,2.7471,2.792,2.7588,2.7715,2.7812,2.7568,2.7725,2.7832,2.7738,2.7939,2.797,2.7359,2.7691,2.7755,2.7098,2.6826,2.6772,2.6989,2.6227,2.6063,2.6935,2.6989,2.7314,2.797,2.8184,2.8291,2.8291,2.7638,2.6918,2.6134,2.5656,2.594,2.6852,2.7472,2.8531,2.9883,3.0393,3.0713,3.0889,3.0889,3.0889,3.0889,3.0889,3.0889,3.0889,3.0889,3.0889,3.0889,3.0889,3.0889,3.0889,3.0889,3.0889,3.0889,3.0889,3.0889,3.0889,3.0889,3.0889,3.0889,3.0889,3.0889,3.0889,3.0889,3.0615,3.0332,3.0332,3.1019,3.1618,3.1618,3.2167,3.3873,3.8164,3.7612,3.6405,3.6405,3.3747,3.1618,3.1618,3.4337,3.6405,3.6405,3.6405,3.6405,3.6405,3.6405,3.6405,3.6405,3.6405,3.7159,3.8868,3.8981,3.8981,3.8981,3.7335,3.6405,3.6405,3.6405,3.6405,3.6405,3.8115,3.8981,3.8981,3.9471,3.9697,1.5607,0.0,0.0,2.2568,0.0,2.6875,2.7148,2.7773,2.8232,2.8018,2.8135,2.8223,2.8008,2.8144,2.8223,2.7998,2.8144,2.813,2.7691,2.8014,2.813,2.7701,2.7638,2.7638,2.7638,2.7206,2.7152,2.7584,2.7638,2.7809,2.8291,2.8291,2.813,2.7691,2.726,2.6382,2.5055,2.5207,2.5621,2.6311,2.7128,2.8285,2.959,3.0254,3.0684,3.0889,3.0889,3.0889,3.0889,3.0889,3.0889,3.0889,3.0889,3.0889,3.0889,3.0889,3.0889,3.0889,3.0889,3.0889,3.0889,3.0889,3.0889,3.0889,3.0889,3.0889,3.0889,3.0889,3.0889,3.0889,3.0889,3.0889,3.117,3.2363,3.2114,3.1618,3.1618,3.1618,3.2416,3.525,3.6149,3.5918,3.4385,3.2711,3.1946,3.2874,3.5844,3.7965,3.7965,3.7965,3.7965,3.7965,3.7965,3.7965,3.7965,3.7965,3.8454,3.9622,3.9697,3.9697,3.9697,3.858,3.7965,3.7965,3.7965,3.7965,3.7965,3.9132,3.9697,3.9697,3.9697,3.9697,1.613,0.0,2.0547,2.332,2.5234,0.0,2.7021,2.7734,2.8271,2.8203,2.8242,2.8291,2.8291,2.8291,2.8291,2.8291,2.8291,2.8237,2.8077,2.8184,2.8237,2.8077,2.8184,2.8291,2.8291,2.8291,2.8291,2.8291,2.8291,2.8291,2.8291,2.8291,2.7916,2.7043,2.6826,2.599,2.4317,2.4898,2.5561,2.6214,2.7207,2.8411,2.9636,2.9853,3.0264,3.0771,3.0693,3.0703,3.0771,3.0771,3.0771,3.0781,3.0859,3.0889,3.0879,3.0801,3.0771,3.0771,3.0742,3.0703,3.0693,3.084,3.0889,3.0889,3.0889,3.0889,3.0889,3.0889,3.0889,3.0889,3.0889,3.0889,3.1518,3.3907,3.33,3.2033,3.1644,3.1618,3.1618,3.1618,3.4038,3.523,3.2576,3.2121,3.2667,3.4283,3.7483,3.9697,3.9697,3.9697,3.9697,3.9697,3.9697,3.9697,3.9697,3.9697,3.9697,3.9697,3.9697,3.9697,3.9697,3.9697,3.9697,3.9697,3.9697,3.9697,3.9697,3.9697,3.9697,3.9697,3.9697,3.9697,1.425,0.0,2.0401,0.0,2.4941,2.582,0.0,0.0,2.8193,0.0,2.8047,2.8291,2.8291,2.8291,2.8291,2.8291,2.8291,2.8023,2.726,2.7809,2.8023,2.726,2.7862,2.8291,2.8291,2.8291,2.8291,2.8291,2.8291,2.8291,2.8291,2.8291,2.7916,2.7043,2.6282,2.5395,2.4326,2.3672,2.4153,2.5814,2.7453,2.869,2.9616,2.9238,2.9531,3.0264,2.9902,2.9951,3.0293,3.0293,3.0293,3.0332,3.0732,3.0889,3.084,3.0439,3.0293,3.0273,3.0166,2.9971,2.9873,3.0644,3.0889,3.0889,3.0889,3.0889,3.0889,3.0889,3.0889,3.0889,3.0889,3.0889,3.1518,3.3907,3.4327,3.3672,3.1938,3.1618,3.1618,3.1618,3.3292,3.4614,3.4186,3.4086,3.4229,3.448,3.7483,3.9697,3.9697,3.9697,3.9697,3.9697,3.9697,3.9697,3.9697,3.9697,3.9697,3.9697,3.9697,3.9697,3.9697,3.9697,3.9697,3.9697,3.9697,3.9697,3.9697,3.9697,3.9697,3.9697,3.9697,3.9697,1.4756,1.7457,2.0303,0.0,2.4592,2.5693,2.5693,0.0,2.6943,2.7236,2.7451,2.7725,2.8203,2.8291,2.8291,2.8291,2.8291,2.8184,2.7799,2.8077,2.8184,2.7745,2.8077,2.8291,2.8291,2.8291,2.8291,2.8291,2.8291,2.8077,2.7584,2.7584,2.6926,2.5542,2.511,2.4501,2.356,2.3175,2.3904,2.5743,2.7476,2.8486,2.8848,2.8652,2.9033,2.9834,2.9704,2.9678,2.9844,2.9844,2.999,3.0215,3.042,3.0664,3.0869,3.0664,3.0586,3.0576,3.0527,3.042,3.0215,2.9629,3.0098,3.0889,3.0889,3.0889,3.0889,3.0889,3.0889,3.0889,3.0889,3.0889,3.1518,3.3907,3.4524,3.4294,3.3431,3.2394,3.1894,3.2985,3.3934,3.4524,3.4524,3.4524,3.4524,3.4524,3.5817,3.7483,3.9426,3.9697,3.9697,3.9697,3.9697,3.9697,3.9697,3.9697,3.9697,3.9697,3.9697,3.9697,3.9697,3.9697,3.9697,3.9697,3.9697,3.9697,3.9697,3.9697,3.9697,3.9697,3.9697,3.9697,1.5038,1.6572,1.813,2.158,2.3744,2.5148,0.0,0.0,2.5908,0.0,2.6943,2.7217,2.7851,2.8057,2.8164,2.8271,2.8291,2.8291,2.8291,2.8291,2.8291,2.8291,2.8291,2.8291,2.8291,2.8291,2.8291,2.8291,2.8291,2.8023,2.7368,2.7314,2.6591,2.5046,2.4991,2.4437,2.3344,2.3568,2.4462,2.6063,2.7584,2.8291,2.8291,2.8291,2.8643,2.9248,2.9248,2.9307,2.9404,2.9404,2.959,2.9883,2.999,3.0293,3.0654,3.0508,3.0498,3.0527,3.0312,3.0234,3.0019,2.8711,2.9473,3.0889,3.0889,3.0889,3.0889,3.0889,3.0889,3.0889,3.0889,3.0889,3.1518,3.3907,3.4524,3.4736,3.5653,3.4691,3.3817,3.4406,3.4524,3.4524,3.4524,3.4524,3.4524,3.4524,3.4524,3.5763,3.9258,3.9697,3.9697,3.9697,3.9697,3.9697,3.9697,3.9697,3.9697,3.9697,3.9697,3.9697,3.9697,3.9697,3.9697,3.9697,3.9697,3.9697,3.9697,3.9697,3.9697,3.9697,3.9697,3.9697,1.3893,1.2778,0.0,1.9079,0.0,0.0,0.0,0.0,0.0,0.0,2.6738,2.7021,2.707,2.7422,2.7885,2.8232,2.8291,2.8291,2.8291,2.8291,2.8291,2.8291,2.8291,2.8291,2.8291,2.8291,2.8291,2.8291,2.8291,2.8291,2.8237,2.8237,2.7799,2.6871,2.6881,2.599,2.427,2.5119,2.6008,2.6935,2.7862,2.8291,2.8291,2.8291,2.831,2.8359,2.8359,2.8584,2.8955,2.8955,2.8965,2.9023,2.9443,2.9785,3.0,2.9453,2.9479,2.9521,2.8711,2.8428,2.8418,2.832,2.9473,3.0889,3.0889,3.0889,3.0889,3.0889,3.0889,3.0889,3.0889,3.0889,3.1518,3.3907,3.4524,3.5389,3.8724,3.9339,3.8315,3.5091,3.4524,3.4524,3.4524,3.4524,3.4524,3.4524,3.4524,3.5763,3.9258,3.9697,3.9697,3.9697,3.9697,3.9697,3.9697,3.9697,3.9697,3.9697,3.9697,3.9697,3.9697,3.9697,3.9697,3.9697,3.9697,3.9697,3.9697,3.9697,3.9697,3.9697,3.9697,3.9697,1.1555,1.1907,0.0,1.6367,1.9814,2.2441,0.0,2.4121,2.5234,2.5391,2.583,2.6152,2.6152,2.7002,2.7767,2.7861,2.768,2.7638,2.8237,2.7809,2.7691,2.8237,2.8291,2.8291,2.8291,2.8291,2.8291,2.8291,2.8291,2.8077,2.7476,2.7476,2.7098,2.6172,2.6172,2.5844,2.5229,2.6109,2.6663,2.6989,2.7853,2.8291,2.8291,2.8291,2.8291,2.8291,2.8291,2.8379,2.8516,2.8516,2.8672,2.8945,2.9209,2.96,3.0039,3.0215,3.0332,3.0215,2.8789,2.8291,2.8476,2.96,3.0381,3.0889,3.0889,3.0889,3.0889,3.0889,3.0889,3.0889,3.0889,3.0889,3.1518,3.3907,3.6188,3.8185,3.9426,3.7921,3.5982,3.4736,3.4524,3.4524,3.4524,3.4524,3.4524,3.4524,3.4524,3.5763,3.9258,3.9697,3.9697,3.9697,3.9697,3.9697,3.9697,3.9697,3.9697,3.9697,3.9697,3.9697,3.9697,3.9697,3.9697,3.9697,3.9697,3.9697,3.9697,3.9697,3.9697,3.9697,3.9697,3.9697,1.0518,1.127,0.0,0.0,0.0,0.0,2.1894,0.0,2.3906,2.4766,2.5244,2.5557,2.5664,2.6562,2.7337,2.7422,2.7329,2.7437,2.8023,2.7713,2.7638,2.8237,2.8291,2.8291,2.8291,2.8291,2.8291,2.8291,2.8291,0.0,2.7476,2.7422,2.7152,2.6609,2.6282,2.6282,2.6554,2.6881,2.7152,2.7422,2.8023,2.8291,2.8291,2.8291,2.8291,2.8291,2.8291,2.8291,2.8291,2.8291,2.8457,2.8721,2.8828,2.9101,2.9482,2.9873,3.0019,2.9853,2.8691,2.8291,2.8486,2.9639,3.041,3.0889,3.0889,3.0889,3.0889,3.0889,3.0889,3.0889,3.0889,3.0889,3.1286,3.2934,3.5674,3.7962,3.7962,3.6134,3.4524,3.4524,3.4524,3.4524,3.4524,3.4524,3.4902,3.6079,3.5224,3.5763,3.9258,3.9697,3.9697,3.9697,3.9697,3.9697,3.9697,3.9697,3.9697,3.9697,3.9697,3.9697,3.9697,3.9697,3.9697,3.9697,3.9697,3.9697,3.9697,3.9697,3.9697,3.9697,3.9697,3.9697,0.0,0.0,0.0,0.0,0.0,0.0,0.0,0.0,2.1853,2.4482,2.5047,2.5137,2.5577,2.6074,2.6504,2.6914,2.7363,2.7666,2.7738,2.8037,2.8291,2.8291,2.8291,2.8291,2.8291,2.8291,2.8291,2.8291,2.8291,2.8291,2.8291,2.8291,2.8291,2.8291,2.7476,2.7422,2.8291,2.7476,2.7476,2.8291,2.8291,2.8291,2.8291,2.8291,2.8291,2.8291,2.8291,2.8291,2.8291,2.8291,2.8291,2.8291,2.8291,2.8291,2.8291,2.8291,2.8291,2.8291,2.8291,2.8291,2.8291,2.8291,2.9434,3.082,3.0869,3.0889,3.0889,3.0889,3.0889,3.0889,3.0889,3.0889,3.0889,3.0889,3.2763,3.4524,3.4524,3.4524,3.4524,3.4524,3.4524,3.4524,3.4524,3.4524,3.5653,3.905,3.6731,3.5872,3.9258,3.9697,3.9697,3.9697,3.9697,3.9697,3.9697,3.9697,3.9697,3.9697,3.9697,3.9697,3.9697,3.9697,3.9697,3.9697,3.9697,3.9697,3.9697,3.9697,3.9697,3.9697,3.9697,3.9697,1.2012,0.0,0.0,0.0,0.0,0.0,0.0,0.0,0.0,2.3033,2.3428,2.3603,2.4893,2.5557,2.5908,2.6025,2.6401,2.7007,2.8023,2.7678,2.7584,2.8237,2.8291,2.8291,2.8291,2.8291,2.8291,0.0,2.8291,2.8291,2.8291,2.8291,2.8291,2.8291,2.8077,2.8077,2.8291,2.8077,2.8077,2.8291,2.8291,2.8291,2.8291,2.8291,2.8291,2.8291,2.8291,2.8291,2.8291,2.8291,2.8291,2.8291,2.8291,2.8291,2.8291,2.8291,2.8291,2.8291,2.8291,2.8291,2.8291,2.8291,2.8613,2.9248,3.0508,3.0889,3.0889,3.0889,3.0889,3.0889,3.0889,3.0889,3.0889,3.0889,3.2763,3.4524,3.4524,3.4524,3.4524,3.4524,3.4524,3.4524,3.4524,3.4524,3.4847,3.5817,3.7269,3.8619,3.9581,3.9697,3.9697,3.9697,3.9697,3.9697,3.9697,3.9697,3.9697,3.9697,3.9697,3.9697,3.9697,3.9697,3.9697,3.9697,3.9697,3.9697,3.9697,3.9697,3.9697,3.9697,3.9697,3.9697,1.2314,0.0,0.0,0.0,0.0,0.0,0.0,1.7627,0.0,0.0,2.2422,2.2695,2.416,2.4707,2.5098,2.5606,2.5908,2.6378,2.7389,2.7381,2.7429,2.7731,2.792,2.8027,2.8027,2.8027,2.8105,2.8281,2.8291,2.8291,2.8291,2.8291,2.8291,2.8291,2.8291,2.8291,2.8291,2.8291,2.8291,2.8291,2.8291,2.8291,2.8291,2.8291,2.8291,2.8291,2.8291,2.8291,2.8291,2.8291,2.8291,2.8291,2.8291,2.8291,2.8291,2.8291,2.8291,2.8291,2.8291,2.8291,2.8291,2.8291,2.8291,2.8613,3.0361,3.0889,3.0889,3.0889,3.0889,3.0889,3.0889,3.0889,3.0889,3.0889,3.2763,3.4244,3.3218,3.2991,3.3275,3.4289,3.4524,3.4524,3.4524,3.4524,3.4524,3.4524,3.7483,3.9697,3.9697,3.9697,3.9697,3.9697,3.8396,3.8133,3.9581,3.9697,3.9697,3.9697,3.9697,3.9697,3.9697,3.9697,3.9697,3.9697,3.9697,3.9697,3.9697,3.9697,3.9697,3.9697,3.9697,3.9697,1.2467,1.3207,0.0,0.0,1.4287,0.0,1.7832,1.7539,1.7399,0.0,0.0,2.1738,2.3105,2.3447,2.3887,0.0,2.5352,2.5742,2.6367,2.7109,2.7451,2.706,2.7363,2.7598,2.7598,2.7598,2.7764,2.8193,2.8262,2.8291,2.8291,2.8291,2.8291,2.8291,2.8291,2.8291,2.8291,2.8291,2.8291,2.8291,2.8291,2.8291,2.8291,2.8291,2.8291,2.8291,2.8291,2.8291,2.8291,2.8291,2.8291,2.8291,2.8291,2.8291,2.8291,2.8291,2.8291,2.8291,2.8291,2.8291,2.8291,2.8291,2.8291,2.8613,3.0361,3.0889,3.0889,3.0889,3.0889,3.0889,3.0889,3.0889,3.0889,3.0889,3.2534,3.3501,3.1344,3.0889,3.1624,3.4009,3.4524,3.4524,3.4524,3.4524,3.4524,3.4524,3.7483,3.9697,3.9697,3.9697,3.9697,3.9697,3.6947,3.6352,3.9426,3.9697,3.9697,3.9697,3.9697,3.9697,3.9697,3.9697,3.9697,3.9697,3.9697,3.9697,3.9697,3.9697,3.9697,3.9697,3.9697,3.9697,1.4375,1.496,1.5439,1.4562,0.0,0.0,1.4844,1.4912,1.5654,0.0,0.0,0.0,0.0,0.0,0.0,0.0,0.0,0.0,0.0,0.0,0.0,2.7021,2.709,2.7139,2.7139,2.7139,2.7324,2.7754,2.8096,2.8291,2.8291,2.8291,2.8291,2.8291,2.8291,2.8291,2.8291,2.8291,2.8291,2.8291,2.8291,2.8291,2.8291,2.8291,2.8291,2.8291,2.8291,2.8291,2.8291,2.8291,2.8291,2.8291,2.8291,2.8291,2.8291,2.8291,2.8291,2.8291,2.8291,2.8291,2.8291,2.8291,2.8291,2.8613,3.0361,3.0889,3.0889,3.0889,3.0889,3.0889,3.0889,3.0889,3.0889,3.0889,3.1228,3.146,3.1005,3.0889,3.1624,3.4009,3.4524,3.4524,3.4524,3.4524,3.4524,3.4524,3.7483,3.9697,3.9697,3.9697,3.9697,3.9697,3.9102,3.8933,3.9633,3.9697,3.9697,3.9697,3.9697,3.9697,3.9697,3.9697,3.9697,3.9697,3.9697,3.9697,3.9697,3.9697,3.9697,3.9697,3.9697,3.9697,1.5743,1.5898,1.624,1.5556,0.0,0.0,0.0,1.5107,1.5586,1.7291,1.7145,1.7282,0.0,0.0,0.0,0.0,0.0,0.0,0.0,0.0,0.0,0.0,2.6327,2.6465,2.668,2.6699,2.6885,2.7314,2.7539,2.7744,2.7969,2.7978,2.8076,2.8281,2.8291,2.8291,2.8291,2.8291,2.8291,2.8291,2.8291,2.8291,2.8291,2.8291,2.8291,2.8291,2.8291,2.8291,2.8291,2.8291,2.8291,2.8291,2.8291,2.8291,2.8291,2.8291,2.8291,2.8291,2.8291,2.8291,2.8291,2.8291,2.8291,2.8457,2.9336,3.0205,3.118,3.2373,3.2706,3.243,3.1228,3.0889,3.0889,3.0889,3.0889,3.0889,3.0889,3.0889,3.1624,3.4009,3.3501,3.3105,3.43,3.4524,3.4524,3.4524,3.5982,3.7108,3.7108,3.8619,3.9697,3.9697,3.9697,3.9697,3.9697,3.9697,3.9697,3.9697,3.9697,3.9697,3.9697,3.9697,3.9697,3.9697,3.9697,3.9697,3.9697,3.9697,3.9697,3.9697,3.9697,3.9697,0.0,0.0,0.0,0.0,0.0,1.6396,0.0,0.0,0.0,1.7535,0.0,0.0,0.0,0.0,0.0,0.0,0.0,0.0,0.0,0.0,0.0,0.0,0.0,2.5625,2.5977,2.5937,2.6162,2.6846,2.666,2.6816,2.751,2.7669,2.7875,2.8164,2.8252,2.8291,2.8291,2.8291,2.8291,2.8291,2.8291,2.8291,2.8291,2.8291,2.8291,2.8291,2.8291,2.8291,2.8291,2.8291,2.8291,2.8291,2.8291,2.8291,2.8291,2.8291,2.8291,2.8291,2.8291,2.8291,2.8291,2.8291,2.8291,2.8291,2.8291,2.9277,3.0965,3.3744,3.425,3.3601,3.1994,3.2113,3.2332,3.117,3.1228,3.146,3.1005,3.1296,3.2143,3.4121,3.2934,3.2201,3.4177,3.4524,3.4524,3.4524,3.4524,3.4524,3.4524,3.7536,3.9697,3.9697,3.9697,3.9697,3.9697,3.9697,3.9697,3.9697,3.9697,3.9697,3.9697,3.9697,3.9697,3.9697,3.9697,3.9697,3.9697,3.9697,3.9697,3.9697,3.9697,3.9697,0.0,0.0,0.0,0.0,1.8926,0.0,0.0,0.0,1.588,1.5332,0.0,0.0,0.0,0.0,0.0,0.0,0.0,0.0,0.0,0.0,0.0,0.0,0.0,2.458,2.4639,2.4297,2.4746,2.6338,2.5371,2.541,2.7002,2.7451,2.7738,2.7787,2.8096,2.8291,2.8291,2.8291,2.8291,2.8291,2.8291,2.8291,2.8291,2.8291,2.8291,2.8291,2.8291,2.8291,2.8291,2.8291,2.8291,2.8291,2.8291,2.8291,2.8291,2.8291,2.8291,2.8291,2.8291,2.8291,2.8291,2.8291,2.8291,2.8291,2.8291,2.8428,2.9441,3.3369,3.3278,3.2245,3.3678,3.6383,3.7382,3.216,3.2534,3.3501,3.1344,3.2592,3.4188,3.4468,3.43,3.4188,3.4468,3.4524,3.4524,3.4524,3.4524,3.4524,3.4524,3.7536,3.9697,3.9697,3.9697,3.9697,3.9697,3.9697,3.9697,3.9697,3.9697,3.9697,3.9697,3.9697,3.9697,3.9697,3.9697,3.9697,3.9697,3.9697,3.9697,3.9697,3.9697,3.9697,0.0,0.0,0.0,0.0,0.0,0.0,1.6455,0.0,1.5732,0.0,0.0,0.0,0.0,0.0,0.0,0.0,1.7373,0.0,0.0,0.0,0.0,0.0,0.0,0.0,2.3213,2.3154,2.3662,2.5137,2.4268,2.4387,2.6132,2.6689,2.7158,2.7699,2.7832,2.8047,2.8291,2.8291,2.8291,2.8291,2.8291,2.8291,2.8291,2.8291,2.8291,2.8291,2.8291,2.8291,2.8291,2.8291,2.8291,2.8291,2.8291,2.8291,2.8291,2.8291,2.8291,2.8291,2.8291,2.8291,2.8291,2.8291,2.8291,2.8486,2.9492,3.0011,3.0821,3.3702,3.3934,3.3497,3.4316,3.5609,3.6068,3.3604,3.3784,3.4244,3.3218,3.3784,3.4524,3.4524,3.4524,3.4524,3.4524,3.4524,3.4524,3.4524,3.4524,3.4524,3.4524,3.5763,3.7483,3.9478,3.9697,3.9697,3.9697,3.9697,3.9697,3.9697,3.9697,3.9697,3.9697,3.9697,3.9697,3.9697,3.9697,3.9697,3.9697,3.9697,3.9697,3.9697,3.9697,3.9697,2.1263,0.0,0.0,0.0,0.0,0.0,0.0,0.0,0.0,0.0,0.0,0.0,0.0,0.0,0.0,0.0,0.0,1.7063,0.0,0.0,0.0,0.0,0.0,0.0,0.0,2.1738,2.2178,2.3945,0.0,2.3169,2.5439,2.5967,2.6553,2.7346,2.7601,2.7812,2.8115,2.8232,2.8291,2.8291,2.8291,2.8291,2.8291,2.8291,2.8291,2.8291,2.8291,2.8291,2.8291,2.8291,2.8291,2.8291,2.8291,2.8291,2.8291,2.8291,2.8291,2.8291,2.8291,2.8291,2.8369,2.8848,2.9004,2.9238,3.0508,3.1608,3.2711,3.413,3.4524,3.4524,3.4524,3.4524,3.4356,3.3671,3.3501,3.382,3.5019,3.4385,3.3727,3.4356,3.4524,3.43,3.3614,3.4065,3.4524,3.4524,3.4524,3.4524,3.4524,3.4524,3.5817,3.9322,3.9697,3.9697,3.9697,3.9697,3.9697,3.9697,3.9697,3.9697,3.9697,3.9697,3.9697,3.9697,3.9697,3.9697,3.9697,3.9697,3.9697,3.9697,3.9697,3.9697,0.0,0.0,0.0,2.0269,0.0,0.0,0.0,0.0,1.7695,0.0,0.0,0.0,0.0,0.0,0.0,0.0,0.0,0.0,0.0,0.0,0.0,0.0,0.0,0.0,0.0,1.9766,2.0048,0.0,2.1221,2.1504,2.4949,2.5518,2.5967,2.6416,2.7236,2.7728,2.7738,2.8086,2.8291,2.8291,2.8291,2.8291,2.8291,2.8291,2.8291,2.8291,2.8291,2.8291,2.8291,2.8291,2.8291,2.8291,2.8291,2.8291,2.8291,2.8291,2.8291,2.8291,2.8291,2.8291,2.8574,3.0264,3.081,3.082,3.0869,3.255,3.4447,3.4502,3.4524,3.4524,3.4524,3.4524,3.3896,3.1576,3.1005,3.2153,3.6404,3.4007,3.1682,3.4076,3.4524,3.3784,3.1402,3.2934,3.4524,3.4524,3.4524,3.4524,3.4524,3.4524,3.5817,3.9322,3.9697,3.9697,3.9697,3.9697,3.9697,3.9697,3.9697,3.9697,3.9697,3.9697,3.9697,3.9697,3.9697,3.9697,3.9697,3.9697,3.9697,3.9697,3.9697,3.9697,0.0,0.0,2.5028,2.2571,0.0,0.0,0.0,0.0,0.0,0.0,0.0,0.0,0.0,0.0,0.0,0.0,0.0,0.0,0.0,0.0,0.0,0.0,0.0,0.0,0.0,0.0,0.0,0.0,2.0801,0.0,2.4082,2.4902,2.5498,2.5947,2.6787,2.7373,2.7718,2.8086,2.8291,2.8291,2.8291,2.8291,2.8291,2.8291,2.8291,2.8291,2.8291,2.8291,2.8291,2.8291,2.8291,2.8291,2.8291,2.8291,2.8291,2.8291,2.8291,2.8291,2.8291,2.8291,2.8584,3.0322,3.0889,3.0889,3.0889,3.2592,3.4524,3.4524,3.4524,3.4524,3.4524,3.4524,3.415,3.2833,3.2568,3.2962,3.4407,3.2744,3.1122,3.1971,3.2143,3.1855,3.1064,3.1576,3.2143,3.2143,3.3501,3.4524,3.4524,3.4524,3.5817,3.9322,3.9697,3.9697,3.9697,3.9697,3.9697,3.9697,3.9697,3.9697,3.9697,3.9697,3.9697,3.9697,3.9697,3.9697,3.9697,3.9697,3.9697,3.9697,3.9697,3.9697,2.7949,2.7437,0.0,2.4257,2.3227,0.0,1.9152,0.0,1.9571,0.0,0.0,0.0,0.0,0.0,0.0,0.0,0.0,0.0,0.0,1.387,0.0,0.0,0.0,0.0,0.0,0.0,1.8184,2.0439,2.0038,0.0,0.0,2.4375,2.5039,2.5488,2.6338,2.7002,2.7432,2.7851,2.8144,2.8291,2.8291,2.8291,2.8291,2.8291,2.8291,2.8291,2.8291,2.8291,2.8291,2.8291,2.8291,2.8291,2.8291,2.8291,2.8291,2.8291,2.8291,2.8291,2.8291,2.8291,2.8584,3.0322,3.0889,3.0889,3.0889,3.1971,3.3388,3.4244,3.4524,3.4524,3.4524,3.384,3.3277,3.3381,3.3418,3.3252,3.2646,3.166,3.0889,3.0889,3.0889,3.0889,3.0889,3.0889,3.117,3.2028,3.3501,3.4524,3.4524,3.4524,3.5817,3.9322,3.9697,3.9697,3.9697,3.9697,3.9697,3.9697,3.9697,3.9697,3.9697,3.9697,3.9697,3.9697,3.9697,3.9697,3.9697,3.9697,3.9697,3.9697,3.9697,3.9697]}]]